Wetterdaten: Samstag, 18.02.2017
Datum Zeit Temp. A. Feuchte A. Luftdruck Regen Wind Richtung Richtung Sonnenschein ET UV Solar Taupunkt Windchill Windben Empfang
18.02.2017 00:00 2,6 C 96 % 1025,7 hPa 0,0 l/m 11,1 km/h (2 Bft) W 265 0 min 0,000 mm 0,0 UV-I 0 W/m 2,0 C -1,4 C 16,1 km/h (3 Bft) 96,00 %
18.02.2017 00:02 2,6 C 96 % 1025,7 hPa 0,0 l/m 13,7 km/h (3 Bft) W-SW 258 0 min 0,000 mm 0,0 UV-I 0 W/m 2,0 C -3,1 C 17,7 km/h (3 Bft) 5,56 %
18.02.2017 00:04 2,7 C 95 % 1025,7 hPa 0,0 l/m 13,0 km/h (3 Bft) W 263 0 min 0,000 mm 0,0 UV-I 0 W/m 2,0 C -2,5 C 19,3 km/h (3 Bft) 90,70 %
18.02.2017 00:06 2,7 C 95 % 1025,7 hPa 0,0 l/m 12,0 km/h (2 Bft) W-SW 246 0 min 0,000 mm 0,0 UV-I 0 W/m 2,0 C -1,9 C 19,3 km/h (3 Bft) 98,00 %
18.02.2017 00:08 2,7 C 95 % 1025,7 hPa 0,0 l/m 14,4 km/h (3 Bft) W-SW 253 0 min 0,000 mm 0,0 UV-I 0 W/m 2,0 C -3,4 C 20,9 km/h (4 Bft) 98,00 %
18.02.2017 00:10 2,7 C 95 % 1025,7 hPa 0,0 l/m 15,0 km/h (3 Bft) W-SW 247 0 min 0,000 mm 0,0 UV-I 0 W/m 2,0 C -3,7 C 20,9 km/h (4 Bft) 97,37 %
18.02.2017 00:12 2,8 C 95 % 1025,6 hPa 0,0 l/m 14,4 km/h (3 Bft) SW 236 0 min 0,000 mm 0,0 UV-I 0 W/m 2,1 C -3,3 C 20,9 km/h (4 Bft) 96,00 %
18.02.2017 00:14 2,8 C 95 % 1025,6 hPa 0,0 l/m 14,5 km/h (3 Bft) W-SW 255 0 min 0,000 mm 0,0 UV-I 0 W/m 2,1 C -3,3 C 22,5 km/h (4 Bft) 100,00 %
18.02.2017 00:16 2,8 C 95 % 1025,6 hPa 0,0 l/m 13,1 km/h (3 Bft) W-SW 244 0 min 0,000 mm 0,0 UV-I 0 W/m 2,1 C -2,5 C 19,3 km/h (3 Bft) 98,11 %
18.02.2017 00:18 2,8 C 95 % 1025,6 hPa 0,0 l/m 13,8 km/h (3 Bft) W 261 0 min 0,000 mm 0,0 UV-I 0 W/m 2,1 C -2,9 C 17,7 km/h (3 Bft) 98,11 %
18.02.2017 00:20 2,8 C 95 % 1025,5 hPa 0,0 l/m 12,9 km/h (3 Bft) W-SW 238 0 min 0,000 mm 0,0 UV-I 0 W/m 2,1 C -2,4 C 16,1 km/h (3 Bft) 97,37 %
18.02.2017 00:22 2,7 C 95 % 1025,6 hPa 0,0 l/m 12,2 km/h (2 Bft) W 261 0 min 0,000 mm 0,0 UV-I 0 W/m 2,0 C -2,0 C 19,3 km/h (3 Bft) 93,33 %
18.02.2017 00:24 2,7 C 95 % 1025,6 hPa 0,0 l/m 14,3 km/h (3 Bft) W-SW 248 0 min 0,000 mm 0,0 UV-I 0 W/m 2,0 C -3,3 C 20,9 km/h (4 Bft) 95,95 %
18.02.2017 00:26 2,7 C 95 % 1025,6 hPa 0,0 l/m 8,7 km/h (2 Bft) W 271 0 min 0,000 mm 0,0 UV-I 0 W/m 2,0 C 0,6 C 16,1 km/h (3 Bft) 94,64 %
18.02.2017 00:28 2,7 C 95 % 1025,6 hPa 0,0 l/m 11,6 km/h (2 Bft) W-SW 239 0 min 0,000 mm 0,0 UV-I 0 W/m 2,0 C -1,6 C 17,7 km/h (3 Bft) 97,37 %
18.02.2017 00:30 2,7 C 95 % 1025,6 hPa 0,0 l/m 11,3 km/h (2 Bft) W-SW 248 0 min 0,000 mm 0,0 UV-I 0 W/m 2,0 C -1,4 C 17,7 km/h (3 Bft) 95,45 %
18.02.2017 00:32 2,7 C 95 % 1025,6 hPa 0,0 l/m 13,2 km/h (3 Bft) W 271 0 min 0,000 mm 0,0 UV-I 0 W/m 2,0 C -2,7 C 16,1 km/h (3 Bft) 94,64 %
18.02.2017 00:34 2,7 C 95 % 1025,6 hPa 0,0 l/m 11,9 km/h (2 Bft) W 269 0 min 0,000 mm 0,0 UV-I 0 W/m 2,0 C -1,8 C 16,1 km/h (3 Bft) 97,87 %
18.02.2017 00:36 2,7 C 95 % 1025,6 hPa 0,0 l/m 12,1 km/h (2 Bft) W-SW 246 0 min 0,000 mm 0,0 UV-I 0 W/m 2,0 C -2,0 C 17,7 km/h (3 Bft) 96,00 %
18.02.2017 00:38 2,7 C 95 % 1025,6 hPa 0,0 l/m 13,7 km/h (3 Bft) W-SW 250 0 min 0,000 mm 0,0 UV-I 0 W/m 2,0 C -3,0 C 19,3 km/h (3 Bft) 87,80 %
18.02.2017 00:40 2,6 C 95 % 1025,6 hPa 0,0 l/m 12,0 km/h (2 Bft) W-SW 237 0 min 0,000 mm 0,0 UV-I 0 W/m 1,9 C -2,0 C 17,7 km/h (3 Bft) 92,45 %
18.02.2017 00:42 2,6 C 95 % 1025,5 hPa 0,0 l/m 11,7 km/h (2 Bft) W 265 0 min 0,000 mm 0,0 UV-I 0 W/m 1,9 C -1,8 C 16,1 km/h (3 Bft) 94,74 %
18.02.2017 00:44 2,6 C 95 % 1025,6 hPa 0,0 l/m 10,5 km/h (2 Bft) W-SW 258 0 min 0,000 mm 0,0 UV-I 0 W/m 1,9 C -1,0 C 16,1 km/h (3 Bft) 90,00 %
18.02.2017 00:46 2,6 C 95 % 1025,6 hPa 0,0 l/m 11,1 km/h (2 Bft) W 260 0 min 0,000 mm 0,0 UV-I 0 W/m 1,9 C -1,4 C 19,3 km/h (3 Bft) 97,56 %
18.02.2017 00:48 2,6 C 95 % 1025,6 hPa 0,0 l/m 10,6 km/h (2 Bft) W-SW 252 0 min 0,000 mm 0,0 UV-I 0 W/m 1,9 C -1,0 C 14,5 km/h (3 Bft) 96,00 %
18.02.2017 00:50 2,6 C 95 % 1025,6 hPa 0,0 l/m 12,0 km/h (2 Bft) W-SW 241 0 min 0,000 mm 0,0 UV-I 0 W/m 1,9 C -2,0 C 17,7 km/h (3 Bft) 95,74 %
18.02.2017 00:52 2,6 C 95 % 1025,5 hPa 0,0 l/m 8,9 km/h (2 Bft) W 279 0 min 0,000 mm 0,0 UV-I 0 W/m 1,9 C 0,3 C 12,9 km/h (3 Bft) 96,00 %
18.02.2017 00:54 2,6 C 95 % 1025,6 hPa 0,0 l/m 10,9 km/h (2 Bft) W-SW 251 0 min 0,000 mm 0,0 UV-I 0 W/m 1,9 C -1,2 C 14,5 km/h (3 Bft) 97,56 %
18.02.2017 00:56 2,6 C 95 % 1025,5 hPa 0,0 l/m 10,3 km/h (2 Bft) W-SW 250 0 min 0,000 mm 0,0 UV-I 0 W/m 1,9 C -0,8 C 16,1 km/h (3 Bft) 95,56 %
18.02.2017 00:58 2,6 C 95 % 1025,5 hPa 0,0 l/m 11,9 km/h (2 Bft) W 277 0 min 0,000 mm 0,0 UV-I 0 W/m 1,9 C -1,9 C 17,7 km/h (3 Bft) 96,36 %
18.02.2017 01:00 2,5 C 95 % 1025,6 hPa 0,0 l/m 11,0 km/h (2 Bft) W-SW 252 0 min 0,000 mm 0,0 UV-I 0 W/m 1,8 C -1,4 C 16,1 km/h (3 Bft) 97,62 %
18.02.2017 01:02 2,5 C 95 % 1025,6 hPa 0,2 l/m 10,6 km/h (2 Bft) W 262 0 min 0,000 mm 0,0 UV-I 0 W/m 1,8 C -1,1 C 16,1 km/h (3 Bft) 97,87 %
18.02.2017 01:04 2,4 C 95 % 1025,5 hPa 0,0 l/m 11,7 km/h (2 Bft) W-SW 253 0 min 0,000 mm 0,0 UV-I 0 W/m 1,7 C -2,0 C 14,5 km/h (3 Bft) 100,00 %
18.02.2017 01:06 2,5 C 95 % 1025,5 hPa 0,0 l/m 11,2 km/h (2 Bft) W-SW 244 0 min 0,000 mm 0,0 UV-I 0 W/m 1,8 C -1,6 C 19,3 km/h (3 Bft) 98,00 %
18.02.2017 01:08 2,4 C 95 % 1025,5 hPa 0,0 l/m 12,8 km/h (3 Bft) W-SW 254 0 min 0,000 mm 0,0 UV-I 0 W/m 1,7 C -2,8 C 19,3 km/h (3 Bft) 100,00 %
18.02.2017 01:10 2,4 C 95 % 1025,5 hPa 0,0 l/m 12,9 km/h (3 Bft) W-SW 257 0 min 0,000 mm 0,0 UV-I 0 W/m 1,7 C -2,8 C 22,5 km/h (4 Bft) 100,00 %
18.02.2017 01:12 2,4 C 95 % 1025,5 hPa 0,0 l/m 11,3 km/h (2 Bft) W 281 0 min 0,000 mm 0,0 UV-I 0 W/m 1,7 C -1,8 C 17,7 km/h (3 Bft) 100,00 %
18.02.2017 01:14 2,4 C 95 % 1025,5 hPa 0,0 l/m 13,1 km/h (3 Bft) W-SW 254 0 min 0,000 mm 0,0 UV-I 0 W/m 1,7 C -3,0 C 17,7 km/h (3 Bft) 95,12 %
18.02.2017 01:16 2,4 C 95 % 1025,4 hPa 0,0 l/m 11,1 km/h (2 Bft) W 259 0 min 0,000 mm 0,0 UV-I 0 W/m 1,7 C -1,6 C 16,1 km/h (3 Bft) 100,00 %
18.02.2017 01:18 2,4 C 95 % 1025,4 hPa 0,0 l/m 9,3 km/h (2 Bft) W 263 0 min 0,000 mm 0,0 UV-I 0 W/m 1,7 C -0,2 C 14,5 km/h (3 Bft) 100,00 %
18.02.2017 01:20 2,4 C 95 % 1025,4 hPa 0,0 l/m 10,6 km/h (2 Bft) W 264 0 min 0,000 mm 0,0 UV-I 0 W/m 1,7 C -1,3 C 17,7 km/h (3 Bft) 96,00 %
18.02.2017 01:23 2,4 C 95 % 1025,4 hPa 0,0 l/m 10,7 km/h (2 Bft) W-SW 247 0 min 0,000 mm 0,0 UV-I 0 W/m 1,7 C -1,3 C 16,1 km/h (3 Bft) 98,68 %
18.02.2017 01:24 2,4 C 95 % 1025,4 hPa 0,0 l/m 10,5 km/h (2 Bft) W-SW 247 0 min 0,000 mm 0,0 UV-I 0 W/m 1,7 C -1,2 C 12,9 km/h (3 Bft) 100,00 %
18.02.2017 01:26 2,4 C 95 % 1025,4 hPa 0,0 l/m 9,3 km/h (2 Bft) W 260 0 min 0,000 mm 0,0 UV-I 0 W/m 1,7 C -0,2 C 16,1 km/h (3 Bft) 100,00 %
18.02.2017 01:28 2,4 C 95 % 1025,5 hPa 0,0 l/m 10,7 km/h (2 Bft) W-SW 255 0 min 0,000 mm 0,0 UV-I 0 W/m 1,7 C -1,3 C 17,7 km/h (3 Bft) 97,56 %
18.02.2017 01:30 2,4 C 95 % 1025,5 hPa 0,0 l/m 8,7 km/h (2 Bft) W-SW 240 0 min 0,000 mm 0,0 UV-I 0 W/m 1,7 C 0,3 C 12,9 km/h (3 Bft) 100,00 %
18.02.2017 01:32 2,3 C 95 % 1025,5 hPa 0,0 l/m 11,1 km/h (2 Bft) W-SW 244 0 min 0,000 mm 0,0 UV-I 0 W/m 1,6 C -1,7 C 16,1 km/h (3 Bft) 96,00 %
18.02.2017 01:34 2,3 C 95 % 1025,4 hPa 0,0 l/m 10,9 km/h (2 Bft) SW 229 0 min 0,000 mm 0,0 UV-I 0 W/m 1,6 C -1,6 C 17,7 km/h (3 Bft) 98,00 %
18.02.2017 01:36 2,3 C 95 % 1025,5 hPa 0,0 l/m 10,5 km/h (2 Bft) SW 220 0 min 0,000 mm 0,0 UV-I 0 W/m 1,6 C -1,3 C 17,7 km/h (3 Bft) 100,00 %
18.02.2017 01:38 2,3 C 95 % 1025,4 hPa 0,0 l/m 8,2 km/h (2 Bft) W-SW 246 0 min 0,000 mm 0,0 UV-I 0 W/m 1,6 C 0,6 C 14,5 km/h (3 Bft) 97,44 %
18.02.2017 01:40 2,3 C 95 % 1025,4 hPa 0,0 l/m 9,1 km/h (2 Bft) W-SW 241 0 min 0,000 mm 0,0 UV-I 0 W/m 1,6 C -0,2 C 12,9 km/h (3 Bft) 100,00 %
18.02.2017 01:42 2,3 C 95 % 1025,4 hPa 0,0 l/m 10,1 km/h (2 Bft) SW 233 0 min 0,000 mm 0,0 UV-I 0 W/m 1,6 C -1,0 C 17,7 km/h (3 Bft) 98,00 %
18.02.2017 01:44 2,2 C 96 % 1025,4 hPa 0,0 l/m 9,5 km/h (2 Bft) SW 234 0 min 0,000 mm 0,0 UV-I 0 W/m 1,6 C -0,6 C 16,1 km/h (3 Bft) 97,62 %
18.02.2017 01:46 2,2 C 96 % 1025,4 hPa 0,0 l/m 7,2 km/h (2 Bft) W-SW 252 0 min 0,000 mm 0,0 UV-I 0 W/m 1,6 C 1,4 C 12,9 km/h (3 Bft) 100,00 %
18.02.2017 01:48 2,2 C 96 % 1025,5 hPa 0,0 l/m 9,8 km/h (2 Bft) W-SW 237 0 min 0,000 mm 0,0 UV-I 0 W/m 1,6 C -0,9 C 16,1 km/h (3 Bft) 100,00 %
18.02.2017 01:50 2,2 C 96 % 1025,5 hPa 0,0 l/m 9,2 km/h (2 Bft) W-SW 241 0 min 0,000 mm 0,0 UV-I 0 W/m 1,6 C -0,4 C 14,5 km/h (3 Bft) 100,00 %
18.02.2017 01:52 2,2 C 96 % 1025,4 hPa 0,0 l/m 11,7 km/h (2 Bft) W-SW 250 0 min 0,000 mm 0,0 UV-I 0 W/m 1,6 C -2,3 C 17,7 km/h (3 Bft) 97,56 %
18.02.2017 01:54 2,2 C 96 % 1025,4 hPa 0,0 l/m 12,2 km/h (2 Bft) SW 232 0 min 0,000 mm 0,0 UV-I 0 W/m 1,6 C -2,6 C 19,3 km/h (3 Bft) 100,00 %
18.02.2017 01:56 2,2 C 96 % 1025,4 hPa 0,0 l/m 10,4 km/h (2 Bft) W-SW 244 0 min 0,000 mm 0,0 UV-I 0 W/m 1,6 C -1,3 C 16,1 km/h (3 Bft) 100,00 %
18.02.2017 01:58 2,2 C 96 % 1025,5 hPa 0,0 l/m 11,4 km/h (2 Bft) SW 230 0 min 0,000 mm 0,0 UV-I 0 W/m 1,6 C -2,1 C 16,1 km/h (3 Bft) 95,12 %
18.02.2017 02:00 2,2 C 96 % 1025,4 hPa 0,0 l/m 10,1 km/h (2 Bft) SW 217 0 min 0,000 mm 0,0 UV-I 0 W/m 1,6 C -1,1 C 16,1 km/h (3 Bft) 98,21 %
18.02.2017 02:02 2,2 C 96 % 1025,5 hPa 0,0 l/m 10,8 km/h (2 Bft) SW 214 0 min 0,000 mm 0,0 UV-I 0 W/m 1,6 C -1,6 C 14,5 km/h (3 Bft) 100,00 %
18.02.2017 02:04 2,2 C 96 % 1025,5 hPa 0,0 l/m 11,5 km/h (2 Bft) SW 216 0 min 0,000 mm 0,0 UV-I 0 W/m 1,6 C -2,1 C 16,1 km/h (3 Bft) 97,37 %
18.02.2017 02:06 2,2 C 96 % 1025,5 hPa 0,0 l/m 11,1 km/h (2 Bft) W 262 0 min 0,000 mm 0,0 UV-I 0 W/m 1,6 C -1,8 C 14,5 km/h (3 Bft) 98,31 %
18.02.2017 02:08 2,2 C 96 % 1025,5 hPa 0,0 l/m 8,9 km/h (2 Bft) W 259 0 min 0,000 mm 0,0 UV-I 0 W/m 1,6 C -0,1 C 12,9 km/h (3 Bft) 100,00 %
18.02.2017 02:10 2,2 C 96 % 1025,4 hPa 0,0 l/m 11,7 km/h (2 Bft) SW 221 0 min 0,000 mm 0,0 UV-I 0 W/m 1,6 C -2,3 C 17,7 km/h (3 Bft) 98,11 %
18.02.2017 02:12 2,2 C 96 % 1025,4 hPa 0,0 l/m 13,1 km/h (3 Bft) SW 223 0 min 0,000 mm 0,0 UV-I 0 W/m 1,6 C -3,2 C 17,7 km/h (3 Bft) 100,00 %
18.02.2017 02:14 2,2 C 96 % 1025,5 hPa 0,0 l/m 14,4 km/h (3 Bft) W-SW 243 0 min 0,000 mm 0,0 UV-I 0 W/m 1,6 C -4,0 C 20,9 km/h (4 Bft) 94,64 %
18.02.2017 02:16 2,2 C 96 % 1025,4 hPa 0,0 l/m 11,0 km/h (2 Bft) W-SW 248 0 min 0,000 mm 0,0 UV-I 0 W/m 1,6 C -1,8 C 16,1 km/h (3 Bft) 100,00 %
18.02.2017 02:18 2,2 C 96 % 1025,5 hPa 0,0 l/m 10,7 km/h (2 Bft) SW 224 0 min 0,000 mm 0,0 UV-I 0 W/m 1,6 C -1,6 C 16,1 km/h (3 Bft) 95,83 %
18.02.2017 02:20 2,3 C 96 % 1025,5 hPa 0,0 l/m 10,8 km/h (2 Bft) SW 235 0 min 0,000 mm 0,0 UV-I 0 W/m 1,7 C -1,5 C 14,5 km/h (3 Bft) 96,00 %
18.02.2017 02:22 2,3 C 96 % 1025,5 hPa 0,0 l/m 13,1 km/h (3 Bft) W-SW 258 0 min 0,000 mm 0,0 UV-I 0 W/m 1,7 C -3,1 C 19,3 km/h (3 Bft) 100,00 %
18.02.2017 02:24 2,3 C 95 % 1025,4 hPa 0,0 l/m 12,6 km/h (3 Bft) W-SW 240 0 min 0,000 mm 0,0 UV-I 0 W/m 1,6 C -2,7 C 17,7 km/h (3 Bft) 97,87 %
18.02.2017 02:26 2,3 C 95 % 1025,4 hPa 0,0 l/m 12,2 km/h (2 Bft) W-SW 254 0 min 0,000 mm 0,0 UV-I 0 W/m 1,6 C -2,5 C 19,3 km/h (3 Bft) 100,00 %
18.02.2017 02:28 2,3 C 95 % 1025,4 hPa 0,0 l/m 13,6 km/h (3 Bft) SW 229 0 min 0,000 mm 0,0 UV-I 0 W/m 1,6 C -3,4 C 19,3 km/h (3 Bft) 94,34 %
18.02.2017 02:30 2,3 C 95 % 1025,4 hPa 0,0 l/m 12,5 km/h (3 Bft) W-SW 243 0 min 0,000 mm 0,0 UV-I 0 W/m 1,6 C -2,7 C 16,1 km/h (3 Bft) 97,56 %
18.02.2017 02:32 2,3 C 95 % 1025,4 hPa 0,0 l/m 11,3 km/h (2 Bft) SW 221 0 min 0,000 mm 0,0 UV-I 0 W/m 1,6 C -1,9 C 16,1 km/h (3 Bft) 92,00 %
18.02.2017 02:34 2,3 C 95 % 1025,3 hPa 0,0 l/m 11,1 km/h (2 Bft) W-SW 243 0 min 0,000 mm 0,0 UV-I 0 W/m 1,6 C -1,7 C 17,7 km/h (3 Bft) 92,68 %
18.02.2017 02:36 2,3 C 95 % 1025,4 hPa 0,0 l/m 10,9 km/h (2 Bft) SW 220 0 min 0,000 mm 0,0 UV-I 0 W/m 1,6 C -1,6 C 14,5 km/h (3 Bft) 92,11 %
18.02.2017 02:38 2,3 C 95 % 1025,4 hPa 0,0 l/m 13,0 km/h (3 Bft) SW 231 0 min 0,000 mm 0,0 UV-I 0 W/m 1,6 C -3,0 C 17,7 km/h (3 Bft) 94,34 %
18.02.2017 02:40 2,3 C 95 % 1025,4 hPa 0,0 l/m 11,5 km/h (2 Bft) SW 235 0 min 0,000 mm 0,0 UV-I 0 W/m 1,6 C -2,0 C 16,1 km/h (3 Bft) 96,61 %
18.02.2017 02:42 2,3 C 95 % 1025,3 hPa 0,0 l/m 10,7 km/h (2 Bft) W-SW 238 0 min 0,000 mm 0,0 UV-I 0 W/m 1,6 C -1,4 C 17,7 km/h (3 Bft) 95,24 %
18.02.2017 02:44 2,3 C 95 % 1025,4 hPa 0,0 l/m 11,1 km/h (2 Bft) W 267 0 min 0,000 mm 0,0 UV-I 0 W/m 1,6 C -1,7 C 16,1 km/h (3 Bft) 92,00 %
18.02.2017 02:46 2,3 C 95 % 1025,4 hPa 0,0 l/m 11,2 km/h (2 Bft) W-SW 252 0 min 0,000 mm 0,0 UV-I 0 W/m 1,6 C -1,8 C 14,5 km/h (3 Bft) 98,00 %
18.02.2017 02:48 2,3 C 95 % 1025,4 hPa 0,0 l/m 10,9 km/h (2 Bft) W-SW 244 0 min 0,000 mm 0,0 UV-I 0 W/m 1,6 C -1,6 C 17,7 km/h (3 Bft) 94,74 %
18.02.2017 02:50 2,3 C 95 % 1025,4 hPa 0,0 l/m 9,7 km/h (2 Bft) W-SW 244 0 min 0,000 mm 0,0 UV-I 0 W/m 1,6 C -0,7 C 12,9 km/h (3 Bft) 96,23 %
18.02.2017 02:52 2,3 C 95 % 1025,4 hPa 0,0 l/m 9,5 km/h (2 Bft) SW 227 0 min 0,000 mm 0,0 UV-I 0 W/m 1,6 C -0,5 C 12,9 km/h (3 Bft) 95,45 %
18.02.2017 02:54 2,3 C 96 % 1025,4 hPa 0,0 l/m 12,5 km/h (3 Bft) W-SW 248 0 min 0,000 mm 0,0 UV-I 0 W/m 1,7 C -2,7 C 16,1 km/h (3 Bft) 92,86 %
18.02.2017 02:56 2,2 C 96 % 1025,3 hPa 0,0 l/m 11,8 km/h (2 Bft) W 265 0 min 0,000 mm 0,0 UV-I 0 W/m 1,6 C -2,3 C 16,1 km/h (3 Bft) 94,00 %
18.02.2017 02:58 2,3 C 96 % 1025,4 hPa 0,0 l/m 11,3 km/h (2 Bft) SW 214 0 min 0,000 mm 0,0 UV-I 0 W/m 1,7 C -1,9 C 16,1 km/h (3 Bft) 94,34 %
18.02.2017 03:00 2,2 C 96 % 1025,4 hPa 0,0 l/m 11,4 km/h (2 Bft) W-SW 240 0 min 0,000 mm 0,0 UV-I 0 W/m 1,6 C -2,1 C 16,1 km/h (3 Bft) 91,30 %
18.02.2017 03:02 2,2 C 96 % 1025,4 hPa 0,0 l/m 11,5 km/h (2 Bft) SW 224 0 min 0,000 mm 0,0 UV-I 0 W/m 1,6 C -2,1 C 16,1 km/h (3 Bft) 95,24 %
18.02.2017 03:04 2,2 C 96 % 1025,4 hPa 0,0 l/m 12,8 km/h (3 Bft) S-SW 206 0 min 0,000 mm 0,0 UV-I 0 W/m 1,6 C -3,0 C 17,7 km/h (3 Bft) 93,18 %
18.02.2017 03:06 2,3 C 96 % 1025,3 hPa 0,0 l/m 14,1 km/h (3 Bft) W-SW 239 0 min 0,000 mm 0,0 UV-I 0 W/m 1,7 C -3,7 C 19,3 km/h (3 Bft) 93,22 %
18.02.2017 03:08 2,3 C 96 % 1025,2 hPa 0,0 l/m 15,8 km/h (3 Bft) SW 229 0 min 0,000 mm 0,0 UV-I 0 W/m 1,7 C -4,6 C 20,9 km/h (4 Bft) 95,45 %
18.02.2017 03:10 2,3 C 96 % 1025,2 hPa 0,0 l/m 13,4 km/h (3 Bft) SW 227 0 min 0,000 mm 0,0 UV-I 0 W/m 1,7 C -3,3 C 17,7 km/h (3 Bft) 97,56 %
18.02.2017 03:12 2,3 C 96 % 1025,2 hPa 0,0 l/m 15,4 km/h (3 Bft) SW 229 0 min 0,000 mm 0,0 UV-I 0 W/m 1,7 C -4,4 C 20,9 km/h (4 Bft) 98,11 %
18.02.2017 03:14 2,3 C 96 % 1025,3 hPa 0,0 l/m 12,5 km/h (3 Bft) W 265 0 min 0,000 mm 0,0 UV-I 0 W/m 1,7 C -2,7 C 16,1 km/h (3 Bft) 94,00 %
18.02.2017 03:16 2,3 C 96 % 1025,2 hPa 0,0 l/m 13,1 km/h (3 Bft) SW 236 0 min 0,000 mm 0,0 UV-I 0 W/m 1,7 C -3,1 C 17,7 km/h (3 Bft) 97,56 %
18.02.2017 03:18 2,3 C 96 % 1025,2 hPa 0,0 l/m 12,6 km/h (3 Bft) SW 229 0 min 0,000 mm 0,0 UV-I 0 W/m 1,7 C -2,7 C 17,7 km/h (3 Bft) 95,45 %
18.02.2017 03:20 2,3 C 96 % 1025,2 hPa 0,0 l/m 15,1 km/h (3 Bft) SW 229 0 min 0,000 mm 0,0 UV-I 0 W/m 1,7 C -4,3 C 22,5 km/h (4 Bft) 94,34 %
18.02.2017 03:22 2,3 C 96 % 1025,1 hPa 0,0 l/m 17,5 km/h (3 Bft) SW 226 0 min 0,000 mm 0,0 UV-I 0 W/m 1,7 C -5,5 C 27,4 km/h (4 Bft) 97,37 %
18.02.2017 03:24 2,3 C 96 % 1025,0 hPa 0,0 l/m 14,0 km/h (3 Bft) W-SW 246 0 min 0,000 mm 0,0 UV-I 0 W/m 1,7 C -3,6 C 19,3 km/h (3 Bft) 96,23 %
18.02.2017 03:26 2,3 C 96 % 1025,0 hPa 0,0 l/m 15,0 km/h (3 Bft) W-SW 256 0 min 0,000 mm 0,0 UV-I 0 W/m 1,7 C -4,2 C 22,5 km/h (4 Bft) 92,68 %
18.02.2017 03:28 2,3 C 95 % 1025,0 hPa 0,0 l/m 15,9 km/h (3 Bft) W-SW 248 0 min 0,000 mm 0,0 UV-I 0 W/m 1,6 C -4,7 C 24,1 km/h (4 Bft) 90,24 %
18.02.2017 03:30 2,3 C 95 % 1025,0 hPa 0,0 l/m 15,8 km/h (3 Bft) SW 223 0 min 0,000 mm 0,0 UV-I 0 W/m 1,6 C -4,6 C 20,9 km/h (4 Bft) 94,34 %
18.02.2017 03:32 2,3 C 95 % 1025,0 hPa 0,0 l/m 14,3 km/h (3 Bft) W 261 0 min 0,000 mm 0,0 UV-I 0 W/m 1,6 C -3,8 C 19,3 km/h (3 Bft) 98,00 %
18.02.2017 03:34 2,3 C 95 % 1025,0 hPa 0,0 l/m 16,8 km/h (3 Bft) SW 221 0 min 0,000 mm 0,0 UV-I 0 W/m 1,6 C -5,2 C 22,5 km/h (4 Bft) 92,00 %
18.02.2017 03:36 2,2 C 95 % 1025,1 hPa 0,0 l/m 12,6 km/h (3 Bft) SW 234 0 min 0,000 mm 0,0 UV-I 0 W/m 1,5 C -2,9 C 19,3 km/h (3 Bft) 100,00 %
18.02.2017 03:38 2,2 C 95 % 1025,1 hPa 0,0 l/m 11,4 km/h (2 Bft) W-SW 247 0 min 0,000 mm 0,0 UV-I 0 W/m 1,5 C -2,1 C 14,5 km/h (3 Bft) 100,00 %
18.02.2017 03:40 2,2 C 96 % 1025,1 hPa 0,0 l/m 13,4 km/h (3 Bft) SW 220 0 min 0,000 mm 0,0 UV-I 0 W/m 1,6 C -3,4 C 19,3 km/h (3 Bft) 100,00 %
18.02.2017 03:42 2,2 C 96 % 1025,1 hPa 0,0 l/m 12,8 km/h (3 Bft) W-SW 240 0 min 0,000 mm 0,0 UV-I 0 W/m 1,6 C -3,0 C 19,3 km/h (3 Bft) 100,00 %
18.02.2017 03:44 2,2 C 96 % 1025,2 hPa 0,0 l/m 10,2 km/h (2 Bft) SW 236 0 min 0,000 mm 0,0 UV-I 0 W/m 1,6 C -1,2 C 16,1 km/h (3 Bft) 100,00 %
18.02.2017 03:46 2,2 C 96 % 1025,1 hPa 0,0 l/m 13,9 km/h (3 Bft) SW 223 0 min 0,000 mm 0,0 UV-I 0 W/m 1,6 C -3,7 C 24,1 km/h (4 Bft) 97,87 %
18.02.2017 03:48 2,2 C 96 % 1025,1 hPa 0,0 l/m 10,2 km/h (2 Bft) SW 221 0 min 0,000 mm 0,0 UV-I 0 W/m 1,6 C -1,2 C 16,1 km/h (3 Bft) 95,74 %
18.02.2017 03:50 2,2 C 96 % 1025,1 hPa 0,0 l/m 12,8 km/h (3 Bft) W-SW 248 0 min 0,000 mm 0,0 UV-I 0 W/m 1,6 C -3,0 C 19,3 km/h (3 Bft) 98,00 %
18.02.2017 03:52 2,2 C 96 % 1025,1 hPa 0,0 l/m 12,0 km/h (2 Bft) W 259 0 min 0,000 mm 0,0 UV-I 0 W/m 1,6 C -2,5 C 17,7 km/h (3 Bft) 100,00 %
18.02.2017 03:54 2,2 C 96 % 1025,1 hPa 0,0 l/m 11,3 km/h (2 Bft) SW 223 0 min 0,000 mm 0,0 UV-I 0 W/m 1,6 C -2,0 C 17,7 km/h (3 Bft) 96,23 %
18.02.2017 03:56 2,2 C 96 % 1025,1 hPa 0,0 l/m 10,7 km/h (2 Bft) W-SW 237 0 min 0,000 mm 0,0 UV-I 0 W/m 1,6 C -1,6 C 17,7 km/h (3 Bft) 97,56 %
18.02.2017 03:58 2,2 C 96 % 1025,1 hPa 0,0 l/m 13,7 km/h (3 Bft) W-SW 249 0 min 0,000 mm 0,0 UV-I 0 W/m 1,6 C -3,6 C 16,1 km/h (3 Bft) 100,00 %
18.02.2017 04:00 2,3 C 96 % 1025,1 hPa 0,0 l/m 10,6 km/h (2 Bft) W-SW 254 0 min 0,000 mm 0,0 UV-I 0 W/m 1,7 C -1,4 C 16,1 km/h (3 Bft) 97,87 %
18.02.2017 04:02 2,3 C 96 % 1025,1 hPa 0,0 l/m 9,8 km/h (2 Bft) S-SW 210 0 min 0,000 mm 0,0 UV-I 0 W/m 1,7 C -0,8 C 14,5 km/h (3 Bft) 96,77 %
18.02.2017 04:04 2,3 C 96 % 1025,2 hPa 0,0 l/m 11,5 km/h (2 Bft) W-SW 238 0 min 0,000 mm 0,0 UV-I 0 W/m 1,7 C -2,0 C 16,1 km/h (3 Bft) 98,11 %
18.02.2017 04:06 2,3 C 96 % 1025,2 hPa 0,0 l/m 10,7 km/h (2 Bft) W 264 0 min 0,000 mm 0,0 UV-I 0 W/m 1,7 C -1,4 C 16,1 km/h (3 Bft) 100,00 %
18.02.2017 04:08 2,3 C 96 % 1025,1 hPa 0,0 l/m 10,3 km/h (2 Bft) W-SW 253 0 min 0,000 mm 0,0 UV-I 0 W/m 1,7 C -1,1 C 14,5 km/h (3 Bft) 95,45 %
18.02.2017 04:10 2,3 C 95 % 1025,1 hPa 0,0 l/m 10,0 km/h (2 Bft) W-SW 246 0 min 0,000 mm 0,0 UV-I 0 W/m 1,6 C -0,9 C 14,5 km/h (3 Bft) 100,00 %
18.02.2017 04:12 2,3 C 95 % 1025,1 hPa 0,0 l/m 8,6 km/h (2 Bft) SW 222 0 min 0,000 mm 0,0 UV-I 0 W/m 1,6 C 0,2 C 14,5 km/h (3 Bft) 98,51 %
18.02.2017 04:14 2,3 C 95 % 1025,1 hPa 0,0 l/m 10,4 km/h (2 Bft) W-SW 254 0 min 0,000 mm 0,0 UV-I 0 W/m 1,6 C -1,2 C 16,1 km/h (3 Bft) 96,00 %
18.02.2017 04:16 2,3 C 95 % 1025,1 hPa 0,0 l/m 9,9 km/h (2 Bft) SW 234 0 min 0,000 mm 0,0 UV-I 0 W/m 1,6 C -0,8 C 14,5 km/h (3 Bft) 97,44 %
18.02.2017 04:18 2,3 C 95 % 1025,1 hPa 0,0 l/m 7,5 km/h (2 Bft) SW 230 0 min 0,000 mm 0,0 UV-I 0 W/m 1,6 C 1,2 C 12,9 km/h (3 Bft) 98,00 %
18.02.2017 04:20 2,3 C 96 % 1025,1 hPa 0,0 l/m 9,8 km/h (2 Bft) W 263 0 min 0,000 mm 0,0 UV-I 0 W/m 1,7 C -0,8 C 16,1 km/h (3 Bft) 100,00 %
18.02.2017 04:22 2,3 C 95 % 1025,1 hPa 0,0 l/m 8,2 km/h (2 Bft) SW 217 0 min 0,000 mm 0,0 UV-I 0 W/m 1,6 C 0,6 C 16,1 km/h (3 Bft) 95,24 %
18.02.2017 04:24 2,3 C 95 % 1025,1 hPa 0,0 l/m 9,6 km/h (2 Bft) SW 235 0 min 0,000 mm 0,0 UV-I 0 W/m 1,6 C -0,6 C 16,1 km/h (3 Bft) 100,00 %
18.02.2017 04:26 2,3 C 95 % 1025,1 hPa 0,0 l/m 10,3 km/h (2 Bft) SW 216 0 min 0,000 mm 0,0 UV-I 0 W/m 1,6 C -1,1 C 16,1 km/h (3 Bft) 98,11 %
18.02.2017 04:28 2,3 C 95 % 1025,1 hPa 0,0 l/m 10,4 km/h (2 Bft) W-SW 241 0 min 0,000 mm 0,0 UV-I 0 W/m 1,6 C -1,2 C 14,5 km/h (3 Bft) 98,11 %
18.02.2017 04:30 2,3 C 95 % 1025,1 hPa 0,0 l/m 8,4 km/h (2 Bft) SW 221 0 min 0,000 mm 0,0 UV-I 0 W/m 1,6 C 0,4 C 12,9 km/h (3 Bft) 97,87 %
18.02.2017 04:32 2,3 C 95 % 1025,1 hPa 0,0 l/m 8,6 km/h (2 Bft) W-SW 254 0 min 0,000 mm 0,0 UV-I 0 W/m 1,6 C 0,2 C 16,1 km/h (3 Bft) 97,37 %
18.02.2017 04:34 2,3 C 95 % 1025,1 hPa 0,0 l/m 9,5 km/h (2 Bft) SW 221 0 min 0,000 mm 0,0 UV-I 0 W/m 1,6 C -0,5 C 14,5 km/h (3 Bft) 100,00 %
18.02.2017 04:36 2,3 C 95 % 1025,2 hPa 0,0 l/m 9,9 km/h (2 Bft) W-SW 258 0 min 0,000 mm 0,0 UV-I 0 W/m 1,6 C -0,8 C 14,5 km/h (3 Bft) 100,00 %
18.02.2017 04:38 2,3 C 95 % 1025,2 hPa 0,0 l/m 11,0 km/h (2 Bft) W-SW 248 0 min 0,000 mm 0,0 UV-I 0 W/m 1,6 C -1,7 C 16,1 km/h (3 Bft) 100,00 %
18.02.2017 04:40 2,3 C 95 % 1025,2 hPa 0,0 l/m 9,0 km/h (2 Bft) SW 236 0 min 0,000 mm 0,0 UV-I 0 W/m 1,6 C -0,1 C 14,5 km/h (3 Bft) 100,00 %
18.02.2017 04:42 2,3 C 95 % 1025,2 hPa 0,0 l/m 8,7 km/h (2 Bft) SW 233 0 min 0,000 mm 0,0 UV-I 0 W/m 1,6 C 0,1 C 14,5 km/h (3 Bft) 100,00 %
18.02.2017 04:44 2,3 C 95 % 1025,2 hPa 0,0 l/m 6,0 km/h (2 Bft) W 262 0 min 0,000 mm 0,0 UV-I 0 W/m 1,6 C 2,3 C 9,7 km/h (2 Bft) 92,45 %
18.02.2017 04:46 2,3 C 95 % 1025,2 hPa 0,0 l/m 6,9 km/h (2 Bft) W-SW 254 0 min 0,000 mm 0,0 UV-I 0 W/m 1,6 C 1,8 C 11,3 km/h (2 Bft) 100,00 %
18.02.2017 04:48 2,3 C 95 % 1025,3 hPa 0,0 l/m 6,1 km/h (2 Bft) SW 236 0 min 0,000 mm 0,0 UV-I 0 W/m 1,6 C 2,3 C 11,3 km/h (2 Bft) 94,00 %
18.02.2017 04:50 2,3 C 95 % 1025,2 hPa 0,0 l/m 7,2 km/h (2 Bft) W 261 0 min 0,000 mm 0,0 UV-I 0 W/m 1,6 C 1,5 C 14,5 km/h (3 Bft) 97,73 %
18.02.2017 04:52 2,3 C 95 % 1025,3 hPa 0,0 l/m 7,2 km/h (2 Bft) SW 228 0 min 0,000 mm 0,0 UV-I 0 W/m 1,6 C 1,5 C 12,9 km/h (3 Bft) 96,23 %
18.02.2017 04:54 2,3 C 95 % 1025,3 hPa 0,0 l/m 7,8 km/h (2 Bft) W-SW 246 0 min 0,000 mm 0,0 UV-I 0 W/m 1,6 C 1,0 C 12,9 km/h (3 Bft) 95,12 %
18.02.2017 04:56 2,3 C 95 % 1025,2 hPa 0,0 l/m 8,3 km/h (2 Bft) SW 219 0 min 0,000 mm 0,0 UV-I 0 W/m 1,6 C 0,5 C 11,3 km/h (2 Bft) 98,21 %
18.02.2017 04:58 2,3 C 95 % 1025,2 hPa 0,0 l/m 6,0 km/h (2 Bft) W 266 0 min 0,000 mm 0,0 UV-I 0 W/m 1,6 C 2,3 C 9,7 km/h (2 Bft) 94,87 %
18.02.2017 05:00 2,3 C 95 % 1025,3 hPa 0,0 l/m 9,9 km/h (2 Bft) W-SW 245 0 min 0,000 mm 0,0 UV-I 0 W/m 1,6 C -0,8 C 14,5 km/h (3 Bft) 97,87 %
18.02.2017 05:02 2,3 C 95 % 1025,3 hPa 0,0 l/m 8,7 km/h (2 Bft) W-SW 254 0 min 0,000 mm 0,0 UV-I 0 W/m 1,6 C 0,1 C 16,1 km/h (3 Bft) 94,00 %
18.02.2017 05:04 2,3 C 95 % 1025,3 hPa 0,0 l/m 9,7 km/h (2 Bft) SW 229 0 min 0,000 mm 0,0 UV-I 0 W/m 1,6 C -0,7 C 14,5 km/h (3 Bft) 95,12 %
18.02.2017 05:06 2,3 C 95 % 1025,3 hPa 0,0 l/m 13,3 km/h (3 Bft) W-SW 253 0 min 0,000 mm 0,0 UV-I 0 W/m 1,6 C -3,2 C 17,7 km/h (3 Bft) 98,21 %
18.02.2017 05:08 2,3 C 95 % 1025,3 hPa 0,0 l/m 10,9 km/h (2 Bft) W-SW 246 0 min 0,000 mm 0,0 UV-I 0 W/m 1,6 C -1,6 C 17,7 km/h (3 Bft) 91,43 %
18.02.2017 05:10 2,3 C 95 % 1025,3 hPa 0,0 l/m 13,5 km/h (3 Bft) SW 234 0 min 0,000 mm 0,0 UV-I 0 W/m 1,6 C -3,3 C 19,3 km/h (3 Bft) 98,21 %
18.02.2017 05:12 2,3 C 95 % 1025,3 hPa 0,0 l/m 11,2 km/h (2 Bft) W-SW 240 0 min 0,000 mm 0,0 UV-I 0 W/m 1,6 C -1,8 C 14,5 km/h (3 Bft) 96,00 %
18.02.2017 05:14 2,3 C 95 % 1025,4 hPa 0,0 l/m 12,2 km/h (2 Bft) W-SW 248 0 min 0,000 mm 0,0 UV-I 0 W/m 1,6 C -2,5 C 16,1 km/h (3 Bft) 97,37 %
18.02.2017 05:16 2,3 C 95 % 1025,4 hPa 0,0 l/m 10,2 km/h (2 Bft) S-SW 213 0 min 0,000 mm 0,0 UV-I 0 W/m 1,6 C -1,1 C 19,3 km/h (3 Bft) 94,64 %
18.02.2017 05:18 2,3 C 95 % 1025,3 hPa 0,0 l/m 12,8 km/h (3 Bft) W-SW 245 0 min 0,000 mm 0,0 UV-I 0 W/m 1,6 C -2,9 C 17,7 km/h (3 Bft) 97,73 %
18.02.2017 05:20 2,3 C 95 % 1025,3 hPa 0,0 l/m 12,7 km/h (3 Bft) W-SW 250 0 min 0,000 mm 0,0 UV-I 0 W/m 1,6 C -2,8 C 19,3 km/h (3 Bft) 100,00 %
18.02.2017 05:22 2,3 C 95 % 1025,3 hPa 0,0 l/m 14,2 km/h (3 Bft) SW 221 0 min 0,000 mm 0,0 UV-I 0 W/m 1,6 C -3,7 C 20,9 km/h (4 Bft) 94,34 %
18.02.2017 05:24 2,3 C 95 % 1025,3 hPa 0,0 l/m 13,3 km/h (3 Bft) SW 235 0 min 0,000 mm 0,0 UV-I 0 W/m 1,6 C -3,2 C 19,3 km/h (3 Bft) 97,14 %
18.02.2017 05:26 2,2 C 95 % 1025,3 hPa 0,0 l/m 14,2 km/h (3 Bft) SW 234 0 min 0,000 mm 0,0 UV-I 0 W/m 1,5 C -3,9 C 17,7 km/h (3 Bft) 98,21 %
18.02.2017 05:28 2,2 C 95 % 1025,3 hPa 0,0 l/m 12,5 km/h (3 Bft) W-SW 246 0 min 0,000 mm 0,0 UV-I 0 W/m 1,5 C -2,8 C 16,1 km/h (3 Bft) 100,00 %
18.02.2017 05:30 2,2 C 95 % 1025,3 hPa 0,0 l/m 12,6 km/h (3 Bft) SW 218 0 min 0,000 mm 0,0 UV-I 0 W/m 1,5 C -2,9 C 16,1 km/h (3 Bft) 95,24 %
18.02.2017 05:32 2,2 C 95 % 1025,3 hPa 0,0 l/m 12,5 km/h (3 Bft) W-SW 240 0 min 0,000 mm 0,0 UV-I 0 W/m 1,5 C -2,8 C 19,3 km/h (3 Bft) 98,21 %
18.02.2017 05:34 2,2 C 95 % 1025,3 hPa 0,0 l/m 10,1 km/h (2 Bft) W-SW 246 0 min 0,000 mm 0,0 UV-I 0 W/m 1,5 C -1,1 C 16,1 km/h (3 Bft) 97,62 %
18.02.2017 05:36 2,2 C 95 % 1025,4 hPa 0,0 l/m 9,3 km/h (2 Bft) W-SW 237 0 min 0,000 mm 0,0 UV-I 0 W/m 1,5 C -0,5 C 14,5 km/h (3 Bft) 96,36 %
18.02.2017 05:38 2,2 C 95 % 1025,4 hPa 0,0 l/m 10,0 km/h (2 Bft) SW 232 0 min 0,000 mm 0,0 UV-I 0 W/m 1,5 C -1,0 C 12,9 km/h (3 Bft) 100,00 %
18.02.2017 05:40 2,2 C 95 % 1025,4 hPa 0,0 l/m 10,3 km/h (2 Bft) SW 218 0 min 0,000 mm 0,0 UV-I 0 W/m 1,5 C -1,3 C 14,5 km/h (3 Bft) 100,00 %
18.02.2017 05:42 2,2 C 95 % 1025,4 hPa 0,0 l/m 8,0 km/h (2 Bft) W-SW 245 0 min 0,000 mm 0,0 UV-I 0 W/m 1,5 C 0,7 C 11,3 km/h (2 Bft) 97,14 %
18.02.2017 05:44 2,2 C 95 % 1025,5 hPa 0,0 l/m 9,2 km/h (2 Bft) W-SW 246 0 min 0,000 mm 0,0 UV-I 0 W/m 1,5 C -0,4 C 14,5 km/h (3 Bft) 100,00 %
18.02.2017 05:46 2,2 C 95 % 1025,4 hPa 0,0 l/m 7,6 km/h (2 Bft) W-SW 244 0 min 0,000 mm 0,0 UV-I 0 W/m 1,5 C 1,0 C 12,9 km/h (3 Bft) 100,00 %
18.02.2017 05:48 2,2 C 95 % 1025,5 hPa 0,0 l/m 9,0 km/h (2 Bft) W-SW 239 0 min 0,000 mm 0,0 UV-I 0 W/m 1,5 C -0,2 C 14,5 km/h (3 Bft) 98,63 %
18.02.2017 05:50 2,2 C 95 % 1025,5 hPa 0,0 l/m 6,3 km/h (2 Bft) SW 234 0 min 0,000 mm 0,0 UV-I 0 W/m 1,5 C 2,2 C 11,3 km/h (2 Bft) 100,00 %
18.02.2017 05:52 2,2 C 95 % 1025,5 hPa 0,0 l/m 7,5 km/h (2 Bft) W-SW 250 0 min 0,000 mm 0,0 UV-I 0 W/m 1,5 C 1,1 C 9,7 km/h (2 Bft) 95,12 %
18.02.2017 05:54 2,2 C 95 % 1025,5 hPa 0,0 l/m 6,7 km/h (2 Bft) W-SW 237 0 min 0,000 mm 0,0 UV-I 0 W/m 1,5 C 1,9 C 8,0 km/h (2 Bft) 98,11 %
18.02.2017 05:56 2,2 C 95 % 1025,5 hPa 0,0 l/m 6,1 km/h (2 Bft) SW 224 0 min 0,000 mm 0,0 UV-I 0 W/m 1,5 C 2,2 C 11,3 km/h (2 Bft) 100,00 %
18.02.2017 05:58 2,2 C 95 % 1025,5 hPa 0,0 l/m 9,8 km/h (2 Bft) W-SW 238 0 min 0,000 mm 0,0 UV-I 0 W/m 1,5 C -0,9 C 16,1 km/h (3 Bft) 94,83 %
18.02.2017 06:00 2,2 C 95 % 1025,5 hPa 0,0 l/m 7,5 km/h (2 Bft) SW 217 0 min 0,000 mm 0,0 UV-I 0 W/m 1,5 C 1,1 C 11,3 km/h (2 Bft) 100,00 %
18.02.2017 06:02 2,2 C 95 % 1025,6 hPa 0,0 l/m 6,5 km/h (2 Bft) SW 227 0 min 0,000 mm 0,0 UV-I 0 W/m 1,5 C 2,1 C 11,3 km/h (2 Bft) 100,00 %
18.02.2017 06:04 2,2 C 95 % 1025,6 hPa 0,0 l/m 11,4 km/h (2 Bft) SW 221 0 min 0,000 mm 0,0 UV-I 0 W/m 1,5 C -2,1 C 16,1 km/h (3 Bft) 97,37 %
18.02.2017 06:06 2,2 C 95 % 1025,6 hPa 0,0 l/m 9,8 km/h (2 Bft) SW 234 0 min 0,000 mm 0,0 UV-I 0 W/m 1,5 C -0,9 C 14,5 km/h (3 Bft) 97,73 %
18.02.2017 06:08 2,2 C 95 % 1025,6 hPa 0,0 l/m 10,8 km/h (2 Bft) SW 221 0 min 0,000 mm 0,0 UV-I 0 W/m 1,5 C -1,6 C 14,5 km/h (3 Bft) 98,31 %
18.02.2017 06:10 2,2 C 95 % 1025,5 hPa 0,0 l/m 8,5 km/h (2 Bft) SW 233 0 min 0,000 mm 0,0 UV-I 0 W/m 1,5 C 0,2 C 14,5 km/h (3 Bft) 97,56 %
18.02.2017 06:12 2,2 C 95 % 1025,6 hPa 0,0 l/m 8,6 km/h (2 Bft) SW 233 0 min 0,000 mm 0,0 UV-I 0 W/m 1,5 C 0,1 C 14,5 km/h (3 Bft) 98,00 %
18.02.2017 06:14 2,2 C 95 % 1025,6 hPa 0,0 l/m 7,6 km/h (2 Bft) SW 232 0 min 0,000 mm 0,0 UV-I 0 W/m 1,5 C 1,0 C 11,3 km/h (2 Bft) 95,83 %
18.02.2017 06:16 2,2 C 95 % 1025,6 hPa 0,0 l/m 7,0 km/h (2 Bft) SW 223 0 min 0,000 mm 0,0 UV-I 0 W/m 1,5 C 1,6 C 11,3 km/h (2 Bft) 96,77 %
18.02.2017 06:18 2,2 C 95 % 1025,6 hPa 0,0 l/m 8,9 km/h (2 Bft) SW 236 0 min 0,000 mm 0,0 UV-I 0 W/m 1,5 C -0,1 C 14,5 km/h (3 Bft) 92,73 %
18.02.2017 06:20 2,2 C 95 % 1025,6 hPa 0,0 l/m 8,0 km/h (2 Bft) W-SW 237 0 min 0,000 mm 0,0 UV-I 0 W/m 1,5 C 0,7 C 11,3 km/h (2 Bft) 95,56 %
18.02.2017 06:22 2,2 C 95 % 1025,6 hPa 0,2 l/m 6,3 km/h (2 Bft) W-SW 244 0 min 0,000 mm 0,0 UV-I 0 W/m 1,5 C 2,2 C 9,7 km/h (2 Bft) 97,37 %
18.02.2017 06:24 2,2 C 95 % 1025,6 hPa 0,0 l/m 9,8 km/h (2 Bft) SW 218 0 min 0,000 mm 0,0 UV-I 0 W/m 1,5 C -0,9 C 14,5 km/h (3 Bft) 96,43 %
18.02.2017 06:26 2,2 C 95 % 1025,6 hPa 0,0 l/m 8,0 km/h (2 Bft) W-SW 245 0 min 0,000 mm 0,0 UV-I 0 W/m 1,5 C 0,7 C 11,3 km/h (2 Bft) 97,37 %
18.02.2017 06:28 2,2 C 95 % 1025,6 hPa 0,0 l/m 8,3 km/h (2 Bft) W-SW 258 0 min 0,000 mm 0,0 UV-I 0 W/m 1,5 C 0,4 C 12,9 km/h (3 Bft) 94,34 %
18.02.2017 06:30 2,2 C 95 % 1025,6 hPa 0,2 l/m 6,5 km/h (2 Bft) W-SW 240 0 min 0,000 mm 0,0 UV-I 0 W/m 1,5 C 2,1 C 12,9 km/h (3 Bft) 96,00 %
18.02.2017 06:32 2,2 C 96 % 1025,7 hPa 0,0 l/m 8,0 km/h (2 Bft) SW 235 0 min 0,000 mm 0,0 UV-I 0 W/m 1,6 C 0,7 C 11,3 km/h (2 Bft) 97,56 %
18.02.2017 06:34 2,2 C 95 % 1025,7 hPa 0,0 l/m 6,7 km/h (2 Bft) SW 231 0 min 0,000 mm 0,0 UV-I 0 W/m 1,5 C 1,9 C 9,7 km/h (2 Bft) 96,00 %
18.02.2017 06:36 2,2 C 95 % 1025,7 hPa 0,0 l/m 6,8 km/h (2 Bft) SW 227 0 min 0,000 mm 0,0 UV-I 0 W/m 1,5 C 1,8 C 11,3 km/h (2 Bft) 97,44 %
18.02.2017 06:38 2,2 C 96 % 1025,7 hPa 0,0 l/m 6,9 km/h (2 Bft) W-SW 251 0 min 0,000 mm 0,0 UV-I 0 W/m 1,6 C 1,7 C 12,9 km/h (3 Bft) 96,43 %
18.02.2017 06:40 2,2 C 96 % 1025,7 hPa 0,0 l/m 7,6 km/h (2 Bft) SW 216 0 min 0,000 mm 0,0 UV-I 0 W/m 1,6 C 1,0 C 11,3 km/h (2 Bft) 90,24 %
18.02.2017 06:42 2,2 C 96 % 1025,7 hPa 0,0 l/m 7,4 km/h (2 Bft) W-SW 246 0 min 0,000 mm 0,0 UV-I 0 W/m 1,6 C 1,2 C 9,7 km/h (2 Bft) 95,74 %
18.02.2017 06:44 2,2 C 96 % 1025,7 hPa 0,0 l/m 6,0 km/h (2 Bft) SW 225 0 min 0,000 mm 0,0 UV-I 0 W/m 1,6 C 2,2 C 9,7 km/h (2 Bft) 98,00 %
18.02.2017 06:46 2,1 C 96 % 1025,8 hPa 0,0 l/m 7,5 km/h (2 Bft) W-SW 243 0 min 0,000 mm 0,0 UV-I 0 W/m 1,5 C 1,0 C 11,3 km/h (2 Bft) 98,00 %
18.02.2017 06:48 2,1 C 96 % 1025,7 hPa 0,0 l/m 6,4 km/h (2 Bft) SW 219 0 min 0,000 mm 0,0 UV-I 0 W/m 1,5 C 2,1 C 12,9 km/h (3 Bft) 95,74 %
18.02.2017 06:50 2,1 C 96 % 1025,7 hPa 0,0 l/m 6,4 km/h (2 Bft) W-SW 248 0 min 0,000 mm 0,0 UV-I 0 W/m 1,5 C 2,1 C 9,7 km/h (2 Bft) 94,74 %
18.02.2017 06:52 2,1 C 96 % 1025,8 hPa 0,0 l/m 7,0 km/h (2 Bft) SW 226 0 min 0,000 mm 0,0 UV-I 0 W/m 1,5 C 1,5 C 11,3 km/h (2 Bft) 92,00 %
18.02.2017 06:54 2,1 C 96 % 1025,7 hPa 0,0 l/m 6,5 km/h (2 Bft) S-SW 213 0 min 0,000 mm 0,0 UV-I 0 W/m 1,5 C 2,0 C 8,0 km/h (2 Bft) 92,45 %
18.02.2017 06:56 2,1 C 96 % 1025,8 hPa 0,0 l/m 6,7 km/h (2 Bft) SW 227 0 min 0,000 mm 0,0 UV-I 0 W/m 1,5 C 1,8 C 11,3 km/h (2 Bft) 91,67 %
18.02.2017 06:58 2,1 C 96 % 1025,9 hPa 0,0 l/m 9,0 km/h (2 Bft) W-SW 244 0 min 0,000 mm 0,0 UV-I 0 W/m 1,5 C -0,3 C 16,1 km/h (3 Bft) 96,00 %
18.02.2017 07:00 2,1 C 96 % 1025,9 hPa 0,0 l/m 9,6 km/h (2 Bft) SW 217 0 min 0,000 mm 0,0 UV-I 0 W/m 1,5 C -0,8 C 17,7 km/h (3 Bft) 94,34 %
18.02.2017 07:02 2,1 C 96 % 1025,9 hPa 0,0 l/m 9,5 km/h (2 Bft) S-SW 207 0 min 0,000 mm 0,0 UV-I 0 W/m 1,5 C -0,7 C 14,5 km/h (3 Bft) 97,37 %
18.02.2017 07:04 2,1 C 96 % 1025,9 hPa 0,0 l/m 11,3 km/h (2 Bft) SW 229 0 min 0,000 mm 0,0 UV-I 0 W/m 1,5 C -2,1 C 20,9 km/h (4 Bft) 90,57 %
18.02.2017 07:06 2,1 C 96 % 1025,9 hPa 0,0 l/m 12,9 km/h (3 Bft) SW 234 0 min 0,000 mm 0,0 UV-I 0 W/m 1,5 C -3,2 C 19,3 km/h (3 Bft) 95,12 %
18.02.2017 07:08 2,1 C 96 % 1026,0 hPa 0,0 l/m 11,7 km/h (2 Bft) W-SW 257 0 min 0,000 mm 0,0 UV-I 3 W/m 1,5 C -2,4 C 17,7 km/h (3 Bft) 94,92 %
18.02.2017 07:10 2,1 C 96 % 1025,9 hPa 0,0 l/m 11,2 km/h (2 Bft) W-SW 248 0 min 0,000 mm 0,0 UV-I 5 W/m 1,5 C -2,0 C 16,1 km/h (3 Bft) 94,74 %
18.02.2017 07:12 2,1 C 96 % 1026,0 hPa 0,0 l/m 11,3 km/h (2 Bft) W 259 0 min 0,000 mm 0,0 UV-I 5 W/m 1,5 C -2,1 C 14,5 km/h (3 Bft) 100,00 %
18.02.2017 07:14 2,1 C 96 % 1026,0 hPa 0,0 l/m 11,3 km/h (2 Bft) W-SW 251 0 min 0,000 mm 0,0 UV-I 5 W/m 1,5 C -2,1 C 16,1 km/h (3 Bft) 96,00 %
18.02.2017 07:16 2,1 C 96 % 1026,0 hPa 0,0 l/m 10,0 km/h (2 Bft) W-SW 242 0 min 0,000 mm 0,0 UV-I 5 W/m 1,5 C -1,1 C 16,1 km/h (3 Bft) 95,12 %
18.02.2017 07:18 2,1 C 96 % 1026,0 hPa 0,0 l/m 11,0 km/h (2 Bft) SW 234 0 min 0,000 mm 0,0 UV-I 5 W/m 1,5 C -1,9 C 14,5 km/h (3 Bft) 93,18 %
18.02.2017 07:20 2,1 C 96 % 1025,9 hPa 0,0 l/m 10,6 km/h (2 Bft) S-SW 208 0 min 0,000 mm 0,0 UV-I 7 W/m 1,5 C -1,6 C 16,1 km/h (3 Bft) 94,00 %
18.02.2017 07:22 2,1 C 96 % 1026,0 hPa 0,0 l/m 10,6 km/h (2 Bft) SW 224 0 min 0,000 mm 0,0 UV-I 7 W/m 1,5 C -1,6 C 17,7 km/h (3 Bft) 86,00 %
18.02.2017 07:24 2,1 C 96 % 1026,0 hPa 0,0 l/m 9,7 km/h (2 Bft) W-SW 250 0 min 0,000 mm 0,0 UV-I 7 W/m 1,5 C -0,9 C 12,9 km/h (3 Bft) 97,37 %
18.02.2017 07:26 2,0 C 96 % 1026,0 hPa 0,0 l/m 9,9 km/h (2 Bft) S 190 0 min 0,000 mm 0,0 UV-I 7 W/m 1,4 C -1,2 C 12,9 km/h (3 Bft) 98,11 %
18.02.2017 07:28 1,9 C 96 % 1026,0 hPa 0,0 l/m 9,0 km/h (2 Bft) S-SW 207 0 min 0,000 mm 0,0 UV-I 7 W/m 1,3 C -0,5 C 14,5 km/h (3 Bft) 94,00 %
18.02.2017 07:30 1,9 C 96 % 1026,0 hPa 0,0 l/m 10,5 km/h (2 Bft) W-SW 244 0 min 0,000 mm 0,0 UV-I 7 W/m 1,3 C -1,7 C 17,7 km/h (3 Bft) 100,00 %
18.02.2017 07:32 1,9 C 96 % 1025,9 hPa 0,0 l/m 10,1 km/h (2 Bft) W-SW 248 0 min 0,000 mm 0,0 UV-I 7 W/m 1,3 C -1,4 C 16,1 km/h (3 Bft) 97,62 %
18.02.2017 07:34 1,9 C 96 % 1026,0 hPa 0,0 l/m 9,0 km/h (2 Bft) W-SW 258 0 min 0,000 mm 0,0 UV-I 7 W/m 1,3 C -0,5 C 12,9 km/h (3 Bft) 97,62 %
18.02.2017 07:36 1,8 C 96 % 1026,0 hPa 0,0 l/m 8,9 km/h (2 Bft) SW 215 0 min 0,000 mm 0,0 UV-I 8 W/m 1,2 C -0,6 C 12,9 km/h (3 Bft) 97,87 %
18.02.2017 07:38 1,8 C 96 % 1026,0 hPa 0,0 l/m 12,1 km/h (2 Bft) SW 235 0 min 0,000 mm 0,0 UV-I 9 W/m 1,2 C -3,0 C 17,7 km/h (3 Bft) 98,11 %
18.02.2017 07:40 1,8 C 96 % 1026,1 hPa 0,0 l/m 10,2 km/h (2 Bft) SW 223 0 min 0,000 mm 0,0 UV-I 9 W/m 1,2 C -1,6 C 17,7 km/h (3 Bft) 100,00 %
18.02.2017 07:42 1,8 C 96 % 1026,1 hPa 0,0 l/m 7,7 km/h (2 Bft) SW 223 0 min 0,000 mm 0,0 UV-I 9 W/m 1,2 C 0,5 C 12,9 km/h (3 Bft) 94,74 %
18.02.2017 07:44 1,8 C 96 % 1026,1 hPa 0,0 l/m 7,3 km/h (2 Bft) S-SW 211 0 min 0,000 mm 0,0 UV-I 10 W/m 1,2 C 0,9 C 11,3 km/h (2 Bft) 96,23 %
18.02.2017 07:46 1,9 C 96 % 1026,1 hPa 0,0 l/m 9,2 km/h (2 Bft) S-SW 212 0 min 0,000 mm 0,0 UV-I 11 W/m 1,3 C -0,7 C 16,1 km/h (3 Bft) 100,00 %
18.02.2017 07:48 1,9 C 96 % 1026,1 hPa 0,0 l/m 8,4 km/h (2 Bft) SW 217 0 min 0,000 mm 0,0 UV-I 12 W/m 1,3 C -0,0 C 14,5 km/h (3 Bft) 98,11 %
18.02.2017 07:50 1,9 C 96 % 1026,1 hPa 0,0 l/m 9,1 km/h (2 Bft) W-SW 250 0 min 0,000 mm 0,0 UV-I 12 W/m 1,3 C -0,6 C 14,5 km/h (3 Bft) 89,47 %
18.02.2017 07:52 1,9 C 96 % 1026,1 hPa 0,0 l/m 7,9 km/h (2 Bft) SW 225 0 min 0,000 mm 0,0 UV-I 12 W/m 1,3 C 0,4 C 11,3 km/h (2 Bft) 98,21 %
18.02.2017 07:54 1,9 C 96 % 1026,2 hPa 0,0 l/m 6,4 km/h (2 Bft) SW 225 0 min 0,000 mm 0,0 UV-I 12 W/m 1,3 C 1,9 C 9,7 km/h (2 Bft) 97,87 %
18.02.2017 07:56 2,0 C 96 % 1026,2 hPa 0,0 l/m 6,7 km/h (2 Bft) SW 230 0 min 0,000 mm 0,0 UV-I 12 W/m 1,4 C 1,7 C 8,0 km/h (2 Bft) 95,12 %
18.02.2017 07:58 2,0 C 96 % 1026,2 hPa 0,0 l/m 6,7 km/h (2 Bft) SW 225 0 min 0,000 mm 0,0 UV-I 14 W/m 1,4 C 1,7 C 11,3 km/h (2 Bft) 95,45 %
18.02.2017 08:00 2,0 C 96 % 1026,2 hPa 0,0 l/m 5,7 km/h (1 Bft) W-SW 256 0 min 0,000 mm 0,0 UV-I 14 W/m 1,4 C 2,0 C 9,7 km/h (2 Bft) 94,00 %
18.02.2017 08:02 2,1 C 96 % 1026,2 hPa 0,0 l/m 6,9 km/h (2 Bft) W-SW 247 0 min 0,000 mm 0,0 UV-I 15 W/m 1,5 C 1,6 C 11,3 km/h (2 Bft) 96,00 %
18.02.2017 08:04 2,1 C 96 % 1026,2 hPa 0,0 l/m 6,8 km/h (2 Bft) SW 223 0 min 0,000 mm 0,0 UV-I 16 W/m 1,5 C 1,7 C 12,9 km/h (3 Bft) 100,00 %
18.02.2017 08:06 2,1 C 96 % 1026,2 hPa 0,0 l/m 8,1 km/h (2 Bft) SW 229 0 min 0,000 mm 0,0 UV-I 17 W/m 1,5 C 0,5 C 11,3 km/h (2 Bft) 95,12 %
18.02.2017 08:08 2,1 C 96 % 1026,2 hPa 0,0 l/m 6,8 km/h (2 Bft) SW 221 0 min 0,000 mm 0,0 UV-I 16 W/m 1,5 C 1,7 C 11,3 km/h (2 Bft) 96,00 %
18.02.2017 08:10 2,2 C 97 % 1026,3 hPa 0,0 l/m 6,6 km/h (2 Bft) W-SW 240 0 min 0,000 mm 0,0 UV-I 16 W/m 1,8 C 2,0 C 11,3 km/h (2 Bft) 94,64 %
18.02.2017 08:12 2,2 C 97 % 1026,3 hPa 0,0 l/m 4,5 km/h (1 Bft) W-SW 244 0 min 0,000 mm 0,0 UV-I 16 W/m 1,8 C 2,2 C 6,4 km/h (2 Bft) 100,00 %
18.02.2017 08:14 2,2 C 97 % 1026,3 hPa 0,0 l/m 4,9 km/h (1 Bft) W-SW 245 0 min 0,000 mm 0,0 UV-I 16 W/m 1,8 C 2,2 C 8,0 km/h (2 Bft) 97,92 %
18.02.2017 08:16 2,2 C 97 % 1026,3 hPa 0,0 l/m 4,5 km/h (1 Bft) W-SW 257 0 min 0,000 mm 0,0 UV-I 16 W/m 1,8 C 2,2 C 6,4 km/h (2 Bft) 94,55 %
18.02.2017 08:18 2,2 C 97 % 1026,3 hPa 0,0 l/m 5,4 km/h (1 Bft) W-SW 245 0 min 0,000 mm 0,0 UV-I 16 W/m 1,8 C 2,2 C 8,0 km/h (2 Bft) 97,62 %
18.02.2017 08:20 2,2 C 97 % 1026,3 hPa 0,0 l/m 5,7 km/h (1 Bft) SW 236 0 min 0,000 mm 0,0 UV-I 18 W/m 1,8 C 2,2 C 9,7 km/h (2 Bft) 92,31 %
18.02.2017 08:22 2,3 C 97 % 1026,3 hPa 0,0 l/m 8,6 km/h (2 Bft) W-SW 241 0 min 0,000 mm 0,0 UV-I 18 W/m 1,9 C 0,2 C 11,3 km/h (2 Bft) 94,87 %
18.02.2017 08:24 2,3 C 97 % 1026,3 hPa 0,0 l/m 8,3 km/h (2 Bft) W-SW 242 0 min 0,000 mm 0,0 UV-I 18 W/m 1,9 C 0,5 C 9,7 km/h (2 Bft) 98,21 %
18.02.2017 08:26 2,3 C 97 % 1026,3 hPa 0,0 l/m 6,5 km/h (2 Bft) W-SW 238 0 min 0,000 mm 0,0 UV-I 19 W/m 1,9 C 2,2 C 9,7 km/h (2 Bft) 100,00 %
18.02.2017 08:28 2,3 C 97 % 1026,3 hPa 0,0 l/m 7,3 km/h (2 Bft) SW 236 0 min 0,000 mm 0,0 UV-I 21 W/m 1,9 C 1,4 C 12,9 km/h (3 Bft) 100,00 %
18.02.2017 08:30 2,3 C 97 % 1026,2 hPa 0,0 l/m 7,2 km/h (2 Bft) W-SW 253 0 min 0,000 mm 0,0 UV-I 24 W/m 1,9 C 1,5 C 11,3 km/h (2 Bft) 100,00 %
18.02.2017 08:32 2,4 C 97 % 1026,2 hPa 0,0 l/m 6,9 km/h (2 Bft) W-SW 248 0 min 0,000 mm 0,0 UV-I 30 W/m 2,0 C 1,9 C 11,3 km/h (2 Bft) 95,45 %
18.02.2017 08:34 2,4 C 97 % 1026,3 hPa 0,0 l/m 7,3 km/h (2 Bft) W-SW 251 0 min 0,000 mm 0,0 UV-I 35 W/m 2,0 C 1,5 C 11,3 km/h (2 Bft) 100,00 %
18.02.2017 08:36 2,4 C 97 % 1026,3 hPa 0,0 l/m 8,9 km/h (2 Bft) W-SW 255 0 min 0,000 mm 0,0 UV-I 38 W/m 2,0 C 0,1 C 12,9 km/h (3 Bft) 95,74 %
18.02.2017 08:38 2,4 C 97 % 1026,4 hPa 0,0 l/m 8,2 km/h (2 Bft) W-SW 255 0 min 0,000 mm 0,0 UV-I 39 W/m 2,0 C 0,7 C 12,9 km/h (3 Bft) 100,00 %
18.02.2017 08:40 2,5 C 97 % 1026,3 hPa 0,0 l/m 8,6 km/h (2 Bft) W-SW 256 0 min 0,000 mm 0,0 UV-I 47 W/m 2,1 C 0,4 C 12,9 km/h (3 Bft) 98,00 %
18.02.2017 08:42 2,5 C 97 % 1026,3 hPa 0,0 l/m 9,2 km/h (2 Bft) W-SW 254 0 min 0,000 mm 0,0 UV-I 56 W/m 2,1 C -0,1 C 14,5 km/h (3 Bft) 100,00 %
18.02.2017 08:44 2,6 C 97 % 1026,3 hPa 0,0 l/m 8,1 km/h (2 Bft) W-SW 244 0 min 0,000 mm 0,0 UV-I 62 W/m 2,2 C 1,0 C 12,9 km/h (3 Bft) 98,11 %
18.02.2017 08:46 2,6 C 97 % 1026,4 hPa 0,0 l/m 8,0 km/h (2 Bft) W-SW 240 0 min 0,000 mm 0,0 UV-I 60 W/m 2,2 C 1,1 C 11,3 km/h (2 Bft) 97,56 %
18.02.2017 08:48 2,6 C 97 % 1026,4 hPa 0,0 l/m 7,6 km/h (2 Bft) W-SW 253 0 min 0,000 mm 0,0 UV-I 55 W/m 2,2 C 1,5 C 11,3 km/h (2 Bft) 100,00 %
18.02.2017 08:50 2,6 C 97 % 1026,3 hPa 0,0 l/m 10,1 km/h (2 Bft) W 260 0 min 0,000 mm 0,0 UV-I 51 W/m 2,2 C -0,7 C 12,9 km/h (3 Bft) 100,00 %
18.02.2017 08:52 2,6 C 97 % 1026,3 hPa 0,0 l/m 10,0 km/h (2 Bft) W 262 0 min 0,000 mm 0,0 UV-I 50 W/m 2,2 C -0,6 C 12,9 km/h (3 Bft) 100,00 %
18.02.2017 08:54 2,6 C 97 % 1026,3 hPa 0,0 l/m 11,1 km/h (2 Bft) W-SW 246 0 min 0,000 mm 0,0 UV-I 59 W/m 2,2 C -1,4 C 14,5 km/h (3 Bft) 97,87 %
18.02.2017 08:56 2,6 C 97 % 1026,3 hPa 0,0 l/m 11,7 km/h (2 Bft) W 281 0 min 0,000 mm 0,0 UV-I 61 W/m 2,2 C -1,8 C 16,1 km/h (3 Bft) 98,00 %
18.02.2017 08:58 2,7 C 97 % 1026,3 hPa 0,0 l/m 12,0 km/h (2 Bft) W-SW 251 0 min 0,000 mm 0,0 UV-I 73 W/m 2,3 C -1,9 C 16,1 km/h (3 Bft) 95,74 %
18.02.2017 09:00 2,7 C 97 % 1026,4 hPa 0,0 l/m 9,6 km/h (2 Bft) W 281 0 min 0,025 mm 0,0 UV-I 76 W/m 2,3 C -0,2 C 12,9 km/h (3 Bft) 97,44 %
18.02.2017 09:02 2,7 C 97 % 1026,4 hPa 0,0 l/m 9,8 km/h (2 Bft) W-SW 248 0 min 0,000 mm 0,0 UV-I 75 W/m 2,3 C -0,3 C 14,5 km/h (3 Bft) 98,00 %
18.02.2017 09:04 2,7 C 97 % 1026,4 hPa 0,0 l/m 9,1 km/h (2 Bft) W-SW 255 0 min 0,000 mm 0,0 UV-I 72 W/m 2,3 C 0,2 C 14,5 km/h (3 Bft) 97,56 %
18.02.2017 09:06 2,7 C 96 % 1026,4 hPa 0,0 l/m 10,3 km/h (2 Bft) W-SW 251 0 min 0,000 mm 0,0 UV-I 73 W/m 2,1 C -0,7 C 12,9 km/h (3 Bft) 94,34 %
18.02.2017 09:08 2,8 C 97 % 1026,4 hPa 0,0 l/m 10,4 km/h (2 Bft) W 267 0 min 0,000 mm 0,0 UV-I 72 W/m 2,4 C -0,7 C 16,1 km/h (3 Bft) 95,74 %
18.02.2017 09:10 2,8 C 97 % 1026,4 hPa 0,0 l/m 9,8 km/h (2 Bft) W-SW 252 0 min 0,000 mm 0,0 UV-I 64 W/m 2,4 C -0,2 C 12,9 km/h (3 Bft) 97,56 %
18.02.2017 09:12 2,8 C 97 % 1026,4 hPa 0,0 l/m 9,7 km/h (2 Bft) W-SW 244 0 min 0,000 mm 0,0 UV-I 56 W/m 2,4 C -0,1 C 14,5 km/h (3 Bft) 98,21 %
18.02.2017 09:14 2,8 C 97 % 1026,4 hPa 0,0 l/m 10,8 km/h (2 Bft) W-SW 250 0 min 0,000 mm 0,0 UV-I 57 W/m 2,4 C -0,9 C 16,1 km/h (3 Bft) 97,14 %
18.02.2017 09:16 2,8 C 97 % 1026,4 hPa 0,0 l/m 7,5 km/h (2 Bft) W-SW 248 0 min 0,000 mm 0,0 UV-I 54 W/m 2,4 C 1,8 C 11,3 km/h (2 Bft) 96,23 %
18.02.2017 09:18 2,8 C 96 % 1026,4 hPa 0,0 l/m 8,7 km/h (2 Bft) W-SW 243 0 min 0,000 mm 0,0 UV-I 52 W/m 2,2 C 0,7 C 12,9 km/h (3 Bft) 96,15 %
18.02.2017 09:20 2,8 C 96 % 1026,4 hPa 0,0 l/m 8,3 km/h (2 Bft) W 266 0 min 0,000 mm 0,0 UV-I 51 W/m 2,2 C 1,0 C 12,9 km/h (3 Bft) 93,24 %
18.02.2017 09:22 2,8 C 96 % 1026,5 hPa 0,0 l/m 6,4 km/h (2 Bft) W-SW 247 0 min 0,000 mm 0,0 UV-I 43 W/m 2,2 C 2,8 C 11,3 km/h (2 Bft) 93,62 %
18.02.2017 09:24 2,8 C 96 % 1026,5 hPa 0,0 l/m 8,1 km/h (2 Bft) W-SW 250 0 min 0,000 mm 0,0 UV-I 39 W/m 2,2 C 1,2 C 11,3 km/h (2 Bft) 97,14 %
18.02.2017 09:26 2,8 C 96 % 1026,5 hPa 0,0 l/m 7,2 km/h (2 Bft) W-SW 246 0 min 0,000 mm 0,0 UV-I 40 W/m 2,2 C 2,0 C 11,3 km/h (2 Bft) 90,57 %
18.02.2017 09:28 2,8 C 96 % 1026,5 hPa 0,0 l/m 8,3 km/h (2 Bft) W 263 0 min 0,000 mm 0,0 UV-I 44 W/m 2,2 C 1,0 C 11,3 km/h (2 Bft) 92,68 %
18.02.2017 09:30 2,8 C 96 % 1026,5 hPa 0,0 l/m 7,2 km/h (2 Bft) W-SW 241 0 min 0,000 mm 0,0 UV-I 48 W/m 2,2 C 2,0 C 12,9 km/h (3 Bft) 96,43 %
18.02.2017 09:32 2,8 C 96 % 1026,5 hPa 0,0 l/m 7,8 km/h (2 Bft) W 267 0 min 0,000 mm 0,0 UV-I 52 W/m 2,2 C 1,5 C 11,3 km/h (2 Bft) 100,00 %
18.02.2017 09:34 2,9 C 96 % 1026,5 hPa 0,0 l/m 7,2 km/h (2 Bft) W-SW 256 0 min 0,000 mm 0,0 UV-I 59 W/m 2,3 C 2,1 C 11,3 km/h (2 Bft) 98,18 %
18.02.2017 09:36 2,9 C 96 % 1026,5 hPa 0,0 l/m 7,5 km/h (2 Bft) W-SW 238 0 min 0,000 mm 0,0 UV-I 58 W/m 2,3 C 1,9 C 14,5 km/h (3 Bft) 97,22 %
18.02.2017 09:38 2,9 C 96 % 1026,5 hPa 0,0 l/m 7,1 km/h (2 Bft) W-NW 283 0 min 0,000 mm 0,0 UV-I 56 W/m 2,3 C 2,2 C 11,3 km/h (2 Bft) 96,00 %
18.02.2017 09:40 2,9 C 96 % 1026,5 hPa 0,0 l/m 6,5 km/h (2 Bft) W-SW 241 0 min 0,000 mm 0,0 UV-I 52 W/m 2,3 C 2,8 C 12,9 km/h (3 Bft) 100,00 %
18.02.2017 09:42 2,9 C 96 % 1026,5 hPa 0,0 l/m 6,5 km/h (2 Bft) W-SW 238 0 min 0,000 mm 0,0 UV-I 47 W/m 2,3 C 2,8 C 9,7 km/h (2 Bft) 94,34 %
18.02.2017 09:44 2,9 C 96 % 1026,4 hPa 0,0 l/m 8,6 km/h (2 Bft) W-SW 257 0 min 0,000 mm 0,0 UV-I 46 W/m 2,3 C 0,9 C 12,9 km/h (3 Bft) 100,00 %
18.02.2017 09:46 2,9 C 96 % 1026,5 hPa 0,0 l/m 8,5 km/h (2 Bft) SW 231 0 min 0,000 mm 0,0 UV-I 47 W/m 2,3 C 1,0 C 11,3 km/h (2 Bft) 97,73 %
18.02.2017 09:48 2,9 C 96 % 1026,5 hPa 0,0 l/m 6,1 km/h (2 Bft) SW 226 0 min 0,000 mm 0,0 UV-I 47 W/m 2,3 C 2,9 C 8,0 km/h (2 Bft) 98,21 %
18.02.2017 09:50 3,0 C 96 % 1026,5 hPa 0,0 l/m 5,8 km/h (2 Bft) W-SW 245 0 min 0,000 mm 0,0 UV-I 50 W/m 2,4 C 3,0 C 9,7 km/h (2 Bft) 96,00 %
18.02.2017 09:52 3,0 C 96 % 1026,4 hPa 0,0 l/m 6,0 km/h (2 Bft) SW 227 0 min 0,000 mm 0,0 UV-I 54 W/m 2,4 C 3,0 C 9,7 km/h (2 Bft) 94,74 %
18.02.2017 09:54 3,0 C 96 % 1026,5 hPa 0,0 l/m 5,4 km/h (1 Bft) W-SW 251 0 min 0,000 mm 0,0 UV-I 62 W/m 2,4 C 3,0 C 8,0 km/h (2 Bft) 100,00 %
18.02.2017 09:56 3,0 C 96 % 1026,4 hPa 0,0 l/m 9,0 km/h (2 Bft) SW 229 0 min 0,000 mm 0,0 UV-I 69 W/m 2,4 C 0,6 C 14,5 km/h (3 Bft) 95,45 %
18.02.2017 09:58 3,0 C 96 % 1026,4 hPa 0,0 l/m 8,4 km/h (2 Bft) W-SW 248 0 min 0,000 mm 0,0 UV-I 70 W/m 2,4 C 1,2 C 14,5 km/h (3 Bft) 95,74 %
18.02.2017 10:00 3,0 C 96 % 1026,5 hPa 0,0 l/m 8,3 km/h (2 Bft) W-SW 245 0 min 0,000 mm 0,0 UV-I 58 W/m 2,4 C 1,2 C 11,3 km/h (2 Bft) 95,12 %
18.02.2017 10:02 3,1 C 96 % 1026,4 hPa 0,0 l/m 10,5 km/h (2 Bft) SW 230 0 min 0,026 mm 0,0 UV-I 59 W/m 2,5 C -0,4 C 14,5 km/h (3 Bft) 96,30 %
18.02.2017 10:04 3,1 C 96 % 1026,4 hPa 0,0 l/m 10,7 km/h (2 Bft) W-SW 238 0 min 0,000 mm 0,0 UV-I 62 W/m 2,5 C -0,5 C 16,1 km/h (3 Bft) 97,73 %
18.02.2017 10:06 3,1 C 96 % 1026,5 hPa 0,0 l/m 7,5 km/h (2 Bft) SW 223 0 min 0,000 mm 0,0 UV-I 63 W/m 2,5 C 2,1 C 12,9 km/h (3 Bft) 96,00 %
18.02.2017 10:08 3,1 C 96 % 1026,4 hPa 0,0 l/m 8,7 km/h (2 Bft) W-SW 244 0 min 0,000 mm 0,0 UV-I 68 W/m 2,5 C 1,0 C 12,9 km/h (3 Bft) 97,56 %
18.02.2017 10:10 3,1 C 96 % 1026,4 hPa 0,0 l/m 7,1 km/h (2 Bft) W-SW 246 0 min 0,000 mm 0,0 UV-I 64 W/m 2,5 C 2,4 C 9,7 km/h (2 Bft) 94,34 %
18.02.2017 10:12 3,2 C 96 % 1026,5 hPa 0,0 l/m 7,6 km/h (2 Bft) SW 234 0 min 0,000 mm 0,0 UV-I 64 W/m 2,6 C 2,1 C 11,3 km/h (2 Bft) 94,87 %
18.02.2017 10:14 3,2 C 96 % 1026,5 hPa 0,0 l/m 6,3 km/h (2 Bft) W-SW 249 0 min 0,000 mm 0,0 UV-I 65 W/m 2,6 C 3,2 C 11,3 km/h (2 Bft) 96,23 %
18.02.2017 10:16 3,2 C 96 % 1026,5 hPa 0,0 l/m 6,6 km/h (2 Bft) W-SW 250 0 min 0,000 mm 0,0 UV-I 65 W/m 2,6 C 3,0 C 9,7 km/h (2 Bft) 94,87 %
18.02.2017 10:18 3,2 C 96 % 1026,4 hPa 0,0 l/m 6,4 km/h (2 Bft) W-SW 240 0 min 0,000 mm 0,0 UV-I 61 W/m 2,6 C 3,2 C 11,3 km/h (2 Bft) 96,36 %
18.02.2017 10:20 3,2 C 96 % 1026,4 hPa 0,0 l/m 6,8 km/h (2 Bft) W-SW 244 0 min 0,000 mm 0,0 UV-I 55 W/m 2,6 C 2,8 C 11,3 km/h (2 Bft) 94,87 %
18.02.2017 10:22 3,2 C 96 % 1026,5 hPa 0,0 l/m 4,4 km/h (1 Bft) SW 227 0 min 0,000 mm 0,0 UV-I 58 W/m 2,6 C 3,2 C 8,0 km/h (2 Bft) 96,23 %
18.02.2017 10:24 3,2 C 96 % 1026,4 hPa 0,0 l/m 8,2 km/h (2 Bft) W-SW 243 0 min 0,000 mm 0,0 UV-I 67 W/m 2,6 C 1,5 C 17,7 km/h (3 Bft) 97,73 %
18.02.2017 10:26 3,3 C 96 % 1026,4 hPa 0,0 l/m 7,2 km/h (2 Bft) SW 222 0 min 0,000 mm 0,0 UV-I 71 W/m 2,7 C 2,5 C 12,9 km/h (3 Bft) 96,23 %
18.02.2017 10:28 3,3 C 96 % 1026,5 hPa 0,0 l/m 6,2 km/h (2 Bft) W-SW 251 0 min 0,000 mm 0,0 UV-I 78 W/m 2,7 C 3,3 C 9,7 km/h (2 Bft) 97,37 %
18.02.2017 10:30 3,3 C 96 % 1026,5 hPa 0,0 l/m 6,4 km/h (2 Bft) SW 234 0 min 0,000 mm 0,0 UV-I 83 W/m 2,7 C 3,3 C 11,3 km/h (2 Bft) 98,11 %
18.02.2017 10:32 3,3 C 96 % 1026,4 hPa 0,0 l/m 8,5 km/h (2 Bft) W-SW 238 0 min 0,000 mm 0,0 UV-I 84 W/m 2,7 C 1,4 C 12,9 km/h (3 Bft) 94,74 %
18.02.2017 10:34 3,3 C 96 % 1026,5 hPa 0,0 l/m 7,8 km/h (2 Bft) W-SW 244 0 min 0,000 mm 0,0 UV-I 86 W/m 2,7 C 2,0 C 12,9 km/h (3 Bft) 94,34 %
18.02.2017 10:36 3,3 C 96 % 1026,4 hPa 0,0 l/m 9,1 km/h (2 Bft) W-SW 252 0 min 0,000 mm 0,0 UV-I 84 W/m 2,7 C 0,9 C 12,9 km/h (3 Bft) 97,73 %
18.02.2017 10:38 3,4 C 96 % 1026,5 hPa 0,0 l/m 8,1 km/h (2 Bft) SW 214 0 min 0,000 mm 0,0 UV-I 83 W/m 2,8 C 1,8 C 12,9 km/h (3 Bft) 94,34 %
18.02.2017 10:40 3,4 C 95 % 1026,5 hPa 0,0 l/m 7,4 km/h (2 Bft) SW 229 0 min 0,000 mm 0,0 UV-I 73 W/m 2,7 C 2,5 C 12,9 km/h (3 Bft) 94,74 %
18.02.2017 10:42 3,4 C 95 % 1026,5 hPa 0,0 l/m 7,1 km/h (2 Bft) W-SW 238 0 min 0,000 mm 0,0 UV-I 65 W/m 2,7 C 2,7 C 11,3 km/h (2 Bft) 96,23 %
18.02.2017 10:44 3,4 C 96 % 1026,5 hPa 0,0 l/m 8,0 km/h (2 Bft) W-SW 238 0 min 0,000 mm 0,0 UV-I 74 W/m 2,8 C 1,9 C 12,9 km/h (3 Bft) 97,37 %
18.02.2017 10:46 3,4 C 96 % 1026,5 hPa 0,0 l/m 8,4 km/h (2 Bft) SW 224 0 min 0,000 mm 0,0 UV-I 74 W/m 2,8 C 1,6 C 12,9 km/h (3 Bft) 94,64 %
18.02.2017 10:48 3,4 C 96 % 1026,6 hPa 0,0 l/m 7,6 km/h (2 Bft) SW 234 0 min 0,000 mm 0,0 UV-I 73 W/m 2,8 C 2,3 C 12,9 km/h (3 Bft) 94,74 %
18.02.2017 10:50 3,4 C 96 % 1026,6 hPa 0,0 l/m 8,6 km/h (2 Bft) W-SW 249 0 min 0,000 mm 0,0 UV-I 77 W/m 2,8 C 1,4 C 12,9 km/h (3 Bft) 98,04 %
18.02.2017 10:52 3,5 C 96 % 1026,6 hPa 0,0 l/m 6,2 km/h (2 Bft) W-SW 248 0 min 0,000 mm 0,0 UV-I 78 W/m 2,9 C 3,5 C 9,7 km/h (2 Bft) 96,00 %
18.02.2017 10:54 3,5 C 96 % 1026,6 hPa 0,0 l/m 7,5 km/h (2 Bft) W 261 0 min 0,000 mm 0,0 UV-I 83 W/m 2,9 C 2,5 C 12,9 km/h (3 Bft) 94,87 %
18.02.2017 10:56 3,6 C 95 % 1026,6 hPa 0,0 l/m 7,7 km/h (2 Bft) SW 235 0 min 0,000 mm 0,0 UV-I 88 W/m 2,9 C 2,4 C 12,9 km/h (3 Bft) 96,36 %
18.02.2017 10:58 3,6 C 95 % 1026,6 hPa 0,0 l/m 6,8 km/h (2 Bft) SW 229 0 min 0,000 mm 0,0 UV-I 90 W/m 2,9 C 3,2 C 9,7 km/h (2 Bft) 97,62 %
18.02.2017 11:00 3,6 C 95 % 1026,6 hPa 0,0 l/m 7,6 km/h (2 Bft) SW 220 0 min 0,000 mm 0,0 UV-I 98 W/m 2,9 C 2,5 C 11,3 km/h (2 Bft) 94,34 %
18.02.2017 11:02 3,6 C 95 % 1026,6 hPa 0,0 l/m 10,2 km/h (2 Bft) SW 234 0 min 0,025 mm 0,0 UV-I 94 W/m 2,9 C 0,4 C 14,5 km/h (3 Bft) 90,91 %
18.02.2017 11:04 3,7 C 95 % 1026,7 hPa 0,0 l/m 8,4 km/h (2 Bft) SW 232 0 min 0,000 mm 0,0 UV-I 91 W/m 3,0 C 1,9 C 12,9 km/h (3 Bft) 91,49 %
18.02.2017 11:06 3,7 C 95 % 1026,7 hPa 0,0 l/m 7,6 km/h (2 Bft) SW 221 0 min 0,000 mm 0,0 UV-I 93 W/m 3,0 C 2,6 C 11,3 km/h (2 Bft) 94,00 %
18.02.2017 11:08 3,7 C 95 % 1026,7 hPa 0,0 l/m 9,2 km/h (2 Bft) W-SW 242 0 min 0,000 mm 0,0 UV-I 94 W/m 3,0 C 1,2 C 14,5 km/h (3 Bft) 92,00 %
18.02.2017 11:10 3,7 C 95 % 1026,7 hPa 0,0 l/m 8,2 km/h (2 Bft) SW 223 0 min 0,000 mm 0,0 UV-I 92 W/m 3,0 C 2,1 C 12,9 km/h (3 Bft) 94,74 %
18.02.2017 11:12 3,8 C 95 % 1026,7 hPa 0,0 l/m 8,4 km/h (2 Bft) W 267 0 min 0,000 mm 0,0 UV-I 90 W/m 3,1 C 2,0 C 12,9 km/h (3 Bft) 94,00 %
18.02.2017 11:14 3,8 C 95 % 1026,7 hPa 0,0 l/m 6,8 km/h (2 Bft) SW 233 0 min 0,000 mm 0,0 UV-I 86 W/m 3,1 C 3,4 C 9,7 km/h (2 Bft) 92,11 %
18.02.2017 11:16 3,8 C 95 % 1026,7 hPa 0,0 l/m 8,9 km/h (2 Bft) SW 223 0 min 0,000 mm 0,0 UV-I 88 W/m 3,1 C 1,6 C 14,5 km/h (3 Bft) 96,00 %
18.02.2017 11:18 3,8 C 95 % 1026,7 hPa 0,0 l/m 7,1 km/h (2 Bft) S-SW 202 0 min 0,000 mm 0,0 UV-I 90 W/m 3,1 C 3,2 C 9,7 km/h (2 Bft) 91,49 %
18.02.2017 11:20 3,8 C 95 % 1026,7 hPa 0,0 l/m 7,3 km/h (2 Bft) SW 234 0 min 0,000 mm 0,0 UV-I 80 W/m 3,1 C 3,0 C 14,5 km/h (3 Bft) 96,00 %
18.02.2017 11:22 3,8 C 95 % 1026,8 hPa 0,0 l/m 8,9 km/h (2 Bft) SW 223 0 min 0,000 mm 0,0 UV-I 63 W/m 3,1 C 1,6 C 12,9 km/h (3 Bft) 92,68 %
18.02.2017 11:24 3,8 C 95 % 1026,8 hPa 0,0 l/m 8,3 km/h (2 Bft) SW 222 0 min 0,000 mm 0,0 UV-I 60 W/m 3,1 C 2,1 C 12,9 km/h (3 Bft) 90,57 %
18.02.2017 11:26 3,8 C 95 % 1026,8 hPa 0,0 l/m 7,7 km/h (2 Bft) W-SW 240 0 min 0,000 mm 0,0 UV-I 62 W/m 3,1 C 2,6 C 12,9 km/h (3 Bft) 94,00 %
18.02.2017 11:28 3,8 C 95 % 1026,8 hPa 0,0 l/m 6,8 km/h (2 Bft) SW 234 0 min 0,000 mm 0,0 UV-I 73 W/m 3,1 C 3,4 C 9,7 km/h (2 Bft) 92,00 %
18.02.2017 11:30 3,8 C 95 % 1026,8 hPa 0,0 l/m 7,8 km/h (2 Bft) SW 231 0 min 0,000 mm 0,0 UV-I 80 W/m 3,1 C 2,5 C 11,3 km/h (2 Bft) 89,47 %
18.02.2017 11:32 3,8 C 95 % 1026,8 hPa 0,0 l/m 6,0 km/h (2 Bft) W-SW 254 0 min 0,000 mm 0,0 UV-I 90 W/m 3,1 C 3,8 C 9,7 km/h (2 Bft) 90,57 %
18.02.2017 11:34 3,9 C 95 % 1026,8 hPa 0,0 l/m 4,9 km/h (1 Bft) W-SW 246 0 min 0,000 mm 0,0 UV-I 95 W/m 3,2 C 3,9 C 9,7 km/h (2 Bft) 92,00 %
18.02.2017 11:36 3,9 C 95 % 1026,8 hPa 0,0 l/m 3,4 km/h (1 Bft) W 265 0 min 0,000 mm 0,0 UV-I 82 W/m 3,2 C 3,9 C 6,4 km/h (2 Bft) 89,74 %
18.02.2017 11:38 3,9 C 95 % 1026,8 hPa 0,0 l/m 6,1 km/h (2 Bft) W-SW 246 0 min 0,000 mm 0,0 UV-I 68 W/m 3,2 C 3,9 C 8,0 km/h (2 Bft) 96,23 %
18.02.2017 11:40 3,9 C 95 % 1026,7 hPa 0,0 l/m 7,3 km/h (2 Bft) W-SW 243 0 min 0,000 mm 0,0 UV-I 64 W/m 3,2 C 3,1 C 11,3 km/h (2 Bft) 95,12 %
18.02.2017 11:42 3,9 C 95 % 1026,8 hPa 0,0 l/m 5,9 km/h (2 Bft) SW 226 0 min 0,000 mm 0,0 UV-I 66 W/m 3,2 C 3,9 C 8,0 km/h (2 Bft) 95,12 %
18.02.2017 11:44 3,9 C 95 % 1026,8 hPa 0,0 l/m 6,1 km/h (2 Bft) SW 235 0 min 0,000 mm 0,0 UV-I 63 W/m 3,2 C 3,9 C 9,7 km/h (2 Bft) 98,00 %
18.02.2017 11:46 3,9 C 95 % 1026,8 hPa 0,0 l/m 5,9 km/h (2 Bft) W 265 0 min 0,000 mm 0,0 UV-I 67 W/m 3,2 C 3,9 C 8,0 km/h (2 Bft) 90,00 %
18.02.2017 11:48 3,9 C 95 % 1026,8 hPa 0,0 l/m 6,8 km/h (2 Bft) SW 220 0 min 0,000 mm 0,0 UV-I 75 W/m 3,2 C 3,5 C 11,3 km/h (2 Bft) 97,87 %
18.02.2017 11:50 3,9 C 95 % 1026,7 hPa 0,0 l/m 7,2 km/h (2 Bft) W-SW 246 0 min 0,000 mm 0,0 UV-I 82 W/m 3,2 C 3,2 C 12,9 km/h (3 Bft) 96,00 %
18.02.2017 11:52 3,9 C 95 % 1026,7 hPa 0,0 l/m 7,8 km/h (2 Bft) W-SW 237 0 min 0,000 mm 0,0 UV-I 95 W/m 3,2 C 2,6 C 11,3 km/h (2 Bft) 98,00 %
18.02.2017 11:54 3,9 C 95 % 1026,7 hPa 0,0 l/m 6,4 km/h (2 Bft) SW 219 0 min 0,000 mm 0,0 UV-I 87 W/m 3,2 C 3,9 C 11,3 km/h (2 Bft) 95,12 %
18.02.2017 11:56 3,9 C 95 % 1026,7 hPa 0,0 l/m 6,6 km/h (2 Bft) SW 229 0 min 0,000 mm 0,0 UV-I 83 W/m 3,2 C 3,7 C 9,7 km/h (2 Bft) 97,73 %
18.02.2017 11:58 4,0 C 95 % 1026,6 hPa 0,0 l/m 10,9 km/h (2 Bft) SW 229 0 min 0,000 mm 0,0 UV-I 90 W/m 3,3 C 0,3 C 16,1 km/h (3 Bft) 94,00 %
18.02.2017 12:00 4,0 C 95 % 1026,6 hPa 0,0 l/m 9,3 km/h (2 Bft) W-SW 238 0 min 0,000 mm 0,5 UV-I 115 W/m 3,3 C 1,5 C 12,9 km/h (3 Bft) 97,87 %
18.02.2017 12:02 4,1 C 95 % 1026,6 hPa 0,0 l/m 8,5 km/h (2 Bft) SW 217 0 min 0,026 mm 0,6 UV-I 137 W/m 3,4 C 2,2 C 12,9 km/h (3 Bft) 98,00 %
18.02.2017 12:04 4,1 C 95 % 1026,6 hPa 0,0 l/m 7,5 km/h (2 Bft) W-SW 239 0 min 0,000 mm 0,6 UV-I 147 W/m 3,4 C 3,1 C 12,9 km/h (3 Bft) 95,74 %
18.02.2017 12:06 4,2 C 95 % 1026,6 hPa 0,0 l/m 7,4 km/h (2 Bft) W-SW 242 0 min 0,000 mm 0,6 UV-I 137 W/m 3,5 C 3,3 C 12,9 km/h (3 Bft) 94,00 %
18.02.2017 12:08 4,2 C 95 % 1026,6 hPa 0,0 l/m 8,9 km/h (2 Bft) SW 226 0 min 0,000 mm 0,6 UV-I 139 W/m 3,5 C 2,0 C 14,5 km/h (3 Bft) 100,00 %
18.02.2017 12:10 4,2 C 95 % 1026,7 hPa 0,0 l/m 6,5 km/h (2 Bft) SW 231 0 min 0,000 mm 0,5 UV-I 127 W/m 3,5 C 4,1 C 9,7 km/h (2 Bft) 97,56 %
18.02.2017 12:12 4,3 C 95 % 1026,7 hPa 0,0 l/m 6,6 km/h (2 Bft) SW 224 0 min 0,000 mm 0,3 UV-I 107 W/m 3,6 C 4,1 C 11,3 km/h (2 Bft) 100,00 %
18.02.2017 12:14 4,3 C 95 % 1026,7 hPa 0,0 l/m 6,4 km/h (2 Bft) W-SW 246 0 min 0,000 mm 0,0 UV-I 102 W/m 3,6 C 4,3 C 9,7 km/h (2 Bft) 98,21 %
18.02.2017 12:16 4,3 C 95 % 1026,7 hPa 0,0 l/m 6,1 km/h (2 Bft) S-SW 213 0 min 0,000 mm 0,0 UV-I 108 W/m 3,6 C 4,3 C 11,3 km/h (2 Bft) 100,00 %
18.02.2017 12:18 4,3 C 95 % 1026,7 hPa 0,0 l/m 7,3 km/h (2 Bft) W 259 0 min 0,000 mm 0,3 UV-I 111 W/m 3,6 C 3,5 C 11,3 km/h (2 Bft) 97,92 %
18.02.2017 12:20 4,2 C 95 % 1026,7 hPa 0,0 l/m 9,7 km/h (2 Bft) W-SW 246 0 min 0,000 mm 0,2 UV-I 107 W/m 3,5 C 1,4 C 12,9 km/h (3 Bft) 100,00 %
18.02.2017 12:22 4,3 C 95 % 1026,7 hPa 0,0 l/m 7,9 km/h (2 Bft) W 259 0 min 0,000 mm 0,0 UV-I 98 W/m 3,6 C 3,0 C 11,3 km/h (2 Bft) 98,11 %
18.02.2017 12:24 4,3 C 95 % 1026,7 hPa 0,0 l/m 4,7 km/h (1 Bft) W-SW 245 0 min 0,000 mm 0,0 UV-I 93 W/m 3,6 C 4,3 C 9,7 km/h (2 Bft) 98,00 %
18.02.2017 12:26 4,3 C 95 % 1026,7 hPa 0,0 l/m 6,9 km/h (2 Bft) W 271 0 min 0,000 mm 0,0 UV-I 93 W/m 3,6 C 3,9 C 11,3 km/h (2 Bft) 100,00 %
18.02.2017 12:28 4,3 C 95 % 1026,7 hPa 0,0 l/m 5,6 km/h (1 Bft) W-SW 255 0 min 0,000 mm 0,0 UV-I 96 W/m 3,6 C 4,3 C 9,7 km/h (2 Bft) 98,11 %
18.02.2017 12:30 4,3 C 95 % 1026,7 hPa 0,0 l/m 6,4 km/h (2 Bft) W-SW 254 0 min 0,000 mm 0,2 UV-I 112 W/m 3,6 C 4,3 C 11,3 km/h (2 Bft) 100,00 %
18.02.2017 12:32 4,3 C 95 % 1026,6 hPa 0,0 l/m 5,9 km/h (2 Bft) W 259 0 min 0,000 mm 0,5 UV-I 120 W/m 3,6 C 4,3 C 9,7 km/h (2 Bft) 98,11 %
18.02.2017 12:34 4,4 C 95 % 1026,5 hPa 0,0 l/m 5,0 km/h (1 Bft) W 272 0 min 0,000 mm 0,1 UV-I 105 W/m 3,7 C 4,4 C 11,3 km/h (2 Bft) 100,00 %
18.02.2017 12:36 4,4 C 95 % 1026,5 hPa 0,0 l/m 5,1 km/h (1 Bft) W 267 0 min 0,000 mm 0,0 UV-I 109 W/m 3,7 C 4,4 C 11,3 km/h (2 Bft) 97,37 %
18.02.2017 12:38 4,4 C 95 % 1026,5 hPa 0,0 l/m 7,1 km/h (2 Bft) W-SW 250 0 min 0,000 mm 0,0 UV-I 106 W/m 3,7 C 3,8 C 11,3 km/h (2 Bft) 94,34 %
18.02.2017 12:40 4,4 C 94 % 1026,5 hPa 0,0 l/m 7,3 km/h (2 Bft) W-SW 251 0 min 0,000 mm 0,0 UV-I 97 W/m 3,5 C 3,6 C 11,3 km/h (2 Bft) 97,37 %
18.02.2017 12:42 4,4 C 94 % 1026,4 hPa 0,0 l/m 9,7 km/h (2 Bft) W-NW 294 0 min 0,000 mm 0,0 UV-I 101 W/m 3,5 C 1,6 C 14,5 km/h (3 Bft) 100,00 %
18.02.2017 12:44 4,4 C 94 % 1026,5 hPa 0,0 l/m 7,2 km/h (2 Bft) W-NW 290 0 min 0,000 mm 0,3 UV-I 110 W/m 3,5 C 3,7 C 11,3 km/h (2 Bft) 95,16 %
18.02.2017 12:46 4,4 C 94 % 1026,5 hPa 0,0 l/m 11,9 km/h (2 Bft) W 261 0 min 0,000 mm 0,5 UV-I 122 W/m 3,5 C 0,1 C 19,3 km/h (3 Bft) 97,73 %
18.02.2017 12:48 4,4 C 94 % 1026,4 hPa 0,0 l/m 7,1 km/h (2 Bft) W 267 0 min 0,000 mm 0,5 UV-I 125 W/m 3,5 C 3,8 C 12,9 km/h (3 Bft) 100,00 %
18.02.2017 12:50 4,5 C 94 % 1026,4 hPa 0,0 l/m 7,5 km/h (2 Bft) W-SW 238 0 min 0,000 mm 0,5 UV-I 128 W/m 3,6 C 3,5 C 12,9 km/h (3 Bft) 97,87 %
18.02.2017 12:52 4,5 C 93 % 1026,4 hPa 0,0 l/m 10,2 km/h (2 Bft) W-SW 246 0 min 0,000 mm 0,5 UV-I 120 W/m 3,5 C 1,4 C 16,1 km/h (3 Bft) 100,00 %
18.02.2017 12:54 4,6 C 93 % 1026,3 hPa 0,0 l/m 7,0 km/h (2 Bft) SW 219 0 min 0,000 mm 0,5 UV-I 120 W/m 3,6 C 4,1 C 12,9 km/h (3 Bft) 98,00 %
18.02.2017 12:56 4,6 C 93 % 1026,4 hPa 0,0 l/m 11,5 km/h (2 Bft) W-SW 242 0 min 0,000 mm 0,5 UV-I 122 W/m 3,6 C 0,6 C 16,1 km/h (3 Bft) 100,00 %
18.02.2017 12:58 4,6 C 93 % 1026,3 hPa 0,0 l/m 11,7 km/h (2 Bft) W 281 0 min 0,000 mm 0,5 UV-I 137 W/m 3,6 C 0,5 C 17,7 km/h (3 Bft) 98,21 %
18.02.2017 13:00 4,6 C 93 % 1026,3 hPa 0,0 l/m 8,2 km/h (2 Bft) W-SW 242 0 min 0,050 mm 0,6 UV-I 147 W/m 3,6 C 3,0 C 17,7 km/h (3 Bft) 94,00 %
18.02.2017 13:02 4,6 C 93 % 1026,3 hPa 0,0 l/m 6,1 km/h (2 Bft) W 261 0 min 0,000 mm 0,6 UV-I 156 W/m 3,6 C 4,6 C 11,3 km/h (2 Bft) 97,37 %
18.02.2017 13:04 4,7 C 93 % 1026,3 hPa 0,0 l/m 7,6 km/h (2 Bft) W 262 0 min 0,000 mm 0,6 UV-I 157 W/m 3,7 C 3,6 C 11,3 km/h (2 Bft) 86,00 %
18.02.2017 13:06 4,7 C 93 % 1026,3 hPa 0,0 l/m 9,2 km/h (2 Bft) W 262 0 min 0,000 mm 0,6 UV-I 156 W/m 3,7 C 2,3 C 19,3 km/h (3 Bft) 95,74 %
18.02.2017 13:08 4,7 C 92 % 1026,3 hPa 0,0 l/m 8,9 km/h (2 Bft) W-NW 289 0 min 0,000 mm 0,6 UV-I 162 W/m 3,5 C 2,6 C 14,5 km/h (3 Bft) 92,00 %
18.02.2017 13:10 4,7 C 92 % 1026,3 hPa 0,0 l/m 10,0 km/h (2 Bft) W 259 0 min 0,000 mm 0,6 UV-I 154 W/m 3,5 C 1,7 C 12,9 km/h (3 Bft) 92,11 %
18.02.2017 13:12 4,8 C 92 % 1026,3 hPa 0,0 l/m 7,4 km/h (2 Bft) W-SW 252 0 min 0,000 mm 0,6 UV-I 154 W/m 3,6 C 3,9 C 12,9 km/h (3 Bft) 97,78 %
18.02.2017 13:14 4,8 C 92 % 1026,3 hPa 0,0 l/m 7,9 km/h (2 Bft) W 273 0 min 0,000 mm 0,6 UV-I 156 W/m 3,6 C 3,5 C 12,9 km/h (3 Bft) 92,73 %
18.02.2017 13:16 4,8 C 92 % 1026,3 hPa 0,0 l/m 6,7 km/h (2 Bft) W 259 0 min 0,000 mm 0,6 UV-I 159 W/m 3,6 C 4,6 C 14,5 km/h (3 Bft) 97,73 %
18.02.2017 13:18 4,8 C 92 % 1026,3 hPa 0,0 l/m 11,5 km/h (2 Bft) W-SW 239 0 min 0,000 mm 0,5 UV-I 148 W/m 3,6 C 0,8 C 19,3 km/h (3 Bft) 97,87 %
18.02.2017 13:20 4,8 C 92 % 1026,2 hPa 0,0 l/m 8,3 km/h (2 Bft) W-NW 293 0 min 0,000 mm 0,6 UV-I 157 W/m 3,6 C 3,1 C 14,5 km/h (3 Bft) 95,74 %
18.02.2017 13:22 4,9 C 92 % 1026,2 hPa 0,0 l/m 10,2 km/h (2 Bft) W 263 0 min 0,000 mm 0,7 UV-I 179 W/m 3,7 C 1,8 C 16,1 km/h (3 Bft) 92,00 %
18.02.2017 13:24 4,9 C 92 % 1026,2 hPa 0,0 l/m 10,8 km/h (2 Bft) W-SW 256 0 min 0,000 mm 0,7 UV-I 179 W/m 3,7 C 1,4 C 14,5 km/h (3 Bft) 96,00 %
18.02.2017 13:26 4,9 C 92 % 1026,2 hPa 0,0 l/m 11,7 km/h (2 Bft) W 267 0 min 0,000 mm 0,6 UV-I 179 W/m 3,7 C 0,8 C 17,7 km/h (3 Bft) 95,12 %
18.02.2017 13:28 4,9 C 92 % 1026,1 hPa 0,0 l/m 9,8 km/h (2 Bft) W 269 0 min 0,000 mm 0,7 UV-I 189 W/m 3,7 C 2,1 C 16,1 km/h (3 Bft) 94,00 %
18.02.2017 13:30 5,0 C 92 % 1026,2 hPa 0,0 l/m 11,4 km/h (2 Bft) W-SW 245 0 min 0,000 mm 0,7 UV-I 191 W/m 3,8 C 1,1 C 17,7 km/h (3 Bft) 92,86 %
18.02.2017 13:32 5,0 C 92 % 1026,2 hPa 0,0 l/m 7,3 km/h (2 Bft) SW 218 0 min 0,000 mm 0,7 UV-I 204 W/m 3,8 C 4,2 C 14,5 km/h (3 Bft) 97,87 %
18.02.2017 13:34 5,1 C 91 % 1026,1 hPa 0,0 l/m 8,5 km/h (2 Bft) SW 220 0 min 0,000 mm 0,7 UV-I 204 W/m 3,8 C 3,3 C 14,5 km/h (3 Bft) 91,49 %
18.02.2017 13:36 5,1 C 92 % 1026,1 hPa 0,0 l/m 5,7 km/h (1 Bft) W-NW 298 0 min 0,000 mm 0,7 UV-I 195 W/m 3,9 C 5,1 C 9,7 km/h (2 Bft) 94,00 %
18.02.2017 13:38 5,1 C 91 % 1026,1 hPa 0,0 l/m 7,4 km/h (2 Bft) W 265 0 min 0,000 mm 0,8 UV-I 208 W/m 3,8 C 4,2 C 9,7 km/h (2 Bft) 100,00 %
18.02.2017 13:40 5,2 C 91 % 1026,1 hPa 0,0 l/m 6,3 km/h (2 Bft) W 261 0 min 0,000 mm 0,7 UV-I 210 W/m 3,9 C 5,2 C 11,3 km/h (2 Bft) 98,00 %
18.02.2017 13:42 5,2 C 91 % 1026,0 hPa 0,0 l/m 6,2 km/h (2 Bft) W 263 0 min 0,000 mm 0,8 UV-I 223 W/m 3,9 C 5,2 C 9,7 km/h (2 Bft) 92,68 %
18.02.2017 13:44 5,3 C 91 % 1026,0 hPa 0,0 l/m 9,7 km/h (2 Bft) W 271 0 min 0,000 mm 0,8 UV-I 237 W/m 4,0 C 2,6 C 16,1 km/h (3 Bft) 96,23 %
18.02.2017 13:46 5,3 C 91 % 1026,0 hPa 0,0 l/m 8,2 km/h (2 Bft) W-SW 244 2 min 0,000 mm 0,9 UV-I 263 W/m 4,0 C 3,8 C 12,9 km/h (3 Bft) 100,00 %
18.02.2017 13:48 5,3 C 91 % 1026,0 hPa 0,0 l/m 7,8 km/h (2 Bft) W-SW 255 2 min 0,000 mm 0,8 UV-I 263 W/m 4,0 C 4,1 C 14,5 km/h (3 Bft) 96,00 %
18.02.2017 13:50 5,4 C 91 % 1025,9 hPa 0,0 l/m 10,8 km/h (2 Bft) W-NW 292 2 min 0,000 mm 0,8 UV-I 267 W/m 4,1 C 2,0 C 14,5 km/h (3 Bft) 92,68 %
18.02.2017 13:52 5,4 C 90 % 1025,9 hPa 0,0 l/m 7,5 km/h (2 Bft) SW 232 0 min 0,000 mm 0,7 UV-I 226 W/m 3,9 C 4,4 C 12,9 km/h (3 Bft) 94,00 %
18.02.2017 13:54 5,4 C 90 % 1025,9 hPa 0,0 l/m 8,9 km/h (2 Bft) W-SW 255 0 min 0,000 mm 0,7 UV-I 226 W/m 3,9 C 3,3 C 12,9 km/h (3 Bft) 98,21 %
18.02.2017 13:56 5,4 C 90 % 1025,9 hPa 0,0 l/m 9,1 km/h (2 Bft) W-SW 242 0 min 0,000 mm 0,7 UV-I 226 W/m 3,9 C 3,2 C 14,5 km/h (3 Bft) 94,74 %
18.02.2017 13:58 5,4 C 90 % 1025,9 hPa 0,0 l/m 11,0 km/h (2 Bft) W-SW 256 0 min 0,000 mm 0,7 UV-I 221 W/m 3,9 C 1,8 C 16,1 km/h (3 Bft) 98,00 %
18.02.2017 14:00 5,4 C 90 % 1025,9 hPa 0,0 l/m 11,7 km/h (2 Bft) W 263 0 min 0,000 mm 0,6 UV-I 195 W/m 3,9 C 1,4 C 17,7 km/h (3 Bft) 98,00 %
18.02.2017 14:02 5,5 C 90 % 1025,9 hPa 0,0 l/m 10,6 km/h (2 Bft) W-SW 248 0 min 0,077 mm 0,6 UV-I 200 W/m 4,0 C 2,2 C 16,1 km/h (3 Bft) 89,36 %
18.02.2017 14:04 5,4 C 89 % 1025,8 hPa 0,0 l/m 12,0 km/h (2 Bft) W-SW 245 0 min 0,000 mm 0,6 UV-I 218 W/m 3,7 C 1,2 C 16,1 km/h (3 Bft) 100,00 %
18.02.2017 14:06 5,5 C 89 % 1025,9 hPa 0,0 l/m 9,3 km/h (2 Bft) W 259 0 min 0,000 mm 0,6 UV-I 225 W/m 3,8 C 3,1 C 14,5 km/h (3 Bft) 98,00 %
18.02.2017 14:08 5,5 C 89 % 1025,8 hPa 0,0 l/m 10,5 km/h (2 Bft) SW 217 0 min 0,000 mm 0,6 UV-I 219 W/m 3,8 C 2,3 C 17,7 km/h (3 Bft) 93,18 %
18.02.2017 14:10 5,4 C 90 % 1025,8 hPa 0,0 l/m 9,6 km/h (2 Bft) S-SW 192 0 min 0,000 mm 0,6 UV-I 195 W/m 3,9 C 2,8 C 17,7 km/h (3 Bft) 97,87 %
18.02.2017 14:12 5,3 C 90 % 1025,8 hPa 0,0 l/m 9,9 km/h (2 Bft) W-SW 243 0 min 0,000 mm 0,5 UV-I 180 W/m 3,8 C 2,5 C 16,1 km/h (3 Bft) 100,00 %
18.02.2017 14:14 5,3 C 91 % 1025,8 hPa 0,0 l/m 10,8 km/h (2 Bft) SW 225 0 min 0,000 mm 0,5 UV-I 171 W/m 4,0 C 1,9 C 16,1 km/h (3 Bft) 95,24 %
18.02.2017 14:16 5,2 C 91 % 1025,8 hPa 0,0 l/m 10,8 km/h (2 Bft) SW 225 0 min 0,000 mm 0,5 UV-I 173 W/m 3,9 C 1,7 C 17,7 km/h (3 Bft) 96,00 %
18.02.2017 14:18 5,2 C 91 % 1025,8 hPa 0,0 l/m 9,4 km/h (2 Bft) SW 235 0 min 0,000 mm 0,3 UV-I 150 W/m 3,9 C 2,7 C 14,5 km/h (3 Bft) 90,24 %
18.02.2017 14:20 5,2 C 91 % 1025,8 hPa 0,0 l/m 7,3 km/h (2 Bft) SW 219 0 min 0,000 mm 0,4 UV-I 168 W/m 3,9 C 4,4 C 14,5 km/h (3 Bft) 94,92 %
18.02.2017 14:22 5,2 C 91 % 1025,7 hPa 0,0 l/m 7,5 km/h (2 Bft) W-SW 243 0 min 0,000 mm 0,5 UV-I 183 W/m 3,9 C 4,2 C 14,5 km/h (3 Bft) 97,37 %
18.02.2017 14:24 5,2 C 91 % 1025,8 hPa 0,0 l/m 7,8 km/h (2 Bft) S-SW 210 0 min 0,000 mm 0,5 UV-I 165 W/m 3,9 C 4,0 C 12,9 km/h (3 Bft) 95,45 %
18.02.2017 14:26 5,2 C 91 % 1025,8 hPa 0,0 l/m 9,9 km/h (2 Bft) SW 227 0 min 0,000 mm 0,5 UV-I 169 W/m 3,9 C 2,4 C 17,7 km/h (3 Bft) 100,00 %
18.02.2017 14:28 5,2 C 91 % 1025,8 hPa 0,0 l/m 10,5 km/h (2 Bft) S-SW 205 0 min 0,000 mm 0,5 UV-I 178 W/m 3,9 C 1,9 C 14,5 km/h (3 Bft) 93,62 %
18.02.2017 14:30 5,2 C 91 % 1025,8 hPa 0,0 l/m 9,5 km/h (2 Bft) S 171 0 min 0,000 mm 0,5 UV-I 179 W/m 3,9 C 2,7 C 12,9 km/h (3 Bft) 93,62 %
18.02.2017 14:32 5,2 C 91 % 1025,8 hPa 0,0 l/m 7,4 km/h (2 Bft) S-SW 211 0 min 0,000 mm 0,5 UV-I 172 W/m 3,9 C 4,3 C 14,5 km/h (3 Bft) 97,14 %
18.02.2017 14:34 5,3 C 91 % 1025,8 hPa 0,0 l/m 9,5 km/h (2 Bft) W-SW 238 0 min 0,000 mm 0,0 UV-I 148 W/m 4,0 C 2,8 C 14,5 km/h (3 Bft) 100,00 %
18.02.2017 14:36 5,3 C 91 % 1025,8 hPa 0,0 l/m 10,4 km/h (2 Bft) SW 234 0 min 0,000 mm 0,0 UV-I 131 W/m 4,0 C 2,1 C 16,1 km/h (3 Bft) 100,00 %
18.02.2017 14:38 5,3 C 90 % 1025,8 hPa 0,0 l/m 10,0 km/h (2 Bft) SW 217 0 min 0,000 mm 0,0 UV-I 130 W/m 3,8 C 2,4 C 16,1 km/h (3 Bft) 96,23 %
18.02.2017 14:40 5,2 C 90 % 1025,8 hPa 0,0 l/m 8,8 km/h (2 Bft) W-SW 253 0 min 0,000 mm 0,0 UV-I 137 W/m 3,7 C 3,2 C 12,9 km/h (3 Bft) 94,74 %
18.02.2017 14:43 5,2 C 91 % 1025,8 hPa 0,0 l/m 8,3 km/h (2 Bft) SW 225 0 min 0,000 mm 0,0 UV-I 149 W/m 3,9 C 3,6 C 16,1 km/h (3 Bft) 97,40 %
18.02.2017 14:44 5,2 C 91 % 1025,8 hPa 0,0 l/m 5,4 km/h (1 Bft) SW 214 0 min 0,000 mm 0,0 UV-I 149 W/m 3,9 C 5,2 C 9,7 km/h (2 Bft) 95,65 %
18.02.2017 14:46 5,2 C 90 % 1025,8 hPa 0,0 l/m 8,5 km/h (2 Bft) SW 227 0 min 0,000 mm 0,0 UV-I 136 W/m 3,7 C 3,4 C 12,9 km/h (3 Bft) 97,56 %
18.02.2017 14:48 5,3 C 91 % 1025,8 hPa 0,0 l/m 7,2 km/h (2 Bft) S-SW 204 0 min 0,000 mm 0,0 UV-I 125 W/m 4,0 C 4,6 C 11,3 km/h (2 Bft) 96,30 %
18.02.2017 14:50 5,2 C 91 % 1025,8 hPa 0,0 l/m 8,2 km/h (2 Bft) W-SW 241 0 min 0,000 mm 0,0 UV-I 128 W/m 3,9 C 3,6 C 12,9 km/h (3 Bft) 98,68 %
18.02.2017 14:52 5,3 C 91 % 1025,8 hPa 0,0 l/m 8,6 km/h (2 Bft) SW 232 0 min 0,000 mm 0,0 UV-I 130 W/m 4,0 C 3,4 C 14,5 km/h (3 Bft) 89,36 %
18.02.2017 14:54 5,2 C 91 % 1025,8 hPa 0,0 l/m 7,6 km/h (2 Bft) SW 236 0 min 0,000 mm 0,0 UV-I 134 W/m 3,9 C 4,1 C 12,9 km/h (3 Bft) 100,00 %
18.02.2017 14:56 5,3 C 90 % 1025,8 hPa 0,0 l/m 11,0 km/h (2 Bft) SW 217 0 min 0,000 mm 0,0 UV-I 129 W/m 3,8 C 1,7 C 16,1 km/h (3 Bft) 92,86 %
18.02.2017 14:58 5,2 C 90 % 1025,8 hPa 0,0 l/m 8,2 km/h (2 Bft) W-SW 242 0 min 0,000 mm 0,0 UV-I 122 W/m 3,7 C 3,6 C 12,9 km/h (3 Bft) 94,00 %
18.02.2017 15:00 5,2 C 91 % 1025,8 hPa 0,0 l/m 8,2 km/h (2 Bft) SW 221 0 min 0,000 mm 0,0 UV-I 108 W/m 3,9 C 3,6 C 12,9 km/h (3 Bft) 92,45 %
18.02.2017 15:02 5,2 C 90 % 1025,8 hPa 0,0 l/m 7,6 km/h (2 Bft) W-SW 245 0 min 0,076 mm 0,0 UV-I 98 W/m 3,7 C 4,1 C 11,3 km/h (2 Bft) 92,68 %
18.02.2017 15:04 5,2 C 90 % 1025,8 hPa 0,0 l/m 6,0 km/h (2 Bft) SW 217 0 min 0,000 mm 0,0 UV-I 95 W/m 3,7 C 5,2 C 11,3 km/h (2 Bft) 93,62 %
18.02.2017 15:06 5,2 C 90 % 1025,8 hPa 0,0 l/m 6,1 km/h (2 Bft) W-SW 244 0 min 0,000 mm 0,0 UV-I 86 W/m 3,7 C 5,2 C 9,7 km/h (2 Bft) 96,00 %
18.02.2017 15:08 5,2 C 90 % 1025,9 hPa 0,0 l/m 5,9 km/h (2 Bft) W-SW 246 0 min 0,000 mm 0,0 UV-I 75 W/m 3,7 C 5,2 C 8,0 km/h (2 Bft) 92,68 %
18.02.2017 15:10 5,2 C 91 % 1025,9 hPa 0,0 l/m 6,4 km/h (2 Bft) W-SW 249 0 min 0,000 mm 0,0 UV-I 66 W/m 3,9 C 5,2 C 9,7 km/h (2 Bft) 87,80 %
18.02.2017 15:12 5,2 C 91 % 1025,9 hPa 0,0 l/m 4,7 km/h (1 Bft) W-SW 244 0 min 0,000 mm 0,0 UV-I 59 W/m 3,9 C 5,2 C 8,0 km/h (2 Bft) 92,86 %
18.02.2017 15:14 5,2 C 91 % 1025,9 hPa 0,0 l/m 4,7 km/h (1 Bft) W-SW 257 0 min 0,000 mm 0,0 UV-I 48 W/m 3,9 C 5,2 C 8,0 km/h (2 Bft) 94,34 %
18.02.2017 15:16 5,1 C 91 % 1025,9 hPa 0,0 l/m 5,5 km/h (1 Bft) SW 229 0 min 0,000 mm 0,0 UV-I 44 W/m 3,8 C 5,1 C 8,0 km/h (2 Bft) 97,37 %
18.02.2017 15:18 5,1 C 91 % 1025,9 hPa 0,0 l/m 4,7 km/h (1 Bft) W-SW 248 0 min 0,000 mm 0,0 UV-I 43 W/m 3,8 C 5,1 C 6,4 km/h (2 Bft) 92,45 %
18.02.2017 15:20 5,1 C 91 % 1025,9 hPa 0,0 l/m 4,8 km/h (1 Bft) SW 224 0 min 0,000 mm 0,0 UV-I 39 W/m 3,8 C 5,1 C 6,4 km/h (2 Bft) 97,56 %
18.02.2017 15:22 5,1 C 91 % 1025,9 hPa 0,0 l/m 6,9 km/h (2 Bft) SW 227 0 min 0,000 mm 0,0 UV-I 34 W/m 3,8 C 4,7 C 11,3 km/h (2 Bft) 96,43 %
18.02.2017 15:24 5,1 C 91 % 1025,9 hPa 0,0 l/m 5,8 km/h (2 Bft) W 261 0 min 0,000 mm 0,0 UV-I 29 W/m 3,8 C 5,1 C 8,0 km/h (2 Bft) 97,14 %
18.02.2017 15:26 5,0 C 91 % 1025,9 hPa 0,0 l/m 5,4 km/h (1 Bft) W-SW 239 0 min 0,000 mm 0,0 UV-I 27 W/m 3,7 C 5,0 C 8,0 km/h (2 Bft) 94,64 %
18.02.2017 15:28 5,0 C 91 % 1025,9 hPa 0,0 l/m 5,1 km/h (1 Bft) W 260 0 min 0,000 mm 0,0 UV-I 26 W/m 3,7 C 5,0 C 9,7 km/h (2 Bft) 91,49 %
18.02.2017 15:30 4,9 C 91 % 1026,0 hPa 0,0 l/m 5,1 km/h (1 Bft) W-SW 248 0 min 0,000 mm 0,0 UV-I 26 W/m 3,6 C 4,9 C 8,0 km/h (2 Bft) 93,62 %
18.02.2017 15:32 4,9 C 91 % 1026,0 hPa 0,0 l/m 4,8 km/h (1 Bft) W-SW 245 0 min 0,000 mm 0,0 UV-I 26 W/m 3,6 C 4,9 C 8,0 km/h (2 Bft) 88,89 %
18.02.2017 15:34 4,9 C 91 % 1025,9 hPa 0,0 l/m 4,9 km/h (1 Bft) W-SW 255 0 min 0,000 mm 0,0 UV-I 27 W/m 3,6 C 4,9 C 8,0 km/h (2 Bft) 94,00 %
18.02.2017 15:36 4,9 C 91 % 1026,0 hPa 0,0 l/m 5,6 km/h (1 Bft) W-SW 248 0 min 0,000 mm 0,0 UV-I 28 W/m 3,6 C 4,9 C 9,7 km/h (2 Bft) 98,00 %
18.02.2017 15:38 4,8 C 91 % 1026,0 hPa 0,0 l/m 6,1 km/h (2 Bft) W-SW 253 0 min 0,000 mm 0,0 UV-I 29 W/m 3,5 C 4,8 C 8,0 km/h (2 Bft) 95,74 %
18.02.2017 15:40 4,8 C 92 % 1025,9 hPa 0,0 l/m 4,1 km/h (1 Bft) W-SW 254 0 min 0,000 mm 0,0 UV-I 31 W/m 3,6 C 4,8 C 4,8 km/h (1 Bft) 97,87 %
18.02.2017 15:42 4,8 C 92 % 1026,0 hPa 0,0 l/m 4,0 km/h (1 Bft) W-SW 255 0 min 0,000 mm 0,0 UV-I 32 W/m 3,6 C 4,8 C 6,4 km/h (2 Bft) 98,00 %
18.02.2017 15:44 4,8 C 92 % 1026,0 hPa 0,0 l/m 5,6 km/h (1 Bft) W-SW 257 0 min 0,000 mm 0,0 UV-I 34 W/m 3,6 C 4,8 C 6,4 km/h (2 Bft) 100,00 %
18.02.2017 15:46 4,8 C 92 % 1026,0 hPa 0,0 l/m 5,0 km/h (1 Bft) W 267 0 min 0,000 mm 0,0 UV-I 35 W/m 3,6 C 4,8 C 6,4 km/h (2 Bft) 95,74 %
18.02.2017 15:48 4,7 C 92 % 1026,0 hPa 0,0 l/m 5,1 km/h (1 Bft) W 260 0 min 0,000 mm 0,0 UV-I 35 W/m 3,5 C 4,7 C 6,4 km/h (2 Bft) 100,00 %
18.02.2017 15:50 4,7 C 92 % 1026,0 hPa 0,0 l/m 4,1 km/h (1 Bft) W 280 0 min 0,000 mm 0,0 UV-I 35 W/m 3,5 C 4,7 C 6,4 km/h (2 Bft) 98,11 %
18.02.2017 15:52 4,7 C 92 % 1026,0 hPa 0,0 l/m 4,0 km/h (1 Bft) W 280 0 min 0,000 mm 0,0 UV-I 35 W/m 3,5 C 4,7 C 4,8 km/h (1 Bft) 95,74 %
18.02.2017 15:54 4,7 C 93 % 1026,0 hPa 0,0 l/m 4,2 km/h (1 Bft) W-SW 257 0 min 0,000 mm 0,0 UV-I 33 W/m 3,7 C 4,7 C 6,4 km/h (2 Bft) 100,00 %
18.02.2017 15:56 4,7 C 93 % 1026,0 hPa 0,0 l/m 4,3 km/h (1 Bft) W 261 0 min 0,000 mm 0,0 UV-I 34 W/m 3,7 C 4,7 C 4,8 km/h (1 Bft) 97,56 %
18.02.2017 15:58 4,7 C 93 % 1026,0 hPa 0,0 l/m 3,6 km/h (1 Bft) W 261 0 min 0,000 mm 0,0 UV-I 37 W/m 3,7 C 4,7 C 4,8 km/h (1 Bft) 98,11 %
18.02.2017 16:00 4,7 C 93 % 1026,0 hPa 0,0 l/m 3,8 km/h (1 Bft) W 261 0 min 0,025 mm 0,0 UV-I 36 W/m 3,7 C 4,7 C 6,4 km/h (2 Bft) 98,00 %
18.02.2017 16:02 4,6 C 93 % 1026,0 hPa 0,0 l/m 3,7 km/h (1 Bft) W 261 0 min 0,000 mm 0,0 UV-I 34 W/m 3,6 C 4,6 C 4,8 km/h (1 Bft) 100,00 %
18.02.2017 16:04 4,6 C 93 % 1026,0 hPa 0,0 l/m 4,1 km/h (1 Bft) W 261 0 min 0,000 mm 0,0 UV-I 33 W/m 3,6 C 4,6 C 6,4 km/h (2 Bft) 98,44 %
18.02.2017 16:06 4,6 C 93 % 1026,0 hPa 0,0 l/m 3,7 km/h (1 Bft) W 261 0 min 0,000 mm 0,0 UV-I 33 W/m 3,6 C 4,6 C 4,8 km/h (1 Bft) 100,00 %
18.02.2017 16:08 4,6 C 92 % 1026,0 hPa 0,0 l/m 3,5 km/h (1 Bft) W 261 0 min 0,000 mm 0,0 UV-I 34 W/m 3,4 C 4,6 C 4,8 km/h (1 Bft) 97,87 %
18.02.2017 16:10 4,6 C 92 % 1026,1 hPa 0,0 l/m 2,8 km/h (1 Bft) W 261 0 min 0,000 mm 0,0 UV-I 33 W/m 3,4 C 4,6 C 4,8 km/h (1 Bft) 96,00 %
18.02.2017 16:12 4,6 C 92 % 1026,0 hPa 0,0 l/m 2,0 km/h (1 Bft) W 261 0 min 0,000 mm 0,0 UV-I 33 W/m 3,4 C 4,6 C 3,2 km/h (1 Bft) 97,30 %
18.02.2017 16:14 4,6 C 93 % 1026,0 hPa 0,0 l/m 3,2 km/h (1 Bft) W 261 0 min 0,000 mm 0,0 UV-I 33 W/m 3,6 C 4,6 C 4,8 km/h (1 Bft) 100,00 %
18.02.2017 16:16 4,6 C 93 % 1026,1 hPa 0,0 l/m 3,9 km/h (1 Bft) W-SW 254 0 min 0,000 mm 0,0 UV-I 32 W/m 3,6 C 4,6 C 6,4 km/h (2 Bft) 100,00 %
18.02.2017 16:18 4,6 C 92 % 1026,0 hPa 0,0 l/m 4,2 km/h (1 Bft) W-SW 254 0 min 0,000 mm 0,0 UV-I 32 W/m 3,4 C 4,6 C 6,4 km/h (2 Bft) 97,87 %
18.02.2017 16:20 4,6 C 92 % 1026,0 hPa 0,0 l/m 4,6 km/h (1 Bft) W-SW 254 0 min 0,000 mm 0,0 UV-I 30 W/m 3,4 C 4,6 C 6,4 km/h (2 Bft) 100,00 %
18.02.2017 16:22 4,6 C 92 % 1026,0 hPa 0,0 l/m 4,4 km/h (1 Bft) W-SW 245 0 min 0,000 mm 0,0 UV-I 29 W/m 3,4 C 4,6 C 6,4 km/h (2 Bft) 97,37 %
18.02.2017 16:24 4,6 C 92 % 1026,1 hPa 0,0 l/m 6,3 km/h (2 Bft) W-SW 247 0 min 0,000 mm 0,0 UV-I 28 W/m 3,4 C 4,6 C 11,3 km/h (2 Bft) 94,34 %
18.02.2017 16:26 4,6 C 92 % 1026,1 hPa 0,0 l/m 6,2 km/h (2 Bft) W-SW 253 0 min 0,000 mm 0,0 UV-I 28 W/m 3,4 C 4,6 C 9,7 km/h (2 Bft) 100,00 %
18.02.2017 16:28 4,6 C 92 % 1026,0 hPa 0,0 l/m 5,2 km/h (1 Bft) W 279 0 min 0,000 mm 0,0 UV-I 28 W/m 3,4 C 4,6 C 6,4 km/h (2 Bft) 96,00 %
18.02.2017 16:30 4,6 C 91 % 1026,0 hPa 0,0 l/m 4,9 km/h (1 Bft) W-SW 255 0 min 0,000 mm 0,0 UV-I 26 W/m 3,3 C 4,6 C 8,0 km/h (2 Bft) 100,00 %
18.02.2017 16:32 4,5 C 91 % 1026,1 hPa 0,0 l/m 6,0 km/h (2 Bft) W 262 0 min 0,000 mm 0,0 UV-I 24 W/m 3,2 C 4,5 C 8,0 km/h (2 Bft) 97,73 %
18.02.2017 16:34 4,5 C 91 % 1026,0 hPa 0,0 l/m 5,0 km/h (1 Bft) W 262 0 min 0,000 mm 0,0 UV-I 22 W/m 3,2 C 4,5 C 6,4 km/h (2 Bft) 95,74 %
18.02.2017 16:36 4,5 C 91 % 1026,0 hPa 0,0 l/m 5,7 km/h (1 Bft) W 262 0 min 0,000 mm 0,0 UV-I 21 W/m 3,2 C 4,5 C 9,7 km/h (2 Bft) 97,37 %
18.02.2017 16:38 4,4 C 91 % 1026,0 hPa 0,0 l/m 5,8 km/h (2 Bft) W-SW 251 0 min 0,000 mm 0,0 UV-I 21 W/m 3,1 C 4,4 C 9,7 km/h (2 Bft) 100,00 %
18.02.2017 16:40 4,4 C 91 % 1026,0 hPa 0,0 l/m 5,2 km/h (1 Bft) W-SW 244 0 min 0,000 mm 0,0 UV-I 21 W/m 3,1 C 4,4 C 8,0 km/h (2 Bft) 100,00 %
18.02.2017 16:42 4,4 C 91 % 1026,1 hPa 0,0 l/m 3,3 km/h (1 Bft) W-SW 244 0 min 0,000 mm 0,0 UV-I 21 W/m 3,1 C 4,4 C 4,8 km/h (1 Bft) 98,15 %
18.02.2017 16:44 4,4 C 91 % 1026,0 hPa 0,0 l/m 3,9 km/h (1 Bft) W-SW 244 0 min 0,000 mm 0,0 UV-I 21 W/m 3,1 C 4,4 C 4,8 km/h (1 Bft) 98,00 %
18.02.2017 16:46 4,4 C 91 % 1026,1 hPa 0,0 l/m 4,4 km/h (1 Bft) W-SW 242 0 min 0,000 mm 0,0 UV-I 19 W/m 3,1 C 4,4 C 6,4 km/h (2 Bft) 97,67 %
18.02.2017 16:48 4,4 C 92 % 1026,1 hPa 0,0 l/m 4,4 km/h (1 Bft) W-SW 241 0 min 0,000 mm 0,0 UV-I 18 W/m 3,2 C 4,4 C 6,4 km/h (2 Bft) 98,00 %
18.02.2017 16:50 4,4 C 92 % 1026,0 hPa 0,0 l/m 4,3 km/h (1 Bft) W-SW 241 0 min 0,000 mm 0,0 UV-I 18 W/m 3,2 C 4,4 C 6,4 km/h (2 Bft) 97,44 %
18.02.2017 16:52 4,3 C 92 % 1026,1 hPa 0,0 l/m 4,1 km/h (1 Bft) W-SW 249 0 min 0,000 mm 0,0 UV-I 18 W/m 3,1 C 4,3 C 6,4 km/h (2 Bft) 98,00 %
18.02.2017 16:54 4,3 C 92 % 1026,1 hPa 0,0 l/m 3,8 km/h (1 Bft) W-SW 243 0 min 0,000 mm 0,0 UV-I 18 W/m 3,1 C 4,3 C 4,8 km/h (1 Bft) 100,00 %
18.02.2017 16:56 4,3 C 91 % 1026,1 hPa 0,0 l/m 4,4 km/h (1 Bft) W-SW 240 0 min 0,000 mm 0,0 UV-I 18 W/m 3,0 C 4,3 C 6,4 km/h (2 Bft) 98,11 %
18.02.2017 16:58 4,3 C 92 % 1026,1 hPa 0,0 l/m 4,0 km/h (1 Bft) W-SW 238 0 min 0,000 mm 0,0 UV-I 18 W/m 3,1 C 4,3 C 6,4 km/h (2 Bft) 97,56 %
18.02.2017 17:00 4,3 C 92 % 1026,1 hPa 0,0 l/m 4,9 km/h (1 Bft) SW 235 0 min 0,000 mm 0,0 UV-I 18 W/m 3,1 C 4,3 C 8,0 km/h (2 Bft) 98,00 %
18.02.2017 17:02 4,3 C 92 % 1026,1 hPa 0,0 l/m 5,3 km/h (1 Bft) SW 234 0 min 0,026 mm 0,0 UV-I 16 W/m 3,1 C 4,3 C 6,4 km/h (2 Bft) 100,00 %
18.02.2017 17:04 4,2 C 92 % 1026,1 hPa 0,0 l/m 3,1 km/h (1 Bft) SW 234 0 min 0,000 mm 0,0 UV-I 16 W/m 3,0 C 4,2 C 4,8 km/h (1 Bft) 94,74 %
18.02.2017 17:06 4,2 C 92 % 1026,1 hPa 0,0 l/m 2,8 km/h (1 Bft) SW 234 0 min 0,000 mm 0,0 UV-I 14 W/m 3,0 C 4,2 C 4,8 km/h (1 Bft) 89,36 %
18.02.2017 17:08 4,2 C 92 % 1026,1 hPa 0,0 l/m 3,3 km/h (1 Bft) SW 234 0 min 0,000 mm 0,0 UV-I 13 W/m 3,0 C 4,2 C 6,4 km/h (2 Bft) 93,62 %
18.02.2017 17:10 4,2 C 92 % 1026,1 hPa 0,0 l/m 3,6 km/h (1 Bft) SW 234 0 min 0,000 mm 0,0 UV-I 12 W/m 3,0 C 4,2 C 8,0 km/h (2 Bft) 92,45 %
18.02.2017 17:12 4,2 C 92 % 1026,1 hPa 0,0 l/m 4,5 km/h (1 Bft) SW 233 0 min 0,000 mm 0,0 UV-I 12 W/m 3,0 C 4,2 C 8,0 km/h (2 Bft) 96,00 %
18.02.2017 17:14 4,1 C 92 % 1026,1 hPa 0,0 l/m 6,1 km/h (2 Bft) SW 223 0 min 0,000 mm 0,0 UV-I 12 W/m 2,9 C 4,1 C 8,0 km/h (2 Bft) 97,14 %
18.02.2017 17:16 4,1 C 92 % 1026,2 hPa 0,0 l/m 5,7 km/h (1 Bft) SW 230 0 min 0,000 mm 0,0 UV-I 11 W/m 2,9 C 4,1 C 9,7 km/h (2 Bft) 96,00 %
18.02.2017 17:18 4,1 C 92 % 1026,2 hPa 0,0 l/m 5,7 km/h (1 Bft) SW 227 0 min 0,000 mm 0,0 UV-I 11 W/m 2,9 C 4,1 C 8,0 km/h (2 Bft) 94,00 %
18.02.2017 17:20 4,0 C 92 % 1026,2 hPa 0,0 l/m 5,0 km/h (1 Bft) SW 232 2 min 0,000 mm 0,0 UV-I 10 W/m 2,8 C 4,0 C 6,4 km/h (2 Bft) 92,68 %
18.02.2017 17:22 4,0 C 92 % 1026,2 hPa 0,0 l/m 5,9 km/h (2 Bft) W-SW 246 0 min 0,000 mm 0,0 UV-I 9 W/m 2,8 C 4,0 C 8,0 km/h (2 Bft) 98,00 %
18.02.2017 17:24 4,0 C 92 % 1026,2 hPa 0,0 l/m 4,5 km/h (1 Bft) W-SW 247 0 min 0,000 mm 0,0 UV-I 7 W/m 2,8 C 4,0 C 8,0 km/h (2 Bft) 96,15 %
18.02.2017 17:26 3,9 C 92 % 1026,2 hPa 0,0 l/m 4,7 km/h (1 Bft) SW 229 0 min 0,000 mm 0,0 UV-I 7 W/m 2,7 C 3,9 C 6,4 km/h (2 Bft) 94,03 %
18.02.2017 17:28 3,9 C 92 % 1026,2 hPa 0,0 l/m 5,0 km/h (1 Bft) SW 233 0 min 0,000 mm 0,0 UV-I 7 W/m 2,7 C 3,9 C 6,4 km/h (2 Bft) 92,00 %
18.02.2017 17:30 3,9 C 92 % 1026,2 hPa 0,0 l/m 4,2 km/h (1 Bft) SW 233 0 min 0,000 mm 0,0 UV-I 6 W/m 2,7 C 3,9 C 4,8 km/h (1 Bft) 97,87 %
18.02.2017 17:32 3,9 C 93 % 1026,2 hPa 0,0 l/m 4,5 km/h (1 Bft) SW 233 0 min 0,000 mm 0,0 UV-I 5 W/m 2,9 C 3,9 C 6,4 km/h (2 Bft) 96,00 %
18.02.2017 17:34 3,8 C 92 % 1026,2 hPa 0,0 l/m 4,2 km/h (1 Bft) SW 227 0 min 0,000 mm 0,0 UV-I 5 W/m 2,6 C 3,8 C 6,4 km/h (2 Bft) 87,18 %
18.02.2017 17:36 3,8 C 93 % 1026,3 hPa 0,0 l/m 4,6 km/h (1 Bft) SW 227 0 min 0,000 mm 0,0 UV-I 5 W/m 2,8 C 3,8 C 6,4 km/h (2 Bft) 96,00 %
18.02.2017 17:38 3,8 C 93 % 1026,3 hPa 0,0 l/m 4,8 km/h (1 Bft) SW 223 0 min 0,000 mm 0,0 UV-I 5 W/m 2,8 C 3,8 C 6,4 km/h (2 Bft) 96,00 %
18.02.2017 17:40 3,8 C 93 % 1026,3 hPa 0,0 l/m 3,6 km/h (1 Bft) SW 223 0 min 0,000 mm 0,0 UV-I 0 W/m 2,8 C 3,8 C 6,4 km/h (2 Bft) 91,49 %
18.02.2017 17:42 3,8 C 93 % 1026,4 hPa 0,0 l/m 4,1 km/h (1 Bft) SW 223 0 min 0,000 mm 0,0 UV-I 0 W/m 2,8 C 3,8 C 8,0 km/h (2 Bft) 93,62 %
18.02.2017 17:44 3,8 C 93 % 1026,4 hPa 0,0 l/m 3,9 km/h (1 Bft) SW 223 0 min 0,000 mm 0,0 UV-I 0 W/m 2,8 C 3,8 C 6,4 km/h (2 Bft) 95,74 %
18.02.2017 17:46 3,8 C 93 % 1026,4 hPa 0,0 l/m 4,7 km/h (1 Bft) SW 223 0 min 0,000 mm 0,0 UV-I 0 W/m 2,8 C 3,8 C 6,4 km/h (2 Bft) 95,12 %
18.02.2017 17:49 3,7 C 93 % 1026,4 hPa 0,0 l/m 4,2 km/h (1 Bft) SW 225 0 min 0,000 mm 0,0 UV-I 0 W/m 2,7 C 3,7 C 6,4 km/h (2 Bft) 94,37 %
18.02.2017 17:50 3,7 C 93 % 1026,4 hPa 0,0 l/m 3,1 km/h (1 Bft) SW 225 0 min 0,000 mm 0,0 UV-I 0 W/m 2,7 C 3,7 C 3,2 km/h (1 Bft) 91,30 %
18.02.2017 17:52 3,7 C 93 % 1026,4 hPa 0,0 l/m 2,9 km/h (1 Bft) SW 225 0 min 0,000 mm 0,0 UV-I 0 W/m 2,7 C 3,7 C 4,8 km/h (1 Bft) 94,00 %
18.02.2017 17:54 3,7 C 93 % 1026,5 hPa 0,0 l/m 4,2 km/h (1 Bft) SW 226 0 min 0,000 mm 0,0 UV-I 0 W/m 2,7 C 3,7 C 6,4 km/h (2 Bft) 95,12 %
18.02.2017 17:56 3,6 C 94 % 1026,4 hPa 0,0 l/m 4,3 km/h (1 Bft) SW 227 0 min 0,000 mm 0,0 UV-I 0 W/m 2,7 C 3,6 C 8,0 km/h (2 Bft) 92,00 %
18.02.2017 17:58 3,6 C 94 % 1026,4 hPa 0,0 l/m 4,6 km/h (1 Bft) SW 227 0 min 0,000 mm 0,0 UV-I 0 W/m 2,7 C 3,6 C 6,4 km/h (2 Bft) 97,87 %
18.02.2017 18:00 3,6 C 94 % 1026,4 hPa 0,0 l/m 4,8 km/h (1 Bft) SW 227 0 min 0,000 mm 0,0 UV-I 0 W/m 2,7 C 3,6 C 6,4 km/h (2 Bft) 97,96 %
18.02.2017 18:03 3,6 C 94 % 1026,5 hPa 0,0 l/m 4,3 km/h (1 Bft) SW 227 0 min 0,000 mm 0,0 UV-I 0 W/m 2,7 C 3,6 C 6,4 km/h (2 Bft) 97,18 %
18.02.2017 18:04 3,6 C 94 % 1026,5 hPa 0,0 l/m 4,7 km/h (1 Bft) SW 227 0 min 0,000 mm 0,0 UV-I 0 W/m 2,7 C 3,6 C 6,4 km/h (2 Bft) 100,00 %
18.02.2017 18:06 3,6 C 94 % 1026,5 hPa 0,0 l/m 4,5 km/h (1 Bft) SW 227 0 min 0,000 mm 0,0 UV-I 0 W/m 2,7 C 3,6 C 6,4 km/h (2 Bft) 94,87 %
18.02.2017 18:08 3,5 C 94 % 1026,5 hPa 0,0 l/m 5,0 km/h (1 Bft) SW 229 0 min 0,000 mm 0,0 UV-I 0 W/m 2,6 C 3,5 C 6,4 km/h (2 Bft) 95,92 %
18.02.2017 18:10 3,5 C 94 % 1026,5 hPa 0,0 l/m 4,1 km/h (1 Bft) SW 229 0 min 0,000 mm 0,0 UV-I 0 W/m 2,6 C 3,5 C 6,4 km/h (2 Bft) 100,00 %
18.02.2017 18:12 3,4 C 94 % 1026,5 hPa 0,0 l/m 5,5 km/h (1 Bft) SW 230 0 min 0,000 mm 0,0 UV-I 0 W/m 2,5 C 3,4 C 8,0 km/h (2 Bft) 92,00 %
18.02.2017 18:14 3,4 C 94 % 1026,5 hPa 0,0 l/m 4,6 km/h (1 Bft) SW 234 0 min 0,000 mm 0,0 UV-I 0 W/m 2,5 C 3,4 C 6,4 km/h (2 Bft) 94,00 %
18.02.2017 18:16 3,4 C 94 % 1026,6 hPa 0,0 l/m 4,4 km/h (1 Bft) W-SW 254 0 min 0,000 mm 0,0 UV-I 0 W/m 2,5 C 3,4 C 8,0 km/h (2 Bft) 94,74 %
18.02.2017 18:18 3,4 C 94 % 1026,6 hPa 0,0 l/m 5,6 km/h (1 Bft) W-SW 246 0 min 0,000 mm 0,0 UV-I 0 W/m 2,5 C 3,4 C 8,0 km/h (2 Bft) 100,00 %
18.02.2017 18:20 3,4 C 94 % 1026,5 hPa 0,0 l/m 4,1 km/h (1 Bft) W-SW 246 0 min 0,000 mm 0,0 UV-I 0 W/m 2,5 C 3,4 C 6,4 km/h (2 Bft) 98,11 %
18.02.2017 18:22 3,5 C 94 % 1026,5 hPa 0,0 l/m 3,6 km/h (1 Bft) W-SW 246 0 min 0,000 mm 0,0 UV-I 0 W/m 2,6 C 3,5 C 6,4 km/h (2 Bft) 94,29 %
18.02.2017 18:24 3,4 C 94 % 1026,5 hPa 0,0 l/m 2,7 km/h (1 Bft) W-SW 246 0 min 0,000 mm 0,0 UV-I 0 W/m 2,5 C 3,4 C 4,8 km/h (1 Bft) 100,00 %
18.02.2017 18:26 3,3 C 94 % 1026,5 hPa 0,0 l/m 3,1 km/h (1 Bft) W-SW 246 0 min 0,000 mm 0,0 UV-I 0 W/m 2,4 C 3,3 C 4,8 km/h (1 Bft) 97,37 %
18.02.2017 18:28 3,3 C 94 % 1026,6 hPa 0,0 l/m 2,7 km/h (1 Bft) W-SW 246 0 min 0,000 mm 0,0 UV-I 0 W/m 2,4 C 3,3 C 4,8 km/h (1 Bft) 100,00 %
18.02.2017 18:30 3,3 C 94 % 1026,5 hPa 0,0 l/m 2,6 km/h (1 Bft) W-SW 246 0 min 0,000 mm 0,0 UV-I 0 W/m 2,4 C 3,3 C 3,2 km/h (1 Bft) 98,36 %
18.02.2017 18:32 3,2 C 94 % 1026,6 hPa 0,0 l/m 3,5 km/h (1 Bft) W-SW 243 0 min 0,000 mm 0,0 UV-I 0 W/m 2,3 C 3,2 C 6,4 km/h (2 Bft) 98,00 %
18.02.2017 18:34 3,2 C 94 % 1026,6 hPa 0,0 l/m 3,3 km/h (1 Bft) W-SW 239 0 min 0,000 mm 0,0 UV-I 0 W/m 2,3 C 3,2 C 4,8 km/h (1 Bft) 97,37 %
18.02.2017 18:36 3,2 C 94 % 1026,5 hPa 0,0 l/m 2,4 km/h (1 Bft) W-SW 239 0 min 0,000 mm 0,0 UV-I 0 W/m 2,3 C 3,2 C 3,2 km/h (1 Bft) 100,00 %
18.02.2017 18:38 3,1 C 94 % 1026,6 hPa 0,0 l/m 2,6 km/h (1 Bft) W-SW 239 0 min 0,000 mm 0,0 UV-I 0 W/m 2,2 C 3,1 C 4,8 km/h (1 Bft) 95,74 %
18.02.2017 18:40 3,0 C 94 % 1026,6 hPa 0,0 l/m 1,8 km/h (1 Bft) W-SW 239 0 min 0,000 mm 0,0 UV-I 0 W/m 2,1 C 3,0 C 4,8 km/h (1 Bft) 91,49 %
18.02.2017 18:42 2,9 C 94 % 1026,5 hPa 0,0 l/m 3,1 km/h (1 Bft) W-SW 239 0 min 0,000 mm 0,0 UV-I 0 W/m 2,0 C 2,9 C 6,4 km/h (2 Bft) 100,00 %
18.02.2017 18:44 2,8 C 94 % 1026,6 hPa 0,0 l/m 1,6 km/h (1 Bft) W-SW 239 0 min 0,000 mm 0,0 UV-I 0 W/m 1,9 C 2,8 C 4,8 km/h (1 Bft) 98,11 %
18.02.2017 18:46 2,8 C 94 % 1026,6 hPa 0,0 l/m 1,8 km/h (1 Bft) W-SW 239 0 min 0,000 mm 0,0 UV-I 0 W/m 1,9 C 2,8 C 3,2 km/h (1 Bft) 97,87 %
18.02.2017 18:48 2,8 C 95 % 1026,6 hPa 0,0 l/m 2,1 km/h (1 Bft) W-SW 239 0 min 0,000 mm 0,0 UV-I 0 W/m 2,1 C 2,8 C 3,2 km/h (1 Bft) 97,44 %
18.02.2017 18:50 2,8 C 95 % 1026,6 hPa 0,0 l/m 2,3 km/h (1 Bft) W-SW 239 0 min 0,000 mm 0,0 UV-I 0 W/m 2,1 C 2,8 C 3,2 km/h (1 Bft) 98,00 %
18.02.2017 18:52 2,8 C 95 % 1026,6 hPa 0,0 l/m 2,0 km/h (1 Bft) W-SW 239 0 min 0,000 mm 0,0 UV-I 0 W/m 2,1 C 2,8 C 3,2 km/h (1 Bft) 98,00 %
18.02.2017 18:54 2,8 C 95 % 1026,6 hPa 0,0 l/m 2,7 km/h (1 Bft) W-SW 239 0 min 0,000 mm 0,0 UV-I 0 W/m 2,1 C 2,8 C 4,8 km/h (1 Bft) 88,57 %
18.02.2017 18:56 2,7 C 95 % 1026,6 hPa 0,0 l/m 3,3 km/h (1 Bft) W-SW 239 0 min 0,000 mm 0,0 UV-I 0 W/m 2,0 C 2,7 C 4,8 km/h (1 Bft) 92,45 %
18.02.2017 18:58 2,7 C 95 % 1026,6 hPa 0,0 l/m 3,3 km/h (1 Bft) W-SW 239 0 min 0,000 mm 0,0 UV-I 0 W/m 2,0 C 2,7 C 4,8 km/h (1 Bft) 97,87 %
18.02.2017 19:00 2,8 C 95 % 1026,6 hPa 0,0 l/m 2,9 km/h (1 Bft) W-SW 239 0 min 0,000 mm 0,0 UV-I 0 W/m 2,1 C 2,8 C 4,8 km/h (1 Bft) 100,00 %
18.02.2017 19:02 2,7 C 95 % 1026,6 hPa 0,0 l/m 2,5 km/h (1 Bft) W-SW 239 0 min 0,000 mm 0,0 UV-I 0 W/m 2,0 C 2,7 C 4,8 km/h (1 Bft) 96,43 %
18.02.2017 19:04 2,7 C 95 % 1026,6 hPa 0,0 l/m 2,7 km/h (1 Bft) W-SW 239 0 min 0,000 mm 0,0 UV-I 0 W/m 2,0 C 2,7 C 4,8 km/h (1 Bft) 88,68 %
18.02.2017 19:06 2,7 C 95 % 1026,6 hPa 0,0 l/m 3,3 km/h (1 Bft) W-SW 239 0 min 0,000 mm 0,0 UV-I 0 W/m 2,0 C 2,7 C 6,4 km/h (2 Bft) 97,37 %
18.02.2017 19:08 2,7 C 95 % 1026,6 hPa 0,0 l/m 3,2 km/h (1 Bft) W-SW 239 0 min 0,000 mm 0,0 UV-I 0 W/m 2,0 C 2,7 C 4,8 km/h (1 Bft) 92,45 %
18.02.2017 19:10 2,7 C 95 % 1026,6 hPa 0,0 l/m 4,2 km/h (1 Bft) W-SW 239 0 min 0,000 mm 0,0 UV-I 0 W/m 2,0 C 2,7 C 6,4 km/h (2 Bft) 93,62 %
18.02.2017 19:12 2,7 C 95 % 1026,6 hPa 0,0 l/m 4,4 km/h (1 Bft) W-SW 239 0 min 0,000 mm 0,0 UV-I 0 W/m 2,0 C 2,7 C 6,4 km/h (2 Bft) 95,74 %
18.02.2017 19:14 2,7 C 95 % 1026,5 hPa 0,0 l/m 3,9 km/h (1 Bft) W-SW 238 0 min 0,000 mm 0,0 UV-I 0 W/m 2,0 C 2,7 C 6,4 km/h (2 Bft) 95,74 %
18.02.2017 19:16 2,7 C 95 % 1026,6 hPa 0,0 l/m 3,6 km/h (1 Bft) W-SW 239 0 min 0,000 mm 0,0 UV-I 0 W/m 2,0 C 2,7 C 6,4 km/h (2 Bft) 91,49 %
18.02.2017 19:18 2,7 C 95 % 1026,6 hPa 0,0 l/m 3,6 km/h (1 Bft) W-SW 238 0 min 0,000 mm 0,0 UV-I 0 W/m 2,0 C 2,7 C 4,8 km/h (1 Bft) 98,00 %
18.02.2017 19:20 2,7 C 95 % 1026,6 hPa 0,0 l/m 2,8 km/h (1 Bft) W-SW 239 0 min 0,000 mm 0,0 UV-I 0 W/m 2,0 C 2,7 C 4,8 km/h (1 Bft) 91,49 %
18.02.2017 19:22 2,8 C 96 % 1026,6 hPa 0,0 l/m 4,0 km/h (1 Bft) W-SW 237 0 min 0,000 mm 0,0 UV-I 0 W/m 2,2 C 2,8 C 6,4 km/h (2 Bft) 89,36 %
18.02.2017 19:24 2,8 C 95 % 1026,6 hPa 0,0 l/m 3,2 km/h (1 Bft) W-SW 237 0 min 0,000 mm 0,0 UV-I 0 W/m 2,1 C 2,8 C 4,8 km/h (1 Bft) 95,74 %
18.02.2017 19:26 2,8 C 96 % 1026,6 hPa 0,0 l/m 3,6 km/h (1 Bft) SW 236 0 min 0,000 mm 0,0 UV-I 0 W/m 2,2 C 2,8 C 6,4 km/h (2 Bft) 96,00 %
18.02.2017 19:28 2,8 C 96 % 1026,6 hPa 0,0 l/m 3,1 km/h (1 Bft) SW 236 0 min 0,000 mm 0,0 UV-I 0 W/m 2,2 C 2,8 C 6,4 km/h (2 Bft) 93,62 %
18.02.2017 19:30 2,9 C 96 % 1026,7 hPa 0,0 l/m 2,4 km/h (1 Bft) SW 236 0 min 0,000 mm 0,0 UV-I 0 W/m 2,3 C 2,9 C 6,4 km/h (2 Bft) 97,22 %
18.02.2017 19:32 2,9 C 96 % 1026,6 hPa 0,0 l/m 3,4 km/h (1 Bft) SW 236 0 min 0,000 mm 0,0 UV-I 0 W/m 2,3 C 2,9 C 4,8 km/h (1 Bft) 94,34 %
18.02.2017 19:34 2,8 C 95 % 1026,7 hPa 0,0 l/m 3,0 km/h (1 Bft) SW 236 0 min 0,000 mm 0,0 UV-I 0 W/m 2,1 C 2,8 C 4,8 km/h (1 Bft) 91,49 %
18.02.2017 19:36 2,8 C 95 % 1026,6 hPa 0,0 l/m 2,5 km/h (1 Bft) SW 236 0 min 0,000 mm 0,0 UV-I 0 W/m 2,1 C 2,8 C 4,8 km/h (1 Bft) 94,00 %
18.02.2017 19:38 2,8 C 95 % 1026,7 hPa 0,0 l/m 2,5 km/h (1 Bft) SW 236 0 min 0,000 mm 0,0 UV-I 0 W/m 2,1 C 2,8 C 4,8 km/h (1 Bft) 93,62 %
18.02.2017 19:40 2,7 C 95 % 1026,7 hPa 0,0 l/m 1,6 km/h (1 Bft) SW 236 0 min 0,000 mm 0,0 UV-I 0 W/m 2,0 C 2,7 C 3,2 km/h (1 Bft) 93,62 %
18.02.2017 19:42 2,7 C 95 % 1026,7 hPa 0,0 l/m 3,3 km/h (1 Bft) SW 236 0 min 0,000 mm 0,0 UV-I 0 W/m 2,0 C 2,7 C 4,8 km/h (1 Bft) 94,74 %
18.02.2017 19:44 2,7 C 95 % 1026,7 hPa 0,0 l/m 2,9 km/h (1 Bft) SW 236 0 min 0,000 mm 0,0 UV-I 0 W/m 2,0 C 2,7 C 4,8 km/h (1 Bft) 96,00 %
18.02.2017 19:46 2,7 C 95 % 1026,7 hPa 0,0 l/m 2,1 km/h (1 Bft) SW 236 0 min 0,000 mm 0,0 UV-I 0 W/m 2,0 C 2,7 C 3,2 km/h (1 Bft) 92,00 %
18.02.2017 19:48 2,8 C 96 % 1026,7 hPa 0,0 l/m 2,5 km/h (1 Bft) SW 236 0 min 0,000 mm 0,0 UV-I 0 W/m 2,2 C 2,8 C 3,2 km/h (1 Bft) 96,00 %
18.02.2017 19:50 2,8 C 96 % 1026,7 hPa 0,0 l/m 2,5 km/h (1 Bft) SW 236 0 min 0,000 mm 0,0 UV-I 0 W/m 2,2 C 2,8 C 4,8 km/h (1 Bft) 95,12 %
18.02.2017 19:52 2,9 C 96 % 1026,6 hPa 0,0 l/m 2,6 km/h (1 Bft) SW 236 0 min 0,000 mm 0,0 UV-I 0 W/m 2,3 C 2,9 C 4,8 km/h (1 Bft) 95,74 %
18.02.2017 19:54 2,9 C 96 % 1026,6 hPa 0,0 l/m 3,4 km/h (1 Bft) SW 236 0 min 0,000 mm 0,0 UV-I 0 W/m 2,3 C 2,9 C 4,8 km/h (1 Bft) 94,00 %
18.02.2017 19:56 2,9 C 96 % 1026,7 hPa 0,0 l/m 3,2 km/h (1 Bft) SW 236 0 min 0,000 mm 0,0 UV-I 0 W/m 2,3 C 2,9 C 4,8 km/h (1 Bft) 94,74 %
18.02.2017 19:58 2,9 C 95 % 1026,6 hPa 0,0 l/m 3,4 km/h (1 Bft) SW 236 0 min 0,000 mm 0,0 UV-I 0 W/m 2,2 C 2,9 C 4,8 km/h (1 Bft) 96,00 %
18.02.2017 20:00 2,9 C 95 % 1026,7 hPa 0,0 l/m 3,8 km/h (1 Bft) SW 236 0 min 0,000 mm 0,0 UV-I 0 W/m 2,2 C 2,9 C 4,8 km/h (1 Bft) 94,34 %
18.02.2017 20:02 2,9 C 95 % 1026,7 hPa 0,0 l/m 4,1 km/h (1 Bft) SW 236 0 min 0,000 mm 0,0 UV-I 0 W/m 2,2 C 2,9 C 4,8 km/h (1 Bft) 97,37 %
18.02.2017 20:04 2,9 C 95 % 1026,7 hPa 0,0 l/m 4,3 km/h (1 Bft) SW 236 0 min 0,000 mm 0,0 UV-I 0 W/m 2,2 C 2,9 C 4,8 km/h (1 Bft) 96,00 %
18.02.2017 20:06 2,9 C 95 % 1026,7 hPa 0,0 l/m 3,8 km/h (1 Bft) SW 236 0 min 0,000 mm 0,0 UV-I 0 W/m 2,2 C 2,9 C 4,8 km/h (1 Bft) 98,11 %
18.02.2017 20:08 2,9 C 95 % 1026,7 hPa 0,0 l/m 3,9 km/h (1 Bft) SW 236 0 min 0,000 mm 0,0 UV-I 0 W/m 2,2 C 2,9 C 6,4 km/h (2 Bft) 95,74 %
18.02.2017 20:10 2,9 C 95 % 1026,7 hPa 0,0 l/m 4,3 km/h (1 Bft) SW 236 0 min 0,000 mm 0,0 UV-I 0 W/m 2,2 C 2,9 C 6,4 km/h (2 Bft) 100,00 %
18.02.2017 20:12 2,8 C 95 % 1026,6 hPa 0,0 l/m 4,8 km/h (1 Bft) SW 236 0 min 0,000 mm 0,0 UV-I 0 W/m 2,1 C 2,8 C 6,4 km/h (2 Bft) 100,00 %
18.02.2017 20:14 2,8 C 95 % 1026,6 hPa 0,0 l/m 5,0 km/h (1 Bft) SW 236 0 min 0,000 mm 0,0 UV-I 0 W/m 2,1 C 2,8 C 6,4 km/h (2 Bft) 97,56 %
18.02.2017 20:16 2,8 C 95 % 1026,6 hPa 0,0 l/m 5,1 km/h (1 Bft) SW 236 0 min 0,000 mm 0,0 UV-I 0 W/m 2,1 C 2,8 C 6,4 km/h (2 Bft) 98,00 %
18.02.2017 20:18 2,8 C 95 % 1026,5 hPa 0,0 l/m 5,9 km/h (2 Bft) SW 235 0 min 0,000 mm 0,0 UV-I 0 W/m 2,1 C 2,8 C 6,4 km/h (2 Bft) 100,00 %
18.02.2017 20:20 2,8 C 95 % 1026,6 hPa 0,0 l/m 5,1 km/h (1 Bft) SW 232 0 min 0,000 mm 0,0 UV-I 0 W/m 2,1 C 2,8 C 6,4 km/h (2 Bft) 95,45 %
18.02.2017 20:22 2,7 C 95 % 1026,6 hPa 0,0 l/m 4,9 km/h (1 Bft) SW 232 0 min 0,000 mm 0,0 UV-I 0 W/m 2,0 C 2,7 C 6,4 km/h (2 Bft) 92,00 %
18.02.2017 20:24 2,7 C 95 % 1026,6 hPa 0,0 l/m 4,9 km/h (1 Bft) SW 232 0 min 0,000 mm 0,0 UV-I 0 W/m 2,0 C 2,7 C 6,4 km/h (2 Bft) 97,87 %
18.02.2017 20:26 2,7 C 95 % 1026,7 hPa 0,0 l/m 4,6 km/h (1 Bft) SW 232 0 min 0,000 mm 0,0 UV-I 0 W/m 2,0 C 2,7 C 6,4 km/h (2 Bft) 97,37 %
18.02.2017 20:28 2,7 C 95 % 1026,6 hPa 0,0 l/m 5,0 km/h (1 Bft) SW 231 0 min 0,000 mm 0,0 UV-I 0 W/m 2,0 C 2,7 C 6,4 km/h (2 Bft) 93,62 %
18.02.2017 20:30 2,7 C 95 % 1026,7 hPa 0,0 l/m 4,5 km/h (1 Bft) SW 231 0 min 0,000 mm 0,0 UV-I 0 W/m 2,0 C 2,7 C 6,4 km/h (2 Bft) 98,00 %
18.02.2017 20:32 2,8 C 95 % 1026,7 hPa 0,0 l/m 4,9 km/h (1 Bft) SW 231 0 min 0,000 mm 0,0 UV-I 0 W/m 2,1 C 2,8 C 6,4 km/h (2 Bft) 98,11 %
18.02.2017 20:34 2,8 C 95 % 1026,7 hPa 0,0 l/m 3,8 km/h (1 Bft) SW 231 0 min 0,000 mm 0,0 UV-I 0 W/m 2,1 C 2,8 C 6,4 km/h (2 Bft) 97,37 %
18.02.2017 20:36 2,8 C 95 % 1026,6 hPa 0,0 l/m 5,5 km/h (1 Bft) SW 230 0 min 0,000 mm 0,0 UV-I 0 W/m 2,1 C 2,8 C 8,0 km/h (2 Bft) 100,00 %
18.02.2017 20:38 2,8 C 95 % 1026,7 hPa 0,0 l/m 4,3 km/h (1 Bft) SW 230 0 min 0,000 mm 0,0 UV-I 0 W/m 2,1 C 2,8 C 6,4 km/h (2 Bft) 98,11 %
18.02.2017 20:40 2,8 C 95 % 1026,7 hPa 0,0 l/m 4,8 km/h (1 Bft) SW 230 0 min 0,000 mm 0,0 UV-I 0 W/m 2,1 C 2,8 C 8,0 km/h (2 Bft) 88,57 %
18.02.2017 20:42 2,8 C 95 % 1026,7 hPa 0,0 l/m 4,2 km/h (1 Bft) SW 230 0 min 0,000 mm 0,0 UV-I 0 W/m 2,1 C 2,8 C 6,4 km/h (2 Bft) 96,15 %
18.02.2017 20:44 2,7 C 95 % 1026,6 hPa 0,0 l/m 4,4 km/h (1 Bft) SW 230 0 min 0,000 mm 0,0 UV-I 0 W/m 2,0 C 2,7 C 6,4 km/h (2 Bft) 96,00 %
18.02.2017 20:46 2,7 C 95 % 1026,6 hPa 0,0 l/m 3,6 km/h (1 Bft) SW 230 0 min 0,000 mm 0,0 UV-I 0 W/m 2,0 C 2,7 C 6,4 km/h (2 Bft) 98,00 %
18.02.2017 20:48 2,7 C 95 % 1026,7 hPa 0,0 l/m 3,5 km/h (1 Bft) SW 230 0 min 0,000 mm 0,0 UV-I 0 W/m 2,0 C 2,7 C 4,8 km/h (1 Bft) 95,24 %
18.02.2017 20:50 2,7 C 95 % 1026,7 hPa 0,0 l/m 2,8 km/h (1 Bft) SW 230 0 min 0,000 mm 0,0 UV-I 0 W/m 2,0 C 2,7 C 4,8 km/h (1 Bft) 97,87 %
18.02.2017 20:52 2,6 C 95 % 1026,7 hPa 0,0 l/m 2,6 km/h (1 Bft) SW 230 0 min 0,000 mm 0,0 UV-I 0 W/m 1,9 C 2,6 C 4,8 km/h (1 Bft) 98,11 %
18.02.2017 20:54 2,6 C 95 % 1026,6 hPa 0,0 l/m 3,6 km/h (1 Bft) SW 230 0 min 0,000 mm 0,0 UV-I 0 W/m 1,9 C 2,6 C 4,8 km/h (1 Bft) 100,00 %
18.02.2017 20:56 2,6 C 95 % 1026,7 hPa 0,0 l/m 4,3 km/h (1 Bft) SW 230 0 min 0,000 mm 0,0 UV-I 0 W/m 1,9 C 2,6 C 6,4 km/h (2 Bft) 96,23 %
18.02.2017 20:58 2,6 C 95 % 1026,6 hPa 0,0 l/m 5,1 km/h (1 Bft) SW 229 0 min 0,000 mm 0,0 UV-I 0 W/m 1,9 C 2,6 C 8,0 km/h (2 Bft) 100,00 %
18.02.2017 21:00 2,7 C 95 % 1026,7 hPa 0,0 l/m 5,2 km/h (1 Bft) SW 229 0 min 0,000 mm 0,0 UV-I 0 W/m 2,0 C 2,7 C 8,0 km/h (2 Bft) 96,00 %
18.02.2017 21:02 2,7 C 95 % 1026,6 hPa 0,0 l/m 3,1 km/h (1 Bft) SW 229 0 min 0,000 mm 0,0 UV-I 0 W/m 2,0 C 2,7 C 6,4 km/h (2 Bft) 98,18 %
18.02.2017 21:04 2,7 C 95 % 1026,7 hPa 0,0 l/m 3,5 km/h (1 Bft) SW 227 0 min 0,000 mm 0,0 UV-I 0 W/m 2,0 C 2,7 C 6,4 km/h (2 Bft) 95,12 %
18.02.2017 21:06 2,7 C 95 % 1026,6 hPa 0,0 l/m 3,6 km/h (1 Bft) SW 227 0 min 0,000 mm 0,0 UV-I 0 W/m 2,0 C 2,7 C 4,8 km/h (1 Bft) 95,74 %
18.02.2017 21:08 2,7 C 95 % 1026,6 hPa 0,0 l/m 3,9 km/h (1 Bft) SW 227 0 min 0,000 mm 0,0 UV-I 0 W/m 2,0 C 2,7 C 6,4 km/h (2 Bft) 97,87 %
18.02.2017 21:10 2,7 C 95 % 1026,6 hPa 0,0 l/m 5,2 km/h (1 Bft) SW 227 0 min 0,000 mm 0,0 UV-I 0 W/m 2,0 C 2,7 C 6,4 km/h (2 Bft) 98,11 %
18.02.2017 21:12 2,7 C 94 % 1026,7 hPa 0,0 l/m 4,3 km/h (1 Bft) SW 227 0 min 0,000 mm 0,0 UV-I 0 W/m 1,8 C 2,7 C 6,4 km/h (2 Bft) 97,37 %
18.02.2017 21:14 2,8 C 94 % 1026,7 hPa 0,0 l/m 3,4 km/h (1 Bft) SW 227 0 min 0,000 mm 0,0 UV-I 0 W/m 1,9 C 2,8 C 6,4 km/h (2 Bft) 95,74 %
18.02.2017 21:16 2,7 C 94 % 1026,6 hPa 0,0 l/m 3,1 km/h (1 Bft) SW 227 0 min 0,000 mm 0,0 UV-I 0 W/m 1,8 C 2,7 C 4,8 km/h (1 Bft) 91,07 %
18.02.2017 21:18 2,7 C 94 % 1026,6 hPa 0,0 l/m 1,9 km/h (1 Bft) SW 227 0 min 0,000 mm 0,0 UV-I 0 W/m 1,8 C 2,7 C 4,8 km/h (1 Bft) 97,56 %
18.02.2017 21:20 2,7 C 94 % 1026,6 hPa 0,0 l/m 1,8 km/h (1 Bft) SW 227 0 min 0,000 mm 0,0 UV-I 0 W/m 1,8 C 2,7 C 3,2 km/h (1 Bft) 95,92 %
18.02.2017 21:22 2,8 C 94 % 1026,6 hPa 0,0 l/m 1,9 km/h (1 Bft) SW 227 0 min 0,000 mm 0,0 UV-I 0 W/m 1,9 C 2,8 C 4,8 km/h (1 Bft) 98,00 %
18.02.2017 21:24 2,7 C 94 % 1026,6 hPa 0,0 l/m 2,4 km/h (1 Bft) SW 227 0 min 0,000 mm 0,0 UV-I 0 W/m 1,8 C 2,7 C 4,8 km/h (1 Bft) 95,45 %
18.02.2017 21:26 2,7 C 94 % 1026,6 hPa 0,0 l/m 2,7 km/h (1 Bft) SW 226 0 min 0,000 mm 0,0 UV-I 0 W/m 1,8 C 2,7 C 4,8 km/h (1 Bft) 94,00 %
18.02.2017 21:28 2,7 C 94 % 1026,6 hPa 0,0 l/m 2,1 km/h (1 Bft) SW 225 0 min 0,000 mm 0,0 UV-I 0 W/m 1,8 C 2,7 C 3,2 km/h (1 Bft) 94,87 %
18.02.2017 21:30 2,7 C 94 % 1026,6 hPa 0,0 l/m 3,1 km/h (1 Bft) SW 223 0 min 0,000 mm 0,0 UV-I 0 W/m 1,8 C 2,7 C 6,4 km/h (2 Bft) 96,36 %
18.02.2017 21:32 2,7 C 94 % 1026,6 hPa 0,0 l/m 2,7 km/h (1 Bft) SW 223 0 min 0,000 mm 0,0 UV-I 0 W/m 1,8 C 2,7 C 4,8 km/h (1 Bft) 94,87 %
18.02.2017 21:34 2,7 C 94 % 1026,5 hPa 0,0 l/m 3,0 km/h (1 Bft) SW 222 0 min 0,000 mm 0,0 UV-I 0 W/m 1,8 C 2,7 C 4,8 km/h (1 Bft) 96,23 %
18.02.2017 21:36 2,7 C 94 % 1026,5 hPa 0,0 l/m 4,3 km/h (1 Bft) SW 221 0 min 0,000 mm 0,0 UV-I 0 W/m 1,8 C 2,7 C 6,4 km/h (2 Bft) 95,12 %
18.02.2017 21:38 2,7 C 94 % 1026,6 hPa 0,0 l/m 3,9 km/h (1 Bft) SW 221 0 min 0,000 mm 0,0 UV-I 0 W/m 1,8 C 2,7 C 4,8 km/h (1 Bft) 93,62 %
18.02.2017 21:40 2,7 C 94 % 1026,5 hPa 0,0 l/m 3,5 km/h (1 Bft) SW 221 0 min 0,000 mm 0,0 UV-I 0 W/m 1,8 C 2,7 C 6,4 km/h (2 Bft) 96,00 %
18.02.2017 21:42 2,7 C 94 % 1026,5 hPa 0,0 l/m 4,3 km/h (1 Bft) SW 220 0 min 0,000 mm 0,0 UV-I 0 W/m 1,8 C 2,7 C 6,4 km/h (2 Bft) 94,34 %
18.02.2017 21:44 2,7 C 94 % 1026,5 hPa 0,0 l/m 4,2 km/h (1 Bft) SW 220 0 min 0,000 mm 0,0 UV-I 0 W/m 1,8 C 2,7 C 6,4 km/h (2 Bft) 92,68 %
18.02.2017 21:46 2,7 C 94 % 1026,5 hPa 0,0 l/m 4,4 km/h (1 Bft) SW 219 0 min 0,000 mm 0,0 UV-I 0 W/m 1,8 C 2,7 C 8,0 km/h (2 Bft) 94,00 %
18.02.2017 21:48 2,7 C 94 % 1026,5 hPa 0,0 l/m 4,7 km/h (1 Bft) SW 219 0 min 0,000 mm 0,0 UV-I 0 W/m 1,8 C 2,7 C 6,4 km/h (2 Bft) 100,00 %
18.02.2017 21:50 2,7 C 94 % 1026,5 hPa 0,0 l/m 4,5 km/h (1 Bft) SW 220 0 min 0,000 mm 0,0 UV-I 0 W/m 1,8 C 2,7 C 6,4 km/h (2 Bft) 96,00 %
18.02.2017 21:52 2,7 C 94 % 1026,5 hPa 0,0 l/m 4,2 km/h (1 Bft) SW 220 0 min 0,000 mm 0,0 UV-I 0 W/m 1,8 C 2,7 C 6,4 km/h (2 Bft) 96,00 %
18.02.2017 21:54 2,6 C 94 % 1026,4 hPa 0,0 l/m 3,7 km/h (1 Bft) SW 219 0 min 0,000 mm 0,0 UV-I 0 W/m 1,7 C 2,6 C 4,8 km/h (1 Bft) 94,74 %
18.02.2017 21:56 2,6 C 94 % 1026,4 hPa 0,0 l/m 2,9 km/h (1 Bft) SW 220 0 min 0,000 mm 0,0 UV-I 0 W/m 1,7 C 2,6 C 4,8 km/h (1 Bft) 98,11 %
18.02.2017 21:58 2,5 C 94 % 1026,4 hPa 0,0 l/m 3,3 km/h (1 Bft) SW 219 0 min 0,000 mm 0,0 UV-I 0 W/m 1,6 C 2,5 C 4,8 km/h (1 Bft) 90,24 %
18.02.2017 22:00 2,5 C 94 % 1026,4 hPa 0,0 l/m 3,9 km/h (1 Bft) SW 220 0 min 0,000 mm 0,0 UV-I 0 W/m 1,6 C 2,5 C 6,4 km/h (2 Bft) 96,43 %
18.02.2017 22:02 2,4 C 94 % 1026,4 hPa 0,0 l/m 4,4 km/h (1 Bft) SW 220 0 min 0,000 mm 0,0 UV-I 0 W/m 1,5 C 2,4 C 6,4 km/h (2 Bft) 97,56 %
18.02.2017 22:04 2,4 C 94 % 1026,4 hPa 0,0 l/m 4,5 km/h (1 Bft) SW 219 0 min 0,000 mm 0,0 UV-I 0 W/m 1,5 C 2,4 C 6,4 km/h (2 Bft) 96,23 %
18.02.2017 22:06 2,4 C 94 % 1026,4 hPa 0,0 l/m 4,5 km/h (1 Bft) SW 219 0 min 0,000 mm 0,0 UV-I 0 W/m 1,5 C 2,4 C 6,4 km/h (2 Bft) 95,74 %
18.02.2017 22:08 2,4 C 95 % 1026,4 hPa 0,0 l/m 3,9 km/h (1 Bft) SW 219 0 min 0,000 mm 0,0 UV-I 0 W/m 1,7 C 2,4 C 4,8 km/h (1 Bft) 95,74 %
18.02.2017 22:10 2,4 C 95 % 1026,4 hPa 0,0 l/m 4,4 km/h (1 Bft) SW 219 0 min 0,000 mm 0,0 UV-I 0 W/m 1,7 C 2,4 C 6,4 km/h (2 Bft) 95,74 %
18.02.2017 22:12 2,4 C 94 % 1026,4 hPa 0,0 l/m 4,5 km/h (1 Bft) SW 219 0 min 0,000 mm 0,0 UV-I 0 W/m 1,5 C 2,4 C 6,4 km/h (2 Bft) 97,62 %
18.02.2017 22:14 2,4 C 94 % 1026,4 hPa 0,0 l/m 4,0 km/h (1 Bft) SW 219 0 min 0,000 mm 0,0 UV-I 0 W/m 1,5 C 2,4 C 6,4 km/h (2 Bft) 97,87 %
18.02.2017 22:16 2,4 C 95 % 1026,4 hPa 0,0 l/m 4,1 km/h (1 Bft) SW 219 0 min 0,000 mm 0,0 UV-I 0 W/m 1,7 C 2,4 C 6,4 km/h (2 Bft) 92,68 %
18.02.2017 22:18 2,4 C 95 % 1026,4 hPa 0,0 l/m 4,3 km/h (1 Bft) SW 219 0 min 0,000 mm 0,0 UV-I 0 W/m 1,7 C 2,4 C 6,4 km/h (2 Bft) 94,34 %
18.02.2017 22:20 2,4 C 94 % 1026,3 hPa 0,0 l/m 2,6 km/h (1 Bft) SW 219 0 min 0,000 mm 0,0 UV-I 0 W/m 1,5 C 2,4 C 6,4 km/h (2 Bft) 94,00 %
18.02.2017 22:22 2,3 C 94 % 1026,3 hPa 0,0 l/m 2,3 km/h (1 Bft) SW 219 0 min 0,000 mm 0,0 UV-I 0 W/m 1,4 C 2,3 C 3,2 km/h (1 Bft) 97,87 %
18.02.2017 22:24 2,3 C 95 % 1026,3 hPa 0,0 l/m 0,5 km/h (0 Bft) SW 219 0 min 0,000 mm 0,0 UV-I 0 W/m 1,6 C 2,3 C 3,2 km/h (1 Bft) 94,74 %
18.02.2017 22:26 2,2 C 95 % 1026,3 hPa 0,0 l/m 1,0 km/h (0 Bft) SW 219 0 min 0,000 mm 0,0 UV-I 0 W/m 1,5 C 2,2 C 3,2 km/h (1 Bft) 93,62 %
18.02.2017 22:28 2,2 C 95 % 1026,3 hPa 0,0 l/m 0,5 km/h (0 Bft) SW 219 0 min 0,000 mm 0,0 UV-I 0 W/m 1,5 C 2,2 C 1,6 km/h (1 Bft) 97,87 %
18.02.2017 22:30 2,1 C 94 % 1026,3 hPa 0,0 l/m 0,0 km/h (0 Bft) SW 219 0 min 0,000 mm 0,0 UV-I 0 W/m 1,2 C 2,1 C 0,0 km/h (0 Bft) 94,00 %
18.02.2017 22:32 2,1 C 95 % 1026,3 hPa 0,0 l/m 0,0 km/h (0 Bft) SW 219 0 min 0,000 mm 0,0 UV-I 0 W/m 1,4 C 2,1 C 0,0 km/h (0 Bft) 92,45 %
18.02.2017 22:34 2,1 C 95 % 1026,3 hPa 0,0 l/m 1,5 km/h (1 Bft) SW 219 0 min 0,000 mm 0,0 UV-I 0 W/m 1,4 C 2,1 C 3,2 km/h (1 Bft) 97,37 %
18.02.2017 22:36 2,2 C 95 % 1026,3 hPa 0,0 l/m 2,1 km/h (1 Bft) SW 219 0 min 0,000 mm 0,0 UV-I 0 W/m 1,5 C 2,2 C 3,2 km/h (1 Bft) 92,00 %
18.02.2017 22:38 2,2 C 95 % 1026,3 hPa 0,0 l/m 2,8 km/h (1 Bft) SW 219 0 min 0,000 mm 0,0 UV-I 0 W/m 1,5 C 2,2 C 3,2 km/h (1 Bft) 98,00 %
18.02.2017 22:40 2,2 C 95 % 1026,3 hPa 0,0 l/m 2,3 km/h (1 Bft) SW 219 0 min 0,000 mm 0,0 UV-I 0 W/m 1,5 C 2,2 C 3,2 km/h (1 Bft) 94,29 %
18.02.2017 22:42 2,2 C 95 % 1026,3 hPa 0,0 l/m 0,9 km/h (0 Bft) SW 219 0 min 0,000 mm 0,0 UV-I 0 W/m 1,5 C 2,2 C 3,2 km/h (1 Bft) 96,23 %
18.02.2017 22:44 2,2 C 95 % 1026,3 hPa 0,0 l/m 1,9 km/h (1 Bft) SW 219 0 min 0,000 mm 0,0 UV-I 0 W/m 1,5 C 2,2 C 3,2 km/h (1 Bft) 94,34 %
18.02.2017 22:46 2,1 C 95 % 1026,3 hPa 0,0 l/m 0,9 km/h (0 Bft) SW 219 0 min 0,000 mm 0,0 UV-I 0 W/m 1,4 C 2,1 C 1,6 km/h (1 Bft) 97,44 %
18.02.2017 22:48 2,1 C 95 % 1026,3 hPa 0,0 l/m 0,2 km/h (0 Bft) SW 219 0 min 0,000 mm 0,0 UV-I 0 W/m 1,4 C 2,1 C 1,6 km/h (1 Bft) 96,00 %
18.02.2017 22:50 2,0 C 95 % 1026,3 hPa 0,0 l/m 2,0 km/h (1 Bft) SW 219 0 min 0,000 mm 0,0 UV-I 0 W/m 1,3 C 2,0 C 3,2 km/h (1 Bft) 95,45 %
18.02.2017 22:52 1,9 C 95 % 1026,3 hPa 0,0 l/m 3,3 km/h (1 Bft) SW 219 0 min 0,000 mm 0,0 UV-I 0 W/m 1,2 C 1,9 C 4,8 km/h (1 Bft) 89,36 %
18.02.2017 22:54 2,1 C 95 % 1026,4 hPa 0,0 l/m 3,0 km/h (1 Bft) SW 219 0 min 0,000 mm 0,0 UV-I 0 W/m 1,4 C 2,1 C 4,8 km/h (1 Bft) 96,23 %
18.02.2017 22:56 2,2 C 96 % 1026,3 hPa 0,0 l/m 3,5 km/h (1 Bft) SW 219 0 min 0,000 mm 0,0 UV-I 0 W/m 1,6 C 2,2 C 4,8 km/h (1 Bft) 97,37 %
18.02.2017 22:58 2,3 C 96 % 1026,3 hPa 0,0 l/m 2,2 km/h (1 Bft) SW 219 0 min 0,000 mm 0,0 UV-I 0 W/m 1,7 C 2,3 C 3,2 km/h (1 Bft) 92,98 %
18.02.2017 23:00 2,3 C 95 % 1026,3 hPa 0,0 l/m 0,7 km/h (0 Bft) SW 219 0 min 0,000 mm 0,0 UV-I 0 W/m 1,6 C 2,3 C 3,2 km/h (1 Bft) 97,37 %
18.02.2017 23:02 2,3 C 95 % 1026,2 hPa 0,0 l/m 1,6 km/h (1 Bft) SW 219 0 min 0,000 mm 0,0 UV-I 0 W/m 1,6 C 2,3 C 3,2 km/h (1 Bft) 96,43 %
18.02.2017 23:04 2,4 C 95 % 1026,3 hPa 0,0 l/m 1,4 km/h (1 Bft) SW 219 0 min 0,000 mm 0,0 UV-I 0 W/m 1,7 C 2,4 C 3,2 km/h (1 Bft) 97,37 %
18.02.2017 23:06 2,3 C 95 % 1026,3 hPa 0,0 l/m 0,5 km/h (0 Bft) SW 219 0 min 0,000 mm 0,0 UV-I 0 W/m 1,6 C 2,3 C 1,6 km/h (1 Bft) 98,00 %
18.02.2017 23:08 2,3 C 95 % 1026,3 hPa 0,0 l/m 0,4 km/h (0 Bft) SW 219 0 min 0,000 mm 0,0 UV-I 0 W/m 1,6 C 2,3 C 1,6 km/h (1 Bft) 97,87 %
18.02.2017 23:10 2,2 C 95 % 1026,3 hPa 0,0 l/m 2,6 km/h (1 Bft) SW 219 0 min 0,000 mm 0,0 UV-I 0 W/m 1,5 C 2,2 C 3,2 km/h (1 Bft) 97,37 %
18.02.2017 23:12 2,3 C 95 % 1026,3 hPa 0,0 l/m 2,8 km/h (1 Bft) SW 219 0 min 0,000 mm 0,0 UV-I 0 W/m 1,6 C 2,3 C 4,8 km/h (1 Bft) 96,55 %
18.02.2017 23:14 2,3 C 95 % 1026,3 hPa 0,0 l/m 2,2 km/h (1 Bft) SW 219 0 min 0,000 mm 0,0 UV-I 0 W/m 1,6 C 2,3 C 3,2 km/h (1 Bft) 98,00 %
18.02.2017 23:16 2,3 C 95 % 1026,3 hPa 0,0 l/m 1,7 km/h (1 Bft) SW 219 0 min 0,000 mm 0,0 UV-I 0 W/m 1,6 C 2,3 C 3,2 km/h (1 Bft) 100,00 %
18.02.2017 23:18 2,3 C 95 % 1026,3 hPa 0,0 l/m 1,0 km/h (0 Bft) SW 219 0 min 0,000 mm 0,0 UV-I 0 W/m 1,6 C 2,3 C 3,2 km/h (1 Bft) 94,74 %
18.02.2017 23:20 2,2 C 95 % 1026,3 hPa 0,0 l/m 2,1 km/h (1 Bft) SW 219 0 min 0,000 mm 0,0 UV-I 0 W/m 1,5 C 2,2 C 3,2 km/h (1 Bft) 100,00 %
18.02.2017 23:22 2,0 C 94 % 1026,3 hPa 0,0 l/m 2,5 km/h (1 Bft) SW 219 0 min 0,000 mm 0,0 UV-I 0 W/m 1,1 C 2,0 C 3,2 km/h (1 Bft) 95,74 %
18.02.2017 23:24 1,8 C 94 % 1026,3 hPa 0,0 l/m 2,4 km/h (1 Bft) SW 219 0 min 0,000 mm 0,0 UV-I 0 W/m 0,9 C 1,8 C 3,2 km/h (1 Bft) 96,23 %
18.02.2017 23:26 1,7 C 95 % 1026,3 hPa 0,0 l/m 1,8 km/h (1 Bft) SW 219 0 min 0,000 mm 0,0 UV-I 0 W/m 1,0 C 1,7 C 3,2 km/h (1 Bft) 100,00 %
18.02.2017 23:28 1,6 C 95 % 1026,2 hPa 0,0 l/m 2,5 km/h (1 Bft) SW 219 0 min 0,000 mm 0,0 UV-I 0 W/m 0,9 C 1,6 C 3,2 km/h (1 Bft) 98,00 %
18.02.2017 23:30 1,6 C 95 % 1026,3 hPa 0,0 l/m 1,7 km/h (1 Bft) SW 219 0 min 0,000 mm 0,0 UV-I 0 W/m 0,9 C 1,6 C 3,2 km/h (1 Bft) 95,12 %
18.02.2017 23:32 1,7 C 96 % 1026,3 hPa 0,0 l/m 1,8 km/h (1 Bft) SW 219 0 min 0,000 mm 0,0 UV-I 0 W/m 1,1 C 1,7 C 3,2 km/h (1 Bft) 98,11 %
18.02.2017 23:34 1,6 C 95 % 1026,3 hPa 0,0 l/m 1,0 km/h (0 Bft) SW 219 0 min 0,000 mm 0,0 UV-I 0 W/m 0,9 C 1,6 C 3,2 km/h (1 Bft) 97,87 %
18.02.2017 23:36 1,4 C 95 % 1026,3 hPa 0,0 l/m 1,0 km/h (0 Bft) SW 219 0 min 0,000 mm 0,0 UV-I 0 W/m 0,7 C 1,4 C 3,2 km/h (1 Bft) 97,87 %
18.02.2017 23:38 1,3 C 95 % 1026,2 hPa 0,0 l/m 1,9 km/h (1 Bft) SW 219 0 min 0,000 mm 0,0 UV-I 0 W/m 0,6 C 1,3 C 3,2 km/h (1 Bft) 100,00 %
18.02.2017 23:40 1,3 C 96 % 1026,2 hPa 0,0 l/m 2,8 km/h (1 Bft) SW 219 0 min 0,000 mm 0,0 UV-I 0 W/m 0,7 C 1,3 C 3,2 km/h (1 Bft) 98,00 %
18.02.2017 23:42 1,3 C 96 % 1026,3 hPa 0,0 l/m 1,9 km/h (1 Bft) SW 219 0 min 0,000 mm 0,0 UV-I 0 W/m 0,7 C 1,3 C 3,2 km/h (1 Bft) 97,87 %
18.02.2017 23:44 1,4 C 96 % 1026,3 hPa 0,0 l/m 2,3 km/h (1 Bft) SW 219 0 min 0,000 mm 0,0 UV-I 0 W/m 0,8 C 1,4 C 3,2 km/h (1 Bft) 97,73 %
18.02.2017 23:46 1,4 C 96 % 1026,3 hPa 0,0 l/m 3,1 km/h (1 Bft) SW 219 0 min 0,000 mm 0,0 UV-I 0 W/m 0,8 C 1,4 C 3,2 km/h (1 Bft) 96,00 %
18.02.2017 23:48 1,3 C 96 % 1026,2 hPa 0,0 l/m 3,4 km/h (1 Bft) SW 219 0 min 0,000 mm 0,0 UV-I 0 W/m 0,7 C 1,3 C 4,8 km/h (1 Bft) 97,56 %
18.02.2017 23:50 1,2 C 96 % 1026,2 hPa 0,0 l/m 3,5 km/h (1 Bft) SW 219 0 min 0,000 mm 0,0 UV-I 0 W/m 0,6 C 1,2 C 4,8 km/h (1 Bft) 97,73 %
18.02.2017 23:52 1,2 C 96 % 1026,2 hPa 0,0 l/m 3,5 km/h (1 Bft) SW 219 0 min 0,000 mm 0,0 UV-I 0 W/m 0,6 C 1,2 C 4,8 km/h (1 Bft) 91,49 %
18.02.2017 23:54 1,2 C 96 % 1026,3 hPa 0,0 l/m 2,0 km/h (1 Bft) SW 219 0 min 0,000 mm 0,0 UV-I 0 W/m 0,6 C 1,2 C 3,2 km/h (1 Bft) 98,00 %
18.02.2017 23:56 1,3 C 96 % 1026,3 hPa 0,0 l/m 0,4 km/h (0 Bft) SW 219 0 min 0,000 mm 0,0 UV-I 0 W/m 0,7 C 1,3 C 1,6 km/h (1 Bft) 98,00 %
18.02.2017 23:58 1,3 C 97 % 1026,3 hPa 0,0 l/m 0,0 km/h (0 Bft) SW 219 0 min 0,000 mm 0,0 UV-I 0 W/m 0,9 C 1,3 C 0,0 km/h (0 Bft) 97,73 %
_ Min-Zeit 23:52 14:04 03:24 - 22:30 - - - - - - 23:38 03:22 22:30 00:02
Minimum _ 1,1 C 89 % 1025,0 hPa - 0,0 km/h (0 Bft) - - - - - - 0,6 C -5,5 C 0,0 km/h (0 Bft) 5,56 %
_ Max-Zeit 13:58 08:10 11:22 01:02 03:22 - - 13:46 14:02 13:46 13:50 13:50 15:10 03:22 00:14
Maximum _ 5,5 C 97 % 1026,8 hPa 0,2 l/m 17,5 km/h
SW (3 Bft)
- - 2 min 0,077 mm 0,9 UV-I 267 W/m 4,1 C 5,2 C 27,4 km/h
W-SW (4 Bft)
100,00 %
Durchschnitt _ 3,1 C 95 % 1026,1 hPa #0,6 l/m 7,2 km/h (2 Bft) SW - #8 min. #0,356 mm 0,6 UV-I 76 W/m 2,3 C 1,5 C 11,1 km/h (2 Bft) 96,23 %